<?xml version="1.0" encoding="UTF-8" standalone="no" ?>
<gpx xmlns="http://www.topografix.com/GPX/1/1" xmlns:xsi="http://www.w3.org/2001/XMLSchema-instance" xsi:schemaLocation="http://www.topografix.com/GPX/1/1 http://www.topografix.com/GPX/1/1/gpx.xsd" version="1.1" creator="VisuGPX - https://www.visugpx.com">
  <metadata>
    <name>Wallabies Tet Adriatique Juillet 2025/1</name>
    <desc><![CDATA[Les Wallabies Adriatique 2025]]></desc>
  </metadata>
  <trk>
    <name><![CDATA[3.1 ACT MNE_AL]]></name>
    <extensions>
      <line xmlns="http://www.topografix.com/GPX/gpx_style/0/2">
        <color>ff2600</color>
        <width>4</width>
      </line>
    </extensions>
    <trkseg>
      <trkpt lat="42.04845" lon="19.56788">
        <ele>15.57421875</ele>
      </trkpt>
      <trkpt lat="42.04886" lon="19.57049">
        <ele>14.80078125</ele>
      </trkpt>
      <trkpt lat="42.04872" lon="19.571">
        <ele>13.484375</ele>
      </trkpt>
      <trkpt lat="42.04813" lon="19.57176">
        <ele>13.06640625</ele>
      </trkpt>
      <trkpt lat="42.04728" lon="19.57249">
        <ele>18.01953125</ele>
      </trkpt>
      <trkpt lat="42.04637" lon="19.57286">
        <ele>20.30859375</ele>
      </trkpt>
      <trkpt lat="42.04579" lon="19.57295">
        <ele>20.38671875</ele>
      </trkpt>
      <trkpt lat="42.0452" lon="19.57297">
        <ele>20.9453125</ele>
      </trkpt>
      <trkpt lat="42.04446" lon="19.57255">
        <ele>20.171875</ele>
      </trkpt>
      <trkpt lat="42.0438" lon="19.57218">
        <ele>19.16796875</ele>
      </trkpt>
      <trkpt lat="42.04299" lon="19.57154">
        <ele>18.7265625</ele>
      </trkpt>
      <trkpt lat="42.04227" lon="19.5713">
        <ele>19.43359375</ele>
      </trkpt>
      <trkpt lat="42.04146" lon="19.57122">
        <ele>18.671875</ele>
      </trkpt>
      <trkpt lat="42.04094" lon="19.57104">
        <ele>17.4375</ele>
      </trkpt>
      <trkpt lat="42.04035" lon="19.57097">
        <ele>16.02734375</ele>
      </trkpt>
      <trkpt lat="42.03884" lon="19.5706">
        <ele>15.80859375</ele>
      </trkpt>
      <trkpt lat="42.03735" lon="19.56977">
        <ele>14.05859375</ele>
      </trkpt>
      <trkpt lat="42.03584" lon="19.56902">
        <ele>10.9453125</ele>
      </trkpt>
      <trkpt lat="42.0356" lon="19.56896">
        <ele>10.2578125</ele>
      </trkpt>
      <trkpt lat="42.03505" lon="19.56896">
        <ele>10.81640625</ele>
      </trkpt>
      <trkpt lat="42.03357" lon="19.56823">
        <ele>13.46875</ele>
      </trkpt>
      <trkpt lat="42.0328" lon="19.56804">
        <ele>12.65234375</ele>
      </trkpt>
      <trkpt lat="42.03178" lon="19.5679">
        <ele>11.4375</ele>
      </trkpt>
      <trkpt lat="42.0312" lon="19.56744">
        <ele>10.10546875</ele>
      </trkpt>
      <trkpt lat="42.03079" lon="19.56716">
        <ele>8.3203125</ele>
      </trkpt>
      <trkpt lat="42.03025" lon="19.56725">
        <ele>7.7265625</ele>
      </trkpt>
      <trkpt lat="42.02984" lon="19.56755">
        <ele>7.375</ele>
      </trkpt>
      <trkpt lat="42.02852" lon="19.56922">
        <ele>8.41015625</ele>
      </trkpt>
      <trkpt lat="42.02824" lon="19.56997">
        <ele>9.265625</ele>
      </trkpt>
      <trkpt lat="42.02777" lon="19.57163">
        <ele>11.35546875</ele>
      </trkpt>
      <trkpt lat="42.02696" lon="19.57358">
        <ele>12.6015625</ele>
      </trkpt>
      <trkpt lat="42.02633" lon="19.57383">
        <ele>12.2734375</ele>
      </trkpt>
      <trkpt lat="42.02542" lon="19.5744">
        <ele>12.546875</ele>
      </trkpt>
      <trkpt lat="42.02357" lon="19.57545">
        <ele>17.33203125</ele>
      </trkpt>
      <trkpt lat="42.02222" lon="19.57658">
        <ele>23.690000534058</ele>
        <time>2023-10-01T15:46:02.000Z</time>
      </trkpt>
      <trkpt lat="42.02218" lon="19.57665">
        <ele>23.690000534058</ele>
        <time>2023-10-01T15:46:01.000Z</time>
      </trkpt>
      <trkpt lat="42.02215" lon="19.57667">
        <ele>23.690000534058</ele>
        <time>2023-10-01T15:46:00.000Z</time>
      </trkpt>
      <trkpt lat="42.02205" lon="19.57678">
        <ele>23.209999084473</ele>
        <time>2023-10-01T15:45:59.000Z</time>
      </trkpt>
      <trkpt lat="42.02195" lon="19.57685">
        <ele>23.209999084473</ele>
        <time>2023-10-01T15:45:58.000Z</time>
      </trkpt>
      <trkpt lat="42.02133" lon="19.57729">
        <ele>23.209999084473</ele>
        <time>2023-10-01T15:45:54.000Z</time>
      </trkpt>
      <trkpt lat="42.02006" lon="19.57811">
        <ele>25.610000610352</ele>
        <time>2023-10-01T15:45:47.000Z</time>
      </trkpt>
      <trkpt lat="42.01889" lon="19.57897">
        <ele>27.530000686646</ele>
        <time>2023-10-01T15:45:41.000Z</time>
      </trkpt>
      <trkpt lat="42.01873" lon="19.57906">
        <ele>27.530000686646</ele>
        <time>2023-10-01T15:45:40.000Z</time>
      </trkpt>
      <trkpt lat="42.01857" lon="19.57911">
        <ele>27.530000686646</ele>
        <time>2023-10-01T15:45:39.000Z</time>
      </trkpt>
      <trkpt lat="42.01843" lon="19.57912">
        <ele>27.530000686646</ele>
        <time>2023-10-01T15:45:38.000Z</time>
      </trkpt>
      <trkpt lat="42.01752" lon="19.57906">
        <ele>28.020000457764</ele>
        <time>2023-10-01T15:45:33.000Z</time>
      </trkpt>
      <trkpt lat="42.01733" lon="19.57904">
        <ele>27.530000686646</ele>
        <time>2023-10-01T15:45:32.000Z</time>
      </trkpt>
      <trkpt lat="42.01717" lon="19.57897">
        <ele>27.530000686646</ele>
        <time>2023-10-01T15:45:31.000Z</time>
      </trkpt>
      <trkpt lat="42.01703" lon="19.57886">
        <ele>27.049999237061</ele>
        <time>2023-10-01T15:45:30.000Z</time>
      </trkpt>
      <trkpt lat="42.01695" lon="19.57878">
        <ele>26.569999694824</ele>
        <time>2023-10-01T15:45:29.000Z</time>
      </trkpt>
      <trkpt lat="42.01654" lon="19.57829">
        <ele>25.610000610352</ele>
        <time>2023-10-01T15:45:26.000Z</time>
      </trkpt>
      <trkpt lat="42.01631" lon="19.57806">
        <ele>25.129999160767</ele>
        <time>2023-10-01T15:45:25.000Z</time>
      </trkpt>
      <trkpt lat="42.01616" lon="19.57796">
        <ele>24.64999961853</ele>
        <time>2023-10-01T15:45:24.000Z</time>
      </trkpt>
      <trkpt lat="42.016" lon="19.5779">
        <ele>24.64999961853</ele>
        <time>2023-10-01T15:45:23.000Z</time>
      </trkpt>
      <trkpt lat="42.01582" lon="19.57786">
        <ele>24.170000076294</ele>
        <time>2023-10-01T15:45:22.000Z</time>
      </trkpt>
      <trkpt lat="42.01566" lon="19.57786">
        <ele>24.170000076294</ele>
        <time>2023-10-01T15:45:21.000Z</time>
      </trkpt>
      <trkpt lat="42.01549" lon="19.5779">
        <ele>24.170000076294</ele>
        <time>2023-10-01T15:45:20.000Z</time>
      </trkpt>
      <trkpt lat="42.01536" lon="19.57796">
        <ele>24.170000076294</ele>
        <time>2023-10-01T15:45:19.000Z</time>
      </trkpt>
      <trkpt lat="42.01532" lon="19.57799">
        <ele>24.170000076294</ele>
        <time>2023-10-01T15:45:18.000Z</time>
      </trkpt>
      <trkpt lat="42.01434" lon="19.57869">
        <ele>24.64999961853</ele>
        <time>2023-10-01T15:45:13.000Z</time>
      </trkpt>
      <trkpt lat="42.01418" lon="19.57885">
        <ele>25.610000610352</ele>
        <time>2023-10-01T15:45:12.000Z</time>
      </trkpt>
      <trkpt lat="42.01411" lon="19.57894">
        <ele>26.090000152588</ele>
        <time>2023-10-01T15:45:11.000Z</time>
      </trkpt>
      <trkpt lat="42.01393" lon="19.57921">
        <ele>26.569999694824</ele>
        <time>2023-10-01T15:45:09.000Z</time>
      </trkpt>
      <trkpt lat="42.01386" lon="19.57934">
        <ele>26.569999694824</ele>
        <time>2023-10-01T15:45:08.000Z</time>
      </trkpt>
      <trkpt lat="42.01381" lon="19.57948">
        <ele>27.049999237061</ele>
        <time>2023-10-01T15:45:07.000Z</time>
      </trkpt>
      <trkpt lat="42.01378" lon="19.57963">
        <ele>27.530000686646</ele>
        <time>2023-10-01T15:45:06.000Z</time>
      </trkpt>
      <trkpt lat="42.01377" lon="19.57978">
        <ele>27.530000686646</ele>
        <time>2023-10-01T15:45:05.000Z</time>
      </trkpt>
      <trkpt lat="42.01379" lon="19.57991">
        <ele>28.020000457764</ele>
        <time>2023-10-01T15:45:04.000Z</time>
      </trkpt>
      <trkpt lat="42.01382" lon="19.58006">
        <ele>28.020000457764</ele>
        <time>2023-10-01T15:45:03.000Z</time>
      </trkpt>
      <trkpt lat="42.01387" lon="19.5802">
        <ele>28.5</ele>
        <time>2023-10-01T15:45:02.000Z</time>
      </trkpt>
      <trkpt lat="42.01424" lon="19.58136">
        <ele>29.459999084473</ele>
        <time>2023-10-01T15:44:56.000Z</time>
      </trkpt>
      <trkpt lat="42.01427" lon="19.58154">
        <ele>29.459999084473</ele>
        <time>2023-10-01T15:44:55.000Z</time>
      </trkpt>
      <trkpt lat="42.01428" lon="19.5817">
        <ele>29.459999084473</ele>
        <time>2023-10-01T15:44:54.000Z</time>
      </trkpt>
      <trkpt lat="42.01428" lon="19.58181">
        <ele>29.459999084473</ele>
        <time>2023-10-01T15:44:53.000Z</time>
      </trkpt>
      <trkpt lat="42.01427" lon="19.58197">
        <ele>29.459999084473</ele>
        <time>2023-10-01T15:44:52.000Z</time>
      </trkpt>
      <trkpt lat="42.01425" lon="19.58214">
        <ele>29.459999084473</ele>
        <time>2023-10-01T15:44:51.000Z</time>
      </trkpt>
      <trkpt lat="42.01421" lon="19.5825">
        <ele>28.979999542236</ele>
        <time>2023-10-01T15:44:49.000Z</time>
      </trkpt>
      <trkpt lat="42.01413" lon="19.58319">
        <ele>29.940000534058</ele>
        <time>2023-10-01T15:44:46.000Z</time>
      </trkpt>
      <trkpt lat="42.01408" lon="19.58335">
        <ele>30.420000076294</ele>
        <time>2023-10-01T15:44:45.000Z</time>
      </trkpt>
      <trkpt lat="42.01402" lon="19.58349">
        <ele>30.420000076294</ele>
        <time>2023-10-01T15:44:44.000Z</time>
      </trkpt>
      <trkpt lat="42.01396" lon="19.58368">
        <ele>30.420000076294</ele>
        <time>2023-10-01T15:44:43.000Z</time>
      </trkpt>
      <trkpt lat="42.01393" lon="19.58382">
        <ele>30.420000076294</ele>
        <time>2023-10-01T15:44:42.000Z</time>
      </trkpt>
      <trkpt lat="42.01393" lon="19.58398">
        <ele>30.420000076294</ele>
        <time>2023-10-01T15:44:41.000Z</time>
      </trkpt>
      <trkpt lat="42.01394" lon="19.58415">
        <ele>30.420000076294</ele>
        <time>2023-10-01T15:44:40.000Z</time>
      </trkpt>
      <trkpt lat="42.01395" lon="19.58424">
        <ele>30.420000076294</ele>
        <time>2023-10-01T15:44:39.000Z</time>
      </trkpt>
      <trkpt lat="42.01398" lon="19.58442">
        <ele>30.420000076294</ele>
        <time>2023-10-01T15:44:38.000Z</time>
      </trkpt>
      <trkpt lat="42.01401" lon="19.58463">
        <ele>30.420000076294</ele>
        <time>2023-10-01T15:44:37.000Z</time>
      </trkpt>
      <trkpt lat="42.014" lon="19.5848">
        <ele>30.420000076294</ele>
        <time>2023-10-01T15:44:36.000Z</time>
      </trkpt>
      <trkpt lat="42.01396" lon="19.58497">
        <ele>29.940000534058</ele>
        <time>2023-10-01T15:44:35.000Z</time>
      </trkpt>
      <trkpt lat="42.01389" lon="19.58513">
        <ele>29.940000534058</ele>
        <time>2023-10-01T15:44:34.000Z</time>
      </trkpt>
      <trkpt lat="42.0138" lon="19.58526">
        <ele>29.459999084473</ele>
        <time>2023-10-01T15:44:33.000Z</time>
      </trkpt>
      <trkpt lat="42.01373" lon="19.58532">
        <ele>29.940000534058</ele>
        <time>2023-10-01T15:44:32.000Z</time>
      </trkpt>
      <trkpt lat="42.01286" lon="19.58605">
        <ele>29.940000534058</ele>
        <time>2023-10-01T15:44:26.000Z</time>
      </trkpt>
      <trkpt lat="42.01274" lon="19.58616">
        <ele>30.420000076294</ele>
        <time>2023-10-01T15:44:25.000Z</time>
      </trkpt>
      <trkpt lat="42.01262" lon="19.5863">
        <ele>30.89999961853</ele>
        <time>2023-10-01T15:44:24.000Z</time>
      </trkpt>
      <trkpt lat="42.01252" lon="19.58649">
        <ele>30.89999961853</ele>
        <time>2023-10-01T15:44:23.000Z</time>
      </trkpt>
      <trkpt lat="42.01244" lon="19.58669">
        <ele>31.379999160767</ele>
        <time>2023-10-01T15:44:22.000Z</time>
      </trkpt>
      <trkpt lat="42.01241" lon="19.58676">
        <ele>31.379999160767</ele>
        <time>2023-10-01T15:44:21.000Z</time>
      </trkpt>
      <trkpt lat="42.01228" lon="19.58713">
        <ele>32.340000152588</ele>
        <time>2023-10-01T15:44:20.000Z</time>
      </trkpt>
      <trkpt lat="42.01189" lon="19.58816">
        <ele>34.259998321533</ele>
        <time>2023-10-01T15:44:16.000Z</time>
      </trkpt>
      <trkpt lat="42.01183" lon="19.58837">
        <ele>34.740001678467</ele>
        <time>2023-10-01T15:44:15.000Z</time>
      </trkpt>
      <trkpt lat="42.01181" lon="19.5885">
        <ele>34.740001678467</ele>
        <time>2023-10-01T15:44:14.000Z</time>
      </trkpt>
      <trkpt lat="42.01179" lon="19.58861">
        <ele>35.229999542236</ele>
        <time>2023-10-01T15:44:13.000Z</time>
      </trkpt>
      <trkpt lat="42.01179" lon="19.58875">
        <ele>35.229999542236</ele>
        <time>2023-10-01T15:44:12.000Z</time>
      </trkpt>
      <trkpt lat="42.0118" lon="19.58891">
        <ele>35.709999084473</ele>
        <time>2023-10-01T15:44:11.000Z</time>
      </trkpt>
      <trkpt lat="42.01181" lon="19.58897">
        <ele>35.709999084473</ele>
        <time>2023-10-01T15:44:10.000Z</time>
      </trkpt>
      <trkpt lat="42.01184" lon="19.58913">
        <ele>35.709999084473</ele>
        <time>2023-10-01T15:44:09.000Z</time>
      </trkpt>
      <trkpt lat="42.01186" lon="19.58922">
        <ele>35.709999084473</ele>
        <time>2023-10-01T15:44:08.000Z</time>
      </trkpt>
      <trkpt lat="42.01188" lon="19.58937">
        <ele>35.709999084473</ele>
        <time>2023-10-01T15:44:07.000Z</time>
      </trkpt>
      <trkpt lat="42.01189" lon="19.58948">
        <ele>35.229999542236</ele>
        <time>2023-10-01T15:44:06.000Z</time>
      </trkpt>
      <trkpt lat="42.01189" lon="19.58956">
        <ele>35.709999084473</ele>
        <time>2023-10-01T15:44:05.000Z</time>
      </trkpt>
      <trkpt lat="42.01187" lon="19.58968">
        <ele>35.709999084473</ele>
        <time>2023-10-01T15:44:04.000Z</time>
      </trkpt>
      <trkpt lat="42.01184" lon="19.58978">
        <ele>35.709999084473</ele>
        <time>2023-10-01T15:44:03.000Z</time>
      </trkpt>
      <trkpt lat="42.01182" lon="19.58984">
        <ele>35.709999084473</ele>
        <time>2023-10-01T15:44:02.000Z</time>
      </trkpt>
      <trkpt lat="42.01177" lon="19.58994">
        <ele>35.709999084473</ele>
        <time>2023-10-01T15:44:01.000Z</time>
      </trkpt>
      <trkpt lat="42.01149" lon="19.59047">
        <ele>35.229999542236</ele>
        <time>2023-10-01T15:43:56.000Z</time>
      </trkpt>
      <trkpt lat="42.01127" lon="19.59092">
        <ele>34.740001678467</ele>
        <time>2023-10-01T15:43:52.000Z</time>
      </trkpt>
      <trkpt lat="42.01119" lon="19.59106">
        <ele>34.740001678467</ele>
        <time>2023-10-01T15:43:51.000Z</time>
      </trkpt>
      <trkpt lat="42.01114" lon="19.59113">
        <ele>34.740001678467</ele>
        <time>2023-10-01T15:43:50.000Z</time>
      </trkpt>
      <trkpt lat="42.01109" lon="19.59118">
        <ele>34.740001678467</ele>
        <time>2023-10-01T15:43:49.000Z</time>
      </trkpt>
      <trkpt lat="42.01104" lon="19.59122">
        <ele>34.740001678467</ele>
        <time>2023-10-01T15:43:48.000Z</time>
      </trkpt>
      <trkpt lat="42.01098" lon="19.59126">
        <ele>34.740001678467</ele>
        <time>2023-10-01T15:43:47.000Z</time>
      </trkpt>
      <trkpt lat="42.01094" lon="19.59128">
        <ele>34.740001678467</ele>
        <time>2023-10-01T15:43:46.000Z</time>
      </trkpt>
      <trkpt lat="42.01068" lon="19.59146">
        <ele>34.259998321533</ele>
        <time>2023-10-01T15:43:42.000Z</time>
      </trkpt>
      <trkpt lat="42.01058" lon="19.59154">
        <ele>33.779998779297</ele>
        <time>2023-10-01T15:43:41.000Z</time>
      </trkpt>
      <trkpt lat="42.01049" lon="19.59163">
        <ele>33.299999237061</ele>
        <time>2023-10-01T15:43:40.000Z</time>
      </trkpt>
      <trkpt lat="42.01043" lon="19.59172">
        <ele>32.819999694824</ele>
        <time>2023-10-01T15:43:39.000Z</time>
      </trkpt>
      <trkpt lat="42.01035" lon="19.59185">
        <ele>32.340000152588</ele>
        <time>2023-10-01T15:43:38.000Z</time>
      </trkpt>
      <trkpt lat="42.0103" lon="19.59196">
        <ele>32.340000152588</ele>
        <time>2023-10-01T15:43:37.000Z</time>
      </trkpt>
      <trkpt lat="42.00981" lon="19.59305">
        <ele>29.940000534058</ele>
        <time>2023-10-01T15:43:32.000Z</time>
      </trkpt>
      <trkpt lat="42.00973" lon="19.59328">
        <ele>29.940000534058</ele>
        <time>2023-10-01T15:43:31.000Z</time>
      </trkpt>
      <trkpt lat="42.00968" lon="19.59346">
        <ele>29.940000534058</ele>
        <time>2023-10-01T15:43:30.000Z</time>
      </trkpt>
      <trkpt lat="42.00928" lon="19.59497">
        <ele>27.530000686646</ele>
        <time>2023-10-01T15:43:23.000Z</time>
      </trkpt>
      <trkpt lat="42.00867" lon="19.59688">
        <ele>28.5</ele>
        <time>2023-10-01T15:43:16.000Z</time>
      </trkpt>
      <trkpt lat="42.00857" lon="19.59709">
        <ele>28.5</ele>
        <time>2023-10-01T15:43:15.000Z</time>
      </trkpt>
      <trkpt lat="42.00846" lon="19.59726">
        <ele>28.5</ele>
        <time>2023-10-01T15:43:14.000Z</time>
      </trkpt>
      <trkpt lat="42.0082" lon="19.5976">
        <ele>28.5</ele>
        <time>2023-10-01T15:43:12.000Z</time>
      </trkpt>
      <trkpt lat="42.0069" lon="19.59905">
        <ele>28.979999542236</ele>
        <time>2023-10-01T15:43:04.000Z</time>
      </trkpt>
      <trkpt lat="42.0052" lon="19.60096">
        <ele>28.979999542236</ele>
        <time>2023-10-01T15:42:54.000Z</time>
      </trkpt>
      <trkpt lat="42.00352" lon="19.60285">
        <ele>28.020000457764</ele>
        <time>2023-10-01T15:42:44.000Z</time>
      </trkpt>
      <trkpt lat="42.00173" lon="19.60487">
        <ele>27.049999237061</ele>
        <time>2023-10-01T15:42:33.000Z</time>
      </trkpt>
      <trkpt lat="42.00062" lon="19.60621">
        <ele>21.770000457764</ele>
        <time>2023-10-01T15:42:27.000Z</time>
      </trkpt>
      <trkpt lat="41.99936" lon="19.60745">
        <ele>21.290000915527</ele>
        <time>2023-10-01T15:42:21.000Z</time>
      </trkpt>
      <trkpt lat="41.99855" lon="19.60813">
        <ele>21.290000915527</ele>
        <time>2023-10-01T15:42:17.000Z</time>
      </trkpt>
      <trkpt lat="41.99815" lon="19.60846">
        <ele>21.290000915527</ele>
        <time>2023-10-01T15:42:14.000Z</time>
      </trkpt>
      <trkpt lat="41.99803" lon="19.60858">
        <ele>21.290000915527</ele>
        <time>2023-10-01T15:42:13.000Z</time>
      </trkpt>
      <trkpt lat="41.99792" lon="19.60872">
        <ele>21.290000915527</ele>
        <time>2023-10-01T15:42:12.000Z</time>
      </trkpt>
      <trkpt lat="41.99783" lon="19.60887">
        <ele>21.770000457764</ele>
        <time>2023-10-01T15:42:11.000Z</time>
      </trkpt>
      <trkpt lat="41.99741" lon="19.60968">
        <ele>21.770000457764</ele>
        <time>2023-10-01T15:42:05.000Z</time>
      </trkpt>
      <trkpt lat="41.99679" lon="19.61083">
        <ele>20.319999694824</ele>
        <time>2023-10-01T15:41:57.000Z</time>
      </trkpt>
      <trkpt lat="41.99668" lon="19.61102">
        <ele>20.809999465942</ele>
        <time>2023-10-01T15:41:56.000Z</time>
      </trkpt>
      <trkpt lat="41.99659" lon="19.61116">
        <ele>20.809999465942</ele>
        <time>2023-10-01T15:41:55.000Z</time>
      </trkpt>
      <trkpt lat="41.9965" lon="19.61133">
        <ele>20.809999465942</ele>
        <time>2023-10-01T15:41:54.000Z</time>
      </trkpt>
      <trkpt lat="41.99623" lon="19.61177">
        <ele>21.290000915527</ele>
        <time>2023-10-01T15:41:51.000Z</time>
      </trkpt>
      <trkpt lat="41.99615" lon="19.61191">
        <ele>21.770000457764</ele>
        <time>2023-10-01T15:41:50.000Z</time>
      </trkpt>
      <trkpt lat="41.99609" lon="19.61205">
        <ele>21.770000457764</ele>
        <time>2023-10-01T15:41:49.000Z</time>
      </trkpt>
      <trkpt lat="41.99605" lon="19.61219">
        <ele>21.770000457764</ele>
        <time>2023-10-01T15:41:48.000Z</time>
      </trkpt>
      <trkpt lat="41.99603" lon="19.61231">
        <ele>21.770000457764</ele>
        <time>2023-10-01T15:41:47.000Z</time>
      </trkpt>
      <trkpt lat="41.99603" lon="19.61243">
        <ele>21.770000457764</ele>
        <time>2023-10-01T15:41:46.000Z</time>
      </trkpt>
      <trkpt lat="41.99606" lon="19.61252">
        <ele>21.770000457764</ele>
        <time>2023-10-01T15:41:45.000Z</time>
      </trkpt>
      <trkpt lat="41.9961" lon="19.6126">
        <ele>21.770000457764</ele>
        <time>2023-10-01T15:41:44.000Z</time>
      </trkpt>
      <trkpt lat="41.99616" lon="19.61269">
        <ele>21.770000457764</ele>
        <time>2023-10-01T15:41:43.000Z</time>
      </trkpt>
      <trkpt lat="41.9962" lon="19.61274">
        <ele>21.290000915527</ele>
        <time>2023-10-01T15:41:42.000Z</time>
      </trkpt>
      <trkpt lat="41.99633" lon="19.61294">
        <ele>21.770000457764</ele>
        <time>2023-10-01T15:41:41.000Z</time>
      </trkpt>
      <trkpt lat="41.9964" lon="19.61305">
        <ele>21.770000457764</ele>
        <time>2023-10-01T15:41:40.000Z</time>
      </trkpt>
      <trkpt lat="41.99644" lon="19.61311">
        <ele>21.770000457764</ele>
        <time>2023-10-01T15:41:39.000Z</time>
      </trkpt>
      <trkpt lat="41.99668" lon="19.61347">
        <ele>21.770000457764</ele>
        <time>2023-10-01T15:41:36.000Z</time>
      </trkpt>
      <trkpt lat="41.99674" lon="19.61356">
        <ele>22.25</ele>
        <time>2023-10-01T15:41:35.000Z</time>
      </trkpt>
      <trkpt lat="41.99724" lon="19.61434">
        <ele>22.729999542236</ele>
        <time>2023-10-01T15:41:29.000Z</time>
      </trkpt>
      <trkpt lat="41.99727" lon="19.61438">
        <ele>22.25</ele>
        <time>2023-10-01T15:41:28.000Z</time>
      </trkpt>
      <trkpt lat="41.99755" lon="19.61482">
        <ele>23.209999084473</ele>
        <time>2023-10-01T15:41:25.000Z</time>
      </trkpt>
      <trkpt lat="41.99762" lon="19.61494">
        <ele>23.209999084473</ele>
        <time>2023-10-01T15:41:24.000Z</time>
      </trkpt>
      <trkpt lat="41.99772" lon="19.6151">
        <ele>23.209999084473</ele>
        <time>2023-10-01T15:41:23.000Z</time>
      </trkpt>
      <trkpt lat="41.99781" lon="19.61522">
        <ele>23.209999084473</ele>
        <time>2023-10-01T15:41:22.000Z</time>
      </trkpt>
      <trkpt lat="41.9979" lon="19.61531">
        <ele>23.209999084473</ele>
        <time>2023-10-01T15:41:21.000Z</time>
      </trkpt>
      <trkpt lat="41.99805" lon="19.61543">
        <ele>23.209999084473</ele>
        <time>2023-10-01T15:41:19.000Z</time>
      </trkpt>
      <trkpt lat="41.99827" lon="19.61559">
        <ele>22.729999542236</ele>
        <time>2023-10-01T15:41:18.000Z</time>
      </trkpt>
      <trkpt lat="41.99832" lon="19.61562">
        <ele>22.25</ele>
        <time>2023-10-01T15:41:17.000Z</time>
      </trkpt>
      <trkpt lat="41.99868" lon="19.61591">
        <ele>21.770000457764</ele>
        <time>2023-10-01T15:41:13.000Z</time>
      </trkpt>
      <trkpt lat="41.99916" lon="19.61629">
        <ele>21.770000457764</ele>
        <time>2023-10-01T15:41:08.000Z</time>
      </trkpt>
      <trkpt lat="41.99939" lon="19.61649">
        <ele>22.25</ele>
        <time>2023-10-01T15:41:05.000Z</time>
      </trkpt>
      <trkpt lat="41.99945" lon="19.61654">
        <ele>21.770000457764</ele>
        <time>2023-10-01T15:41:04.000Z</time>
      </trkpt>
      <trkpt lat="41.99955" lon="19.61663">
        <ele>22.25</ele>
        <time>2023-10-01T15:41:03.000Z</time>
      </trkpt>
      <trkpt lat="41.99961" lon="19.61667">
        <ele>22.25</ele>
        <time>2023-10-01T15:41:02.000Z</time>
      </trkpt>
      <trkpt lat="41.99974" lon="19.61678">
        <ele>22.25</ele>
        <time>2023-10-01T15:41:01.000Z</time>
      </trkpt>
      <trkpt lat="41.99979" lon="19.61681">
        <ele>22.25</ele>
        <time>2023-10-01T15:41:00.000Z</time>
      </trkpt>
      <trkpt lat="41.99988" lon="19.61688">
        <ele>22.25</ele>
        <time>2023-10-01T15:40:59.000Z</time>
      </trkpt>
      <trkpt lat="41.99995" lon="19.61692">
        <ele>22.25</ele>
        <time>2023-10-01T15:40:58.000Z</time>
      </trkpt>
      <trkpt lat="42" lon="19.61693">
        <ele>22.25</ele>
        <time>2023-10-01T15:40:57.000Z</time>
      </trkpt>
      <trkpt lat="42.00002" lon="19.61694">
        <ele>22.729999542236</ele>
        <time>2023-10-01T15:40:56.000Z</time>
      </trkpt>
      <trkpt lat="42.00014" lon="19.61698">
        <ele>22.729999542236</ele>
        <time>2023-10-01T15:40:55.000Z</time>
      </trkpt>
      <trkpt lat="42.0012" lon="19.61719">
        <ele>23.690000534058</ele>
        <time>2023-10-01T15:40:48.000Z</time>
      </trkpt>
      <trkpt lat="42.00207" lon="19.61736">
        <ele>23.690000534058</ele>
        <time>2023-10-01T15:40:40.000Z</time>
      </trkpt>
      <trkpt lat="42.00219" lon="19.61738">
        <ele>23.690000534058</ele>
        <time>2023-10-01T15:40:39.000Z</time>
      </trkpt>
      <trkpt lat="42.00232" lon="19.61742">
        <ele>23.690000534058</ele>
        <time>2023-10-01T15:40:37.000Z</time>
      </trkpt>
      <trkpt lat="42.00265" lon="19.61748">
        <ele>23.690000534058</ele>
        <time>2023-10-01T15:40:35.000Z</time>
      </trkpt>
      <trkpt lat="42.00276" lon="19.61751">
        <ele>23.690000534058</ele>
        <time>2023-10-01T15:40:34.000Z</time>
      </trkpt>
      <trkpt lat="42.00288" lon="19.61753">
        <ele>23.690000534058</ele>
        <time>2023-10-01T15:40:33.000Z</time>
      </trkpt>
      <trkpt lat="42.00292" lon="19.61754">
        <ele>23.690000534058</ele>
        <time>2023-10-01T15:40:32.000Z</time>
      </trkpt>
      <trkpt lat="42.00342" lon="19.61764">
        <ele>23.690000534058</ele>
        <time>2023-10-01T15:40:29.000Z</time>
      </trkpt>
      <trkpt lat="42.00418" lon="19.61781">
        <ele>23.209999084473</ele>
        <time>2023-10-01T15:40:23.000Z</time>
      </trkpt>
      <trkpt lat="42.00457" lon="19.61788">
        <ele>23.209999084473</ele>
        <time>2023-10-01T15:40:20.000Z</time>
      </trkpt>
      <trkpt lat="42.00462" lon="19.61789">
        <ele>23.209999084473</ele>
        <time>2023-10-01T15:40:19.000Z</time>
      </trkpt>
      <trkpt lat="42.00483" lon="19.61796">
        <ele>23.690000534058</ele>
        <time>2023-10-01T15:40:18.000Z</time>
      </trkpt>
      <trkpt lat="42.00491" lon="19.61798">
        <ele>23.690000534058</ele>
        <time>2023-10-01T15:40:17.000Z</time>
      </trkpt>
      <trkpt lat="42.00506" lon="19.618">
        <ele>23.690000534058</ele>
        <time>2023-10-01T15:40:15.000Z</time>
      </trkpt>
      <trkpt lat="42.00525" lon="19.61802">
        <ele>23.690000534058</ele>
        <time>2023-10-01T15:40:13.000Z</time>
      </trkpt>
      <trkpt lat="42.00575" lon="19.61812">
        <ele>23.690000534058</ele>
        <time>2023-10-01T15:40:08.000Z</time>
      </trkpt>
      <trkpt lat="42.00585" lon="19.61813">
        <ele>23.690000534058</ele>
        <time>2023-10-01T15:40:07.000Z</time>
      </trkpt>
      <trkpt lat="42.00618" lon="19.6182">
        <ele>24.64999961853</ele>
        <time>2023-10-01T15:40:04.000Z</time>
      </trkpt>
      <trkpt lat="42.00627" lon="19.61823">
        <ele>24.64999961853</ele>
        <time>2023-10-01T15:40:03.000Z</time>
      </trkpt>
      <trkpt lat="42.00636" lon="19.61828">
        <ele>24.64999961853</ele>
        <time>2023-10-01T15:40:02.000Z</time>
      </trkpt>
      <trkpt lat="42.00643" lon="19.61837">
        <ele>24.64999961853</ele>
        <time>2023-10-01T15:40:01.000Z</time>
      </trkpt>
      <trkpt lat="42.00647" lon="19.61849">
        <ele>25.129999160767</ele>
        <time>2023-10-01T15:40:00.000Z</time>
      </trkpt>
      <trkpt lat="42.00648" lon="19.61862">
        <ele>24.64999961853</ele>
        <time>2023-10-01T15:39:59.000Z</time>
      </trkpt>
      <trkpt lat="42.00648" lon="19.61877">
        <ele>24.64999961853</ele>
        <time>2023-10-01T15:39:58.000Z</time>
      </trkpt>
      <trkpt lat="42.00646" lon="19.61887">
        <ele>24.64999961853</ele>
        <time>2023-10-01T15:39:57.000Z</time>
      </trkpt>
      <trkpt lat="42.00626" lon="19.61996">
        <ele>23.690000534058</ele>
        <time>2023-10-01T15:39:53.000Z</time>
      </trkpt>
      <trkpt lat="42.00618" lon="19.62024">
        <ele>23.690000534058</ele>
        <time>2023-10-01T15:39:52.000Z</time>
      </trkpt>
      <trkpt lat="42.00613" lon="19.62038">
        <ele>23.690000534058</ele>
        <time>2023-10-01T15:39:51.000Z</time>
      </trkpt>
      <trkpt lat="42.00585" lon="19.62102">
        <ele>23.209999084473</ele>
        <time>2023-10-01T15:39:49.000Z</time>
      </trkpt>
      <trkpt lat="42.0048" lon="19.62342">
        <ele>22.729999542236</ele>
        <time>2023-10-01T15:39:40.000Z</time>
      </trkpt>
      <trkpt lat="42.00406" lon="19.62506">
        <ele>22.729999542236</ele>
        <time>2023-10-01T15:39:34.000Z</time>
      </trkpt>
      <trkpt lat="42.00393" lon="19.62529">
        <ele>22.729999542236</ele>
        <time>2023-10-01T15:39:33.000Z</time>
      </trkpt>
      <trkpt lat="42.00387" lon="19.62538">
        <ele>22.729999542236</ele>
        <time>2023-10-01T15:39:32.000Z</time>
      </trkpt>
      <trkpt lat="42.00356" lon="19.62578">
        <ele>23.209999084473</ele>
        <time>2023-10-01T15:39:30.000Z</time>
      </trkpt>
      <trkpt lat="42.0027" lon="19.62682">
        <ele>27.049999237061</ele>
        <time>2023-10-01T15:39:25.000Z</time>
      </trkpt>
      <trkpt lat="42.00258" lon="19.62696">
        <ele>28.020000457764</ele>
        <time>2023-10-01T15:39:24.000Z</time>
      </trkpt>
      <trkpt lat="42.00248" lon="19.62709">
        <ele>28.5</ele>
        <time>2023-10-01T15:39:23.000Z</time>
      </trkpt>
      <trkpt lat="42.0024" lon="19.62724">
        <ele>28.979999542236</ele>
        <time>2023-10-01T15:39:22.000Z</time>
      </trkpt>
      <trkpt lat="42.00235" lon="19.62743">
        <ele>28.979999542236</ele>
        <time>2023-10-01T15:39:21.000Z</time>
      </trkpt>
      <trkpt lat="42.00233" lon="19.62757">
        <ele>28.5</ele>
        <time>2023-10-01T15:39:20.000Z</time>
      </trkpt>
      <trkpt lat="42.00225" lon="19.62829">
        <ele>28.020000457764</ele>
        <time>2023-10-01T15:39:17.000Z</time>
      </trkpt>
      <trkpt lat="42.00206" lon="19.62993">
        <ele>27.049999237061</ele>
        <time>2023-10-01T15:39:10.000Z</time>
      </trkpt>
      <trkpt lat="42.00206" lon="19.63012">
        <ele>26.569999694824</ele>
        <time>2023-10-01T15:39:09.000Z</time>
      </trkpt>
      <trkpt lat="42.00208" lon="19.6303">
        <ele>26.569999694824</ele>
        <time>2023-10-01T15:39:08.000Z</time>
      </trkpt>
      <trkpt lat="42.00214" lon="19.63049">
        <ele>27.049999237061</ele>
        <time>2023-10-01T15:39:07.000Z</time>
      </trkpt>
      <trkpt lat="42.00223" lon="19.63067">
        <ele>27.049999237061</ele>
        <time>2023-10-01T15:39:06.000Z</time>
      </trkpt>
      <trkpt lat="42.00232" lon="19.6308">
        <ele>27.530000686646</ele>
        <time>2023-10-01T15:39:05.000Z</time>
      </trkpt>
      <trkpt lat="42.00265" lon="19.63119">
        <ele>28.979999542236</ele>
        <time>2023-10-01T15:39:03.000Z</time>
      </trkpt>
      <trkpt lat="42.00342" lon="19.63206">
        <ele>28.5</ele>
        <time>2023-10-01T15:38:57.000Z</time>
      </trkpt>
      <trkpt lat="42.00357" lon="19.63223">
        <ele>28.020000457764</ele>
        <time>2023-10-01T15:38:56.000Z</time>
      </trkpt>
      <trkpt lat="42.00359" lon="19.63225">
        <ele>28.020000457764</ele>
        <time>2023-10-01T15:38:55.000Z</time>
      </trkpt>
      <trkpt lat="42.00376" lon="19.63243">
        <ele>27.049999237061</ele>
        <time>2023-10-01T15:38:54.000Z</time>
      </trkpt>
      <trkpt lat="42.00383" lon="19.63252">
        <ele>27.049999237061</ele>
        <time>2023-10-01T15:38:53.000Z</time>
      </trkpt>
      <trkpt lat="42.00386" lon="19.63259">
        <ele>27.049999237061</ele>
        <time>2023-10-01T15:38:52.000Z</time>
      </trkpt>
      <trkpt lat="42.00388" lon="19.63263">
        <ele>26.569999694824</ele>
        <time>2023-10-01T15:38:51.000Z</time>
      </trkpt>
      <trkpt lat="42.00388" lon="19.63278">
        <ele>26.090000152588</ele>
        <time>2023-10-01T15:38:45.000Z</time>
      </trkpt>
      <trkpt lat="42.00384" lon="19.63286">
        <ele>26.090000152588</ele>
        <time>2023-10-01T15:38:44.000Z</time>
      </trkpt>
      <trkpt lat="42.00383" lon="19.63288">
        <ele>26.090000152588</ele>
        <time>2023-10-01T15:38:43.000Z</time>
      </trkpt>
      <trkpt lat="42.00333" lon="19.63346">
        <ele>26.569999694824</ele>
        <time>2023-10-01T15:38:39.000Z</time>
      </trkpt>
      <trkpt lat="42.00291" lon="19.63399">
        <ele>26.569999694824</ele>
        <time>2023-10-01T15:38:36.000Z</time>
      </trkpt>
      <trkpt lat="42.00162" lon="19.63539">
        <ele>27.049999237061</ele>
        <time>2023-10-01T15:38:28.000Z</time>
      </trkpt>
      <trkpt lat="42.00025" lon="19.63665">
        <ele>28.020000457764</ele>
        <time>2023-10-01T15:38:20.000Z</time>
      </trkpt>
      <trkpt lat="41.99892" lon="19.6379">
        <ele>28.020000457764</ele>
        <time>2023-10-01T15:38:11.000Z</time>
      </trkpt>
      <trkpt lat="41.9985" lon="19.63842">
        <ele>28.020000457764</ele>
        <time>2023-10-01T15:38:08.000Z</time>
      </trkpt>
      <trkpt lat="41.99741" lon="19.63984">
        <ele>28.5</ele>
        <time>2023-10-01T15:38:01.000Z</time>
      </trkpt>
      <trkpt lat="41.99731" lon="19.64004">
        <ele>28.5</ele>
        <time>2023-10-01T15:38:00.000Z</time>
      </trkpt>
      <trkpt lat="41.99724" lon="19.64027">
        <ele>28.979999542236</ele>
        <time>2023-10-01T15:37:59.000Z</time>
      </trkpt>
      <trkpt lat="41.99719" lon="19.64052">
        <ele>29.459999084473</ele>
        <time>2023-10-01T15:37:58.000Z</time>
      </trkpt>
      <trkpt lat="41.99716" lon="19.64075">
        <ele>29.459999084473</ele>
        <time>2023-10-01T15:37:57.000Z</time>
      </trkpt>
      <trkpt lat="41.99714" lon="19.64099">
        <ele>29.940000534058</ele>
        <time>2023-10-01T15:37:56.000Z</time>
      </trkpt>
      <trkpt lat="41.99714" lon="19.64117">
        <ele>29.940000534058</ele>
        <time>2023-10-01T15:37:55.000Z</time>
      </trkpt>
      <trkpt lat="41.99716" lon="19.64155">
        <ele>30.420000076294</ele>
        <time>2023-10-01T15:37:54.000Z</time>
      </trkpt>
      <trkpt lat="41.99719" lon="19.6418">
        <ele>30.89999961853</ele>
        <time>2023-10-01T15:37:53.000Z</time>
      </trkpt>
      <trkpt lat="41.99722" lon="19.64195">
        <ele>30.89999961853</ele>
        <time>2023-10-01T15:37:52.000Z</time>
      </trkpt>
      <trkpt lat="41.99736" lon="19.64252">
        <ele>32.340000152588</ele>
        <time>2023-10-01T15:37:50.000Z</time>
      </trkpt>
      <trkpt lat="41.99753" lon="19.64309">
        <ele>33.779998779297</ele>
        <time>2023-10-01T15:37:47.000Z</time>
      </trkpt>
      <trkpt lat="41.99757" lon="19.64319">
        <ele>34.259998321533</ele>
        <time>2023-10-01T15:37:46.000Z</time>
      </trkpt>
      <trkpt lat="41.99766" lon="19.6434">
        <ele>34.740001678467</ele>
        <time>2023-10-01T15:37:45.000Z</time>
      </trkpt>
      <trkpt lat="41.99771" lon="19.64356">
        <ele>35.229999542236</ele>
        <time>2023-10-01T15:37:44.000Z</time>
      </trkpt>
      <trkpt lat="41.99771" lon="19.6437">
        <ele>35.709999084473</ele>
        <time>2023-10-01T15:37:43.000Z</time>
      </trkpt>
      <trkpt lat="41.99772" lon="19.64392">
        <ele>36.669998168945</ele>
        <time>2023-10-01T15:37:42.000Z</time>
      </trkpt>
      <trkpt lat="41.99773" lon="19.64406">
        <ele>37.150001525879</ele>
        <time>2023-10-01T15:37:41.000Z</time>
      </trkpt>
      <trkpt lat="41.99775" lon="19.64413">
        <ele>37.150001525879</ele>
        <time>2023-10-01T15:37:40.000Z</time>
      </trkpt>
      <trkpt lat="41.99817" lon="19.64563">
        <ele>41.950000762939</ele>
        <time>2023-10-01T15:37:33.000Z</time>
      </trkpt>
      <trkpt lat="41.99878" lon="19.64764">
        <ele>50.130001068115</ele>
        <time>2023-10-01T15:37:25.000Z</time>
      </trkpt>
      <trkpt lat="41.99924" lon="19.64899">
        <ele>56.860000610352</ele>
        <time>2023-10-01T15:37:18.000Z</time>
      </trkpt>
      <trkpt lat="41.99931" lon="19.64922">
        <ele>57.819999694824</ele>
        <time>2023-10-01T15:37:17.000Z</time>
      </trkpt>
      <trkpt lat="41.99933" lon="19.64931">
        <ele>58.779998779297</ele>
        <time>2023-10-01T15:37:16.000Z</time>
      </trkpt>
      <trkpt lat="41.99936" lon="19.64949">
        <ele>59.740001678467</ele>
        <time>2023-10-01T15:37:15.000Z</time>
      </trkpt>
      <trkpt lat="41.99939" lon="19.64957">
        <ele>60.220001220703</ele>
        <time>2023-10-01T15:37:14.000Z</time>
      </trkpt>
      <trkpt lat="41.99942" lon="19.64961">
        <ele>59.259998321533</ele>
        <time>2023-10-01T15:37:13.000Z</time>
      </trkpt>
      <trkpt lat="41.99949" lon="19.64962">
        <ele>59.259998321533</ele>
        <time>2023-10-01T15:37:12.000Z</time>
      </trkpt>
      <trkpt lat="41.99968" lon="19.64958">
        <ele>60.220001220703</ele>
        <time>2023-10-01T15:37:10.000Z</time>
      </trkpt>
      <trkpt lat="42.0004" lon="19.6494">
        <ele>65.98999786377</ele>
        <time>2023-10-01T15:37:06.000Z</time>
      </trkpt>
      <trkpt lat="42.00052" lon="19.64935">
        <ele>66.470001220703</ele>
        <time>2023-10-01T15:37:05.000Z</time>
      </trkpt>
      <trkpt lat="42.00064" lon="19.64926">
        <ele>66.470001220703</ele>
        <time>2023-10-01T15:37:04.000Z</time>
      </trkpt>
      <trkpt lat="42.00069" lon="19.64922">
        <ele>66.470001220703</ele>
        <time>2023-10-01T15:37:03.000Z</time>
      </trkpt>
      <trkpt lat="42.00096" lon="19.64895">
        <ele>67.910003662109</ele>
        <time>2023-10-01T15:37:01.000Z</time>
      </trkpt>
      <trkpt lat="42.00129" lon="19.64866">
        <ele>68.389999389648</ele>
        <time>2023-10-01T15:36:58.000Z</time>
      </trkpt>
      <trkpt lat="42.00236" lon="19.64773">
        <ele>66.470001220703</ele>
        <time>2023-10-01T15:36:52.000Z</time>
      </trkpt>
      <trkpt lat="42.00256" lon="19.64759">
        <ele>65.98999786377</ele>
        <time>2023-10-01T15:36:51.000Z</time>
      </trkpt>
      <trkpt lat="42.00282" lon="19.64744">
        <ele>65.51000213623</ele>
        <time>2023-10-01T15:36:50.000Z</time>
      </trkpt>
      <trkpt lat="42.00322" lon="19.64728">
        <ele>64.550003051758</ele>
        <time>2023-10-01T15:36:48.000Z</time>
      </trkpt>
      <trkpt lat="42.00338" lon="19.64724">
        <ele>64.069999694824</ele>
        <time>2023-10-01T15:36:47.000Z</time>
      </trkpt>
      <trkpt lat="42.0038" lon="19.6472">
        <ele>64.069999694824</ele>
        <time>2023-10-01T15:36:45.000Z</time>
      </trkpt>
      <trkpt lat="42.00394" lon="19.64723">
        <ele>64.069999694824</ele>
        <time>2023-10-01T15:36:44.000Z</time>
      </trkpt>
      <trkpt lat="42.00407" lon="19.6473">
        <ele>64.069999694824</ele>
        <time>2023-10-01T15:36:43.000Z</time>
      </trkpt>
      <trkpt lat="42.00417" lon="19.64739">
        <ele>63.580001831055</ele>
        <time>2023-10-01T15:36:42.000Z</time>
      </trkpt>
      <trkpt lat="42.00426" lon="19.64748">
        <ele>63.580001831055</ele>
        <time>2023-10-01T15:36:41.000Z</time>
      </trkpt>
      <trkpt lat="42.00485" lon="19.64833">
        <ele>64.550003051758</ele>
        <time>2023-10-01T15:36:37.000Z</time>
      </trkpt>
      <trkpt lat="42.00497" lon="19.64849">
        <ele>64.069999694824</ele>
        <time>2023-10-01T15:36:36.000Z</time>
      </trkpt>
      <trkpt lat="42.00501" lon="19.64853">
        <ele>64.069999694824</ele>
        <time>2023-10-01T15:36:35.000Z</time>
      </trkpt>
      <trkpt lat="42.00549" lon="19.64901">
        <ele>63.580001831055</ele>
        <time>2023-10-01T15:36:32.000Z</time>
      </trkpt>
      <trkpt lat="42.00563" lon="19.64913">
        <ele>63.580001831055</ele>
        <time>2023-10-01T15:36:31.000Z</time>
      </trkpt>
      <trkpt lat="42.00578" lon="19.6492">
        <ele>63.580001831055</ele>
        <time>2023-10-01T15:36:30.000Z</time>
      </trkpt>
      <trkpt lat="42.00593" lon="19.64922">
        <ele>63.580001831055</ele>
        <time>2023-10-01T15:36:29.000Z</time>
      </trkpt>
      <trkpt lat="42.00611" lon="19.64921">
        <ele>64.069999694824</ele>
        <time>2023-10-01T15:36:28.000Z</time>
      </trkpt>
      <trkpt lat="42.00707" lon="19.64897">
        <ele>64.550003051758</ele>
        <time>2023-10-01T15:36:23.000Z</time>
      </trkpt>
      <trkpt lat="42.00763" lon="19.64889">
        <ele>64.069999694824</ele>
        <time>2023-10-01T15:36:20.000Z</time>
      </trkpt>
      <trkpt lat="42.00861" lon="19.64871">
        <ele>64.069999694824</ele>
        <time>2023-10-01T15:36:15.000Z</time>
      </trkpt>
      <trkpt lat="42.00873" lon="19.64865">
        <ele>64.069999694824</ele>
        <time>2023-10-01T15:36:14.000Z</time>
      </trkpt>
      <trkpt lat="42.00886" lon="19.64855">
        <ele>64.069999694824</ele>
        <time>2023-10-01T15:36:13.000Z</time>
      </trkpt>
      <trkpt lat="42.00895" lon="19.64843">
        <ele>64.069999694824</ele>
        <time>2023-10-01T15:36:12.000Z</time>
      </trkpt>
      <trkpt lat="42.00901" lon="19.64834">
        <ele>64.069999694824</ele>
        <time>2023-10-01T15:36:11.000Z</time>
      </trkpt>
      <trkpt lat="42.00908" lon="19.64825">
        <ele>64.069999694824</ele>
        <time>2023-10-01T15:36:10.000Z</time>
      </trkpt>
      <trkpt lat="42.00914" lon="19.64821">
        <ele>64.069999694824</ele>
        <time>2023-10-01T15:36:09.000Z</time>
      </trkpt>
      <trkpt lat="42.0092" lon="19.64821">
        <ele>64.069999694824</ele>
        <time>2023-10-01T15:36:08.000Z</time>
      </trkpt>
      <trkpt lat="42.00925" lon="19.64824">
        <ele>64.550003051758</ele>
        <time>2023-10-01T15:36:07.000Z</time>
      </trkpt>
      <trkpt lat="42.0093" lon="19.64827">
        <ele>65.029998779297</ele>
        <time>2023-10-01T15:36:06.000Z</time>
      </trkpt>
      <trkpt lat="42.00935" lon="19.64831">
        <ele>65.029998779297</ele>
        <time>2023-10-01T15:36:05.000Z</time>
      </trkpt>
      <trkpt lat="42.00946" lon="19.6484">
        <ele>65.51000213623</ele>
        <time>2023-10-01T15:36:04.000Z</time>
      </trkpt>
      <trkpt lat="42.00969" lon="19.64859">
        <ele>66.470001220703</ele>
        <time>2023-10-01T15:36:01.000Z</time>
      </trkpt>
      <trkpt lat="42.00975" lon="19.64867">
        <ele>66.949996948242</ele>
        <time>2023-10-01T15:36:00.000Z</time>
      </trkpt>
      <trkpt lat="42.00979" lon="19.64876">
        <ele>67.430000305176</ele>
        <time>2023-10-01T15:35:59.000Z</time>
      </trkpt>
      <trkpt lat="42.00981" lon="19.64887">
        <ele>67.430000305176</ele>
        <time>2023-10-01T15:35:58.000Z</time>
      </trkpt>
      <trkpt lat="42.0098" lon="19.64899">
        <ele>67.910003662109</ele>
        <time>2023-10-01T15:35:57.000Z</time>
      </trkpt>
      <trkpt lat="42.00977" lon="19.64911">
        <ele>68.389999389648</ele>
        <time>2023-10-01T15:35:56.000Z</time>
      </trkpt>
      <trkpt lat="42.00972" lon="19.64924">
        <ele>68.870002746582</ele>
        <time>2023-10-01T15:35:55.000Z</time>
      </trkpt>
      <trkpt lat="42.0097" lon="19.64928">
        <ele>68.870002746582</ele>
        <time>2023-10-01T15:35:54.000Z</time>
      </trkpt>
      <trkpt lat="42.0095" lon="19.64968">
        <ele>71.269996643066</ele>
        <time>2023-10-01T15:35:52.000Z</time>
      </trkpt>
      <trkpt lat="42.00945" lon="19.64983">
        <ele>71.76000213623</ele>
        <time>2023-10-01T15:35:51.000Z</time>
      </trkpt>
      <trkpt lat="42.00944" lon="19.64989">
        <ele>72.23999786377</ele>
        <time>2023-10-01T15:35:50.000Z</time>
      </trkpt>
      <trkpt lat="42.00936" lon="19.65035">
        <ele>75.120002746582</ele>
        <time>2023-10-01T15:35:48.000Z</time>
      </trkpt>
      <trkpt lat="42.0093" lon="19.6508">
        <ele>77.040000915527</ele>
        <time>2023-10-01T15:35:47.000Z</time>
      </trkpt>
      <trkpt lat="42.0093" lon="19.65085">
        <ele>77.040000915527</ele>
        <time>2023-10-01T15:35:46.000Z</time>
      </trkpt>
      <trkpt lat="42.00929" lon="19.65128">
        <ele>79.449996948242</ele>
        <time>2023-10-01T15:35:45.000Z</time>
      </trkpt>
      <trkpt lat="42.00929" lon="19.65186">
        <ele>81.849998474121</ele>
        <time>2023-10-01T15:35:42.000Z</time>
      </trkpt>
      <trkpt lat="42.00931" lon="19.65379">
        <ele>91.940002441406</ele>
        <time>2023-10-01T15:35:35.000Z</time>
      </trkpt>
      <trkpt lat="42.00933" lon="19.65404">
        <ele>93.389999389648</ele>
        <time>2023-10-01T15:35:34.000Z</time>
      </trkpt>
      <trkpt lat="42.00936" lon="19.65421">
        <ele>93.870002746582</ele>
        <time>2023-10-01T15:35:33.000Z</time>
      </trkpt>
      <trkpt lat="42.00948" lon="19.65494">
        <ele>96.269996643066</ele>
        <time>2023-10-01T15:35:30.000Z</time>
      </trkpt>
      <trkpt lat="42.0095" lon="19.65507">
        <ele>96.75</ele>
        <time>2023-10-01T15:35:29.000Z</time>
      </trkpt>
      <trkpt lat="42.00953" lon="19.65539">
        <ele>98.190002441406</ele>
        <time>2023-10-01T15:35:28.000Z</time>
      </trkpt>
      <trkpt lat="42.00957" lon="19.65552">
        <ele>98.669998168945</ele>
        <time>2023-10-01T15:35:27.000Z</time>
      </trkpt>
      <trkpt lat="42.00964" lon="19.65563">
        <ele>99.150001525879</ele>
        <time>2023-10-01T15:35:26.000Z</time>
      </trkpt>
      <trkpt lat="42.00976" lon="19.65571">
        <ele>100.11000061035</ele>
        <time>2023-10-01T15:35:25.000Z</time>
      </trkpt>
      <trkpt lat="42.00984" lon="19.65576">
        <ele>101.08000183105</ele>
        <time>2023-10-01T15:35:24.000Z</time>
      </trkpt>
      <trkpt lat="42.01007" lon="19.65587">
        <ele>102.51999664307</ele>
        <time>2023-10-01T15:35:23.000Z</time>
      </trkpt>
      <trkpt lat="42.01022" lon="19.65596">
        <ele>103.95999908447</ele>
        <time>2023-10-01T15:35:22.000Z</time>
      </trkpt>
      <trkpt lat="42.01037" lon="19.6561">
        <ele>105.40000152588</ele>
        <time>2023-10-01T15:35:21.000Z</time>
      </trkpt>
      <trkpt lat="42.01047" lon="19.65624">
        <ele>105.87999725342</ele>
        <time>2023-10-01T15:35:20.000Z</time>
      </trkpt>
      <trkpt lat="42.01065" lon="19.65651">
        <ele>107.80999755859</ele>
        <time>2023-10-01T15:35:19.000Z</time>
      </trkpt>
      <trkpt lat="42.01077" lon="19.65674">
        <ele>108.76999664307</ele>
        <time>2023-10-01T15:35:18.000Z</time>
      </trkpt>
      <trkpt lat="42.01089" lon="19.657">
        <ele>110.20999908447</ele>
        <time>2023-10-01T15:35:17.000Z</time>
      </trkpt>
      <trkpt lat="42.01099" lon="19.6573">
        <ele>112.12999725342</ele>
        <time>2023-10-01T15:35:16.000Z</time>
      </trkpt>
      <trkpt lat="42.01106" lon="19.65757">
        <ele>113.08999633789</ele>
        <time>2023-10-01T15:35:15.000Z</time>
      </trkpt>
      <trkpt lat="42.01109" lon="19.65773">
        <ele>114.05000305176</ele>
        <time>2023-10-01T15:35:14.000Z</time>
      </trkpt>
      <trkpt lat="42.01115" lon="19.65805">
        <ele>115.5</ele>
        <time>2023-10-01T15:35:13.000Z</time>
      </trkpt>
      <trkpt lat="42.01117" lon="19.65829">
        <ele>116.45999908447</ele>
        <time>2023-10-01T15:35:12.000Z</time>
      </trkpt>
      <trkpt lat="42.01115" lon="19.65853">
        <ele>117.90000152588</ele>
        <time>2023-10-01T15:35:11.000Z</time>
      </trkpt>
      <trkpt lat="42.01112" lon="19.65869">
        <ele>118.86000061035</ele>
        <time>2023-10-01T15:35:10.000Z</time>
      </trkpt>
      <trkpt lat="42.01107" lon="19.65886">
        <ele>119.33999633789</ele>
        <time>2023-10-01T15:35:09.000Z</time>
      </trkpt>
      <trkpt lat="42.01097" lon="19.65923">
        <ele>121.26000213623</ele>
        <time>2023-10-01T15:35:08.000Z</time>
      </trkpt>
      <trkpt lat="42.01094" lon="19.6594">
        <ele>122.2200012207</ele>
        <time>2023-10-01T15:35:07.000Z</time>
      </trkpt>
      <trkpt lat="42.01093" lon="19.65962">
        <ele>123.66999816895</ele>
        <time>2023-10-01T15:35:06.000Z</time>
      </trkpt>
      <trkpt lat="42.01094" lon="19.65981">
        <ele>124.62999725342</ele>
        <time>2023-10-01T15:35:05.000Z</time>
      </trkpt>
      <trkpt lat="42.01095" lon="19.65994">
        <ele>125.11000061035</ele>
        <time>2023-10-01T15:35:04.000Z</time>
      </trkpt>
      <trkpt lat="42.01097" lon="19.66016">
        <ele>126.06999969482</ele>
        <time>2023-10-01T15:35:03.000Z</time>
      </trkpt>
      <trkpt lat="42.01102" lon="19.66165">
        <ele>132.80000305176</ele>
        <time>2023-10-01T15:34:58.000Z</time>
      </trkpt>
      <trkpt lat="42.01102" lon="19.66177">
        <ele>133.2799987793</ele>
        <time>2023-10-01T15:34:57.000Z</time>
      </trkpt>
      <trkpt lat="42.011" lon="19.66217">
        <ele>134.7200012207</ele>
        <time>2023-10-01T15:34:56.000Z</time>
      </trkpt>
      <trkpt lat="42.011" lon="19.66231">
        <ele>135.19999694824</ele>
        <time>2023-10-01T15:34:55.000Z</time>
      </trkpt>
      <trkpt lat="42.01103" lon="19.66243">
        <ele>135.19999694824</ele>
        <time>2023-10-01T15:34:54.000Z</time>
      </trkpt>
      <trkpt lat="42.01107" lon="19.66248">
        <ele>135.67999267578</ele>
        <time>2023-10-01T15:34:53.000Z</time>
      </trkpt>
      <trkpt lat="42.01114" lon="19.6625">
        <ele>136.16000366211</ele>
        <time>2023-10-01T15:34:52.000Z</time>
      </trkpt>
      <trkpt lat="42.01119" lon="19.66245">
        <ele>136.16000366211</ele>
        <time>2023-10-01T15:34:51.000Z</time>
      </trkpt>
      <trkpt lat="42.01122" lon="19.66235">
        <ele>136.63999938965</ele>
        <time>2023-10-01T15:34:50.000Z</time>
      </trkpt>
      <trkpt lat="42.01124" lon="19.66221">
        <ele>137.61000061035</ele>
        <time>2023-10-01T15:34:49.000Z</time>
      </trkpt>
      <trkpt lat="42.0113" lon="19.66145">
        <ele>140.00999450684</ele>
        <time>2023-10-01T15:34:45.000Z</time>
      </trkpt>
      <trkpt lat="42.0114" lon="19.65956">
        <ele>147.2200012207</ele>
        <time>2023-10-01T15:34:39.000Z</time>
      </trkpt>
      <trkpt lat="42.01145" lon="19.65935">
        <ele>148.17999267578</ele>
        <time>2023-10-01T15:34:38.000Z</time>
      </trkpt>
      <trkpt lat="42.0115" lon="19.6592">
        <ele>149.13999938965</ele>
        <time>2023-10-01T15:34:37.000Z</time>
      </trkpt>
      <trkpt lat="42.01152" lon="19.65914">
        <ele>149.13999938965</ele>
        <time>2023-10-01T15:34:36.000Z</time>
      </trkpt>
      <trkpt lat="42.01187" lon="19.6584">
        <ele>152.50999450684</ele>
        <time>2023-10-01T15:34:33.000Z</time>
      </trkpt>
      <trkpt lat="42.01192" lon="19.65823">
        <ele>153.4700012207</ele>
        <time>2023-10-01T15:34:32.000Z</time>
      </trkpt>
      <trkpt lat="42.01194" lon="19.65807">
        <ele>154.42999267578</ele>
        <time>2023-10-01T15:34:31.000Z</time>
      </trkpt>
      <trkpt lat="42.01192" lon="19.6579">
        <ele>154.91000366211</ele>
        <time>2023-10-01T15:34:30.000Z</time>
      </trkpt>
      <trkpt lat="42.01191" lon="19.65785">
        <ele>155.38999938965</ele>
        <time>2023-10-01T15:34:29.000Z</time>
      </trkpt>
      <trkpt lat="42.01162" lon="19.65634">
        <ele>161.63999938965</ele>
        <time>2023-10-01T15:34:22.000Z</time>
      </trkpt>
      <trkpt lat="42.01161" lon="19.65625">
        <ele>162.11999511719</ele>
        <time>2023-10-01T15:34:21.000Z</time>
      </trkpt>
      <trkpt lat="42.0116" lon="19.65598">
        <ele>162.60000610352</ele>
        <time>2023-10-01T15:34:20.000Z</time>
      </trkpt>
      <trkpt lat="42.01158" lon="19.65585">
        <ele>163.08000183105</ele>
        <time>2023-10-01T15:34:19.000Z</time>
      </trkpt>
      <trkpt lat="42.01157" lon="19.6557">
        <ele>163.08000183105</ele>
        <time>2023-10-01T15:34:18.000Z</time>
      </trkpt>
      <trkpt lat="42.01159" lon="19.65559">
        <ele>163.55999755859</ele>
        <time>2023-10-01T15:34:17.000Z</time>
      </trkpt>
      <trkpt lat="42.01163" lon="19.65551">
        <ele>164.52000427246</ele>
        <time>2023-10-01T15:34:16.000Z</time>
      </trkpt>
      <trkpt lat="42.01165" lon="19.65547">
        <ele>164.52000427246</ele>
        <time>2023-10-01T15:34:15.000Z</time>
      </trkpt>
      <trkpt lat="42.01169" lon="19.65543">
        <ele>165.47999572754</ele>
        <time>2023-10-01T15:34:13.000Z</time>
      </trkpt>
      <trkpt lat="42.01173" lon="19.65539">
        <ele>165.47999572754</ele>
        <time>2023-10-01T15:34:12.000Z</time>
      </trkpt>
      <trkpt lat="42.01185" lon="19.65528">
        <ele>166.44999694824</ele>
        <time>2023-10-01T15:34:11.000Z</time>
      </trkpt>
      <trkpt lat="42.01196" lon="19.65521">
        <ele>166.92999267578</ele>
        <time>2023-10-01T15:34:10.000Z</time>
      </trkpt>
      <trkpt lat="42.01206" lon="19.65518">
        <ele>166.92999267578</ele>
        <time>2023-10-01T15:34:09.000Z</time>
      </trkpt>
      <trkpt lat="42.01216" lon="19.65519">
        <ele>166.44999694824</ele>
        <time>2023-10-01T15:34:08.000Z</time>
      </trkpt>
      <trkpt lat="42.01226" lon="19.65524">
        <ele>166.44999694824</ele>
        <time>2023-10-01T15:34:07.000Z</time>
      </trkpt>
      <trkpt lat="42.01236" lon="19.65533">
        <ele>165.47999572754</ele>
        <time>2023-10-01T15:34:06.000Z</time>
      </trkpt>
      <trkpt lat="42.01242" lon="19.6554">
        <ele>165</ele>
        <time>2023-10-01T15:34:05.000Z</time>
      </trkpt>
      <trkpt lat="42.01253" lon="19.65555">
        <ele>163.08000183105</ele>
        <time>2023-10-01T15:34:04.000Z</time>
      </trkpt>
      <trkpt lat="42.01262" lon="19.65566">
        <ele>162.11999511719</ele>
        <time>2023-10-01T15:34:03.000Z</time>
      </trkpt>
      <trkpt lat="42.01329" lon="19.6564">
        <ele>155.86999511719</ele>
        <time>2023-10-01T15:33:59.000Z</time>
      </trkpt>
      <trkpt lat="42.01339" lon="19.65651">
        <ele>154.91000366211</ele>
        <time>2023-10-01T15:33:58.000Z</time>
      </trkpt>
      <trkpt lat="42.01353" lon="19.65667">
        <ele>152.99000549316</ele>
        <time>2023-10-01T15:33:57.000Z</time>
      </trkpt>
      <trkpt lat="42.01417" lon="19.65729">
        <ele>146.25999450684</ele>
        <time>2023-10-01T15:33:53.000Z</time>
      </trkpt>
      <trkpt lat="42.01439" lon="19.6575">
        <ele>144.33999633789</ele>
        <time>2023-10-01T15:33:52.000Z</time>
      </trkpt>
      <trkpt lat="42.01454" lon="19.65768">
        <ele>142.88999938965</ele>
        <time>2023-10-01T15:33:51.000Z</time>
      </trkpt>
      <trkpt lat="42.01463" lon="19.65784">
        <ele>141.92999267578</ele>
        <time>2023-10-01T15:33:50.000Z</time>
      </trkpt>
      <trkpt lat="42.0147" lon="19.65802">
        <ele>140.49000549316</ele>
        <time>2023-10-01T15:33:49.000Z</time>
      </trkpt>
      <trkpt lat="42.01473" lon="19.6582">
        <ele>140.00999450684</ele>
        <time>2023-10-01T15:33:48.000Z</time>
      </trkpt>
      <trkpt lat="42.01474" lon="19.65842">
        <ele>139.5299987793</ele>
        <time>2023-10-01T15:33:47.000Z</time>
      </trkpt>
      <trkpt lat="42.01474" lon="19.65849">
        <ele>139.05000305176</ele>
        <time>2023-10-01T15:33:46.000Z</time>
      </trkpt>
      <trkpt lat="42.0147" lon="19.65883">
        <ele>137.61000061035</ele>
        <time>2023-10-01T15:33:45.000Z</time>
      </trkpt>
      <trkpt lat="42.0147" lon="19.65903">
        <ele>136.16000366211</ele>
        <time>2023-10-01T15:33:44.000Z</time>
      </trkpt>
      <trkpt lat="42.01473" lon="19.6592">
        <ele>134.7200012207</ele>
        <time>2023-10-01T15:33:43.000Z</time>
      </trkpt>
      <trkpt lat="42.01479" lon="19.65935">
        <ele>133.75999450684</ele>
        <time>2023-10-01T15:33:42.000Z</time>
      </trkpt>
      <trkpt lat="42.01483" lon="19.65943">
        <ele>133.75999450684</ele>
        <time>2023-10-01T15:33:41.000Z</time>
      </trkpt>
      <trkpt lat="42.015" lon="19.65969">
        <ele>131.83999633789</ele>
        <time>2023-10-01T15:33:40.000Z</time>
      </trkpt>
      <trkpt lat="42.01511" lon="19.65986">
        <ele>130.39999389648</ele>
        <time>2023-10-01T15:33:39.000Z</time>
      </trkpt>
      <trkpt lat="42.01518" lon="19.66001">
        <ele>129.42999267578</ele>
        <time>2023-10-01T15:33:38.000Z</time>
      </trkpt>
      <trkpt lat="42.01521" lon="19.66008">
        <ele>128.94999694824</ele>
        <time>2023-10-01T15:33:37.000Z</time>
      </trkpt>
      <trkpt lat="42.01533" lon="19.66036">
        <ele>127.98999786377</ele>
        <time>2023-10-01T15:33:36.000Z</time>
      </trkpt>
      <trkpt lat="42.0154" lon="19.66048">
        <ele>126.55000305176</ele>
        <time>2023-10-01T15:33:35.000Z</time>
      </trkpt>
      <trkpt lat="42.01548" lon="19.66055">
        <ele>124.62999725342</ele>
        <time>2023-10-01T15:33:34.000Z</time>
      </trkpt>
      <trkpt lat="42.01559" lon="19.66058">
        <ele>124.15000152588</ele>
        <time>2023-10-01T15:33:33.000Z</time>
      </trkpt>
      <trkpt lat="42.01564" lon="19.66059">
        <ele>123.66999816895</ele>
        <time>2023-10-01T15:33:32.000Z</time>
      </trkpt>
      <trkpt lat="42.01592" lon="19.66058">
        <ele>122.2200012207</ele>
        <time>2023-10-01T15:33:31.000Z</time>
      </trkpt>
      <trkpt lat="42.0161" lon="19.66056">
        <ele>121.26000213623</ele>
        <time>2023-10-01T15:33:30.000Z</time>
      </trkpt>
      <trkpt lat="42.01624" lon="19.66053">
        <ele>120.30000305176</ele>
        <time>2023-10-01T15:33:29.000Z</time>
      </trkpt>
      <trkpt lat="42.01637" lon="19.66048">
        <ele>119.33999633789</ele>
        <time>2023-10-01T15:33:28.000Z</time>
      </trkpt>
      <trkpt lat="42.01652" lon="19.66043">
        <ele>118.37999725342</ele>
        <time>2023-10-01T15:33:27.000Z</time>
      </trkpt>
      <trkpt lat="42.01664" lon="19.66043">
        <ele>117.90000152588</ele>
        <time>2023-10-01T15:33:26.000Z</time>
      </trkpt>
      <trkpt lat="42.01676" lon="19.66049">
        <ele>116.94000244141</ele>
        <time>2023-10-01T15:33:25.000Z</time>
      </trkpt>
      <trkpt lat="42.01689" lon="19.6606">
        <ele>116.45999908447</ele>
        <time>2023-10-01T15:33:24.000Z</time>
      </trkpt>
      <trkpt lat="42.01693" lon="19.66065">
        <ele>115.98000335693</ele>
        <time>2023-10-01T15:33:23.000Z</time>
      </trkpt>
      <trkpt lat="42.01716" lon="19.6609">
        <ele>115.01000213623</ele>
        <time>2023-10-01T15:33:22.000Z</time>
      </trkpt>
      <trkpt lat="42.01729" lon="19.66101">
        <ele>114.5299987793</ele>
        <time>2023-10-01T15:33:21.000Z</time>
      </trkpt>
      <trkpt lat="42.01746" lon="19.6611">
        <ele>114.05000305176</ele>
        <time>2023-10-01T15:33:20.000Z</time>
      </trkpt>
      <trkpt lat="42.01764" lon="19.66118">
        <ele>113.56999969482</ele>
        <time>2023-10-01T15:33:19.000Z</time>
      </trkpt>
      <trkpt lat="42.01795" lon="19.66131">
        <ele>112.12999725342</ele>
        <time>2023-10-01T15:33:17.000Z</time>
      </trkpt>
      <trkpt lat="42.01818" lon="19.66142">
        <ele>110.20999908447</ele>
        <time>2023-10-01T15:33:16.000Z</time>
      </trkpt>
      <trkpt lat="42.01921" lon="19.66206">
        <ele>101.08000183105</ele>
        <time>2023-10-01T15:33:11.000Z</time>
      </trkpt>
      <trkpt lat="42.01933" lon="19.66213">
        <ele>100.59999847412</ele>
        <time>2023-10-01T15:33:10.000Z</time>
      </trkpt>
      <trkpt lat="42.01949" lon="19.66222">
        <ele>99.629997253418</ele>
        <time>2023-10-01T15:33:09.000Z</time>
      </trkpt>
      <trkpt lat="42.02039" lon="19.66259">
        <ele>97.709999084473</ele>
        <time>2023-10-01T15:33:05.000Z</time>
      </trkpt>
      <trkpt lat="42.02051" lon="19.66265">
        <ele>97.230003356934</ele>
        <time>2023-10-01T15:33:04.000Z</time>
      </trkpt>
      <trkpt lat="42.02103" lon="19.66298">
        <ele>94.830001831055</ele>
        <time>2023-10-01T15:33:01.000Z</time>
      </trkpt>
      <trkpt lat="42.02117" lon="19.66309">
        <ele>94.830001831055</ele>
        <time>2023-10-01T15:33:00.000Z</time>
      </trkpt>
      <trkpt lat="42.02189" lon="19.66377">
        <ele>96.269996643066</ele>
        <time>2023-10-01T15:32:56.000Z</time>
      </trkpt>
      <trkpt lat="42.02202" lon="19.66393">
        <ele>96.75</ele>
        <time>2023-10-01T15:32:55.000Z</time>
      </trkpt>
      <trkpt lat="42.02213" lon="19.66411">
        <ele>97.230003356934</ele>
        <time>2023-10-01T15:32:54.000Z</time>
      </trkpt>
      <trkpt lat="42.02221" lon="19.66428">
        <ele>97.230003356934</ele>
        <time>2023-10-01T15:32:53.000Z</time>
      </trkpt>
      <trkpt lat="42.02226" lon="19.66444">
        <ele>97.230003356934</ele>
        <time>2023-10-01T15:32:52.000Z</time>
      </trkpt>
      <trkpt lat="42.02234" lon="19.66469">
        <ele>96.75</ele>
        <time>2023-10-01T15:32:51.000Z</time>
      </trkpt>
      <trkpt lat="42.0226" lon="19.66595">
        <ele>92.900001525879</ele>
        <time>2023-10-01T15:32:46.000Z</time>
      </trkpt>
      <trkpt lat="42.02262" lon="19.66613">
        <ele>92.419998168945</ele>
        <time>2023-10-01T15:32:45.000Z</time>
      </trkpt>
      <trkpt lat="42.02265" lon="19.66636">
        <ele>91.459999084473</ele>
        <time>2023-10-01T15:32:44.000Z</time>
      </trkpt>
      <trkpt lat="42.02269" lon="19.66652">
        <ele>90.5</ele>
        <time>2023-10-01T15:32:43.000Z</time>
      </trkpt>
      <trkpt lat="42.02278" lon="19.66667">
        <ele>89.540000915527</ele>
        <time>2023-10-01T15:32:42.000Z</time>
      </trkpt>
      <trkpt lat="42.0229" lon="19.66682">
        <ele>89.059997558594</ele>
        <time>2023-10-01T15:32:41.000Z</time>
      </trkpt>
      <trkpt lat="42.02333" lon="19.66727">
        <ele>86.180000305176</ele>
        <time>2023-10-01T15:32:38.000Z</time>
      </trkpt>
      <trkpt lat="42.02347" lon="19.66742">
        <ele>84.730003356934</ele>
        <time>2023-10-01T15:32:37.000Z</time>
      </trkpt>
      <trkpt lat="42.02354" lon="19.66751">
        <ele>83.769996643066</ele>
        <time>2023-10-01T15:32:36.000Z</time>
      </trkpt>
      <trkpt lat="42.02381" lon="19.66792">
        <ele>81.370002746582</ele>
        <time>2023-10-01T15:32:34.000Z</time>
      </trkpt>
      <trkpt lat="42.02389" lon="19.66807">
        <ele>80.889999389648</ele>
        <time>2023-10-01T15:32:33.000Z</time>
      </trkpt>
      <trkpt lat="42.02395" lon="19.66822">
        <ele>80.410003662109</ele>
        <time>2023-10-01T15:32:32.000Z</time>
      </trkpt>
      <trkpt lat="42.02397" lon="19.66839">
        <ele>80.410003662109</ele>
        <time>2023-10-01T15:32:31.000Z</time>
      </trkpt>
      <trkpt lat="42.02397" lon="19.66857">
        <ele>80.410003662109</ele>
        <time>2023-10-01T15:32:30.000Z</time>
      </trkpt>
      <trkpt lat="42.02395" lon="19.66884">
        <ele>80.410003662109</ele>
        <time>2023-10-01T15:32:29.000Z</time>
      </trkpt>
      <trkpt lat="42.02395" lon="19.66909">
        <ele>80.410003662109</ele>
        <time>2023-10-01T15:32:28.000Z</time>
      </trkpt>
      <trkpt lat="42.02398" lon="19.66934">
        <ele>80.410003662109</ele>
        <time>2023-10-01T15:32:27.000Z</time>
      </trkpt>
      <trkpt lat="42.02403" lon="19.66956">
        <ele>80.889999389648</ele>
        <time>2023-10-01T15:32:26.000Z</time>
      </trkpt>
      <trkpt lat="42.02405" lon="19.66961">
        <ele>80.889999389648</ele>
        <time>2023-10-01T15:32:25.000Z</time>
      </trkpt>
      <trkpt lat="42.02419" lon="19.67007">
        <ele>80.889999389648</ele>
        <time>2023-10-01T15:32:24.000Z</time>
      </trkpt>
      <trkpt lat="42.02425" lon="19.67032">
        <ele>80.889999389648</ele>
        <time>2023-10-01T15:32:23.000Z</time>
      </trkpt>
      <trkpt lat="42.02431" lon="19.67063">
        <ele>80.889999389648</ele>
        <time>2023-10-01T15:32:22.000Z</time>
      </trkpt>
      <trkpt lat="42.02434" lon="19.67095">
        <ele>80.889999389648</ele>
        <time>2023-10-01T15:32:21.000Z</time>
      </trkpt>
      <trkpt lat="42.02436" lon="19.67114">
        <ele>80.889999389648</ele>
        <time>2023-10-01T15:32:20.000Z</time>
      </trkpt>
      <trkpt lat="42.02444" lon="19.67206">
        <ele>81.849998474121</ele>
        <time>2023-10-01T15:32:17.000Z</time>
      </trkpt>
      <trkpt lat="42.02444" lon="19.67236">
        <ele>82.330001831055</ele>
        <time>2023-10-01T15:32:16.000Z</time>
      </trkpt>
      <trkpt lat="42.02443" lon="19.67258">
        <ele>82.809997558594</ele>
        <time>2023-10-01T15:32:15.000Z</time>
      </trkpt>
      <trkpt lat="42.0244" lon="19.67277">
        <ele>82.809997558594</ele>
        <time>2023-10-01T15:32:14.000Z</time>
      </trkpt>
      <trkpt lat="42.02436" lon="19.67294">
        <ele>82.809997558594</ele>
        <time>2023-10-01T15:32:13.000Z</time>
      </trkpt>
      <trkpt lat="42.02428" lon="19.67321">
        <ele>82.330001831055</ele>
        <time>2023-10-01T15:32:12.000Z</time>
      </trkpt>
      <trkpt lat="42.02422" lon="19.67348">
        <ele>81.849998474121</ele>
        <time>2023-10-01T15:32:11.000Z</time>
      </trkpt>
      <trkpt lat="42.02421" lon="19.67353">
        <ele>81.849998474121</ele>
        <time>2023-10-01T15:32:10.000Z</time>
      </trkpt>
      <trkpt lat="42.02417" lon="19.67389">
        <ele>82.330001831055</ele>
        <time>2023-10-01T15:32:09.000Z</time>
      </trkpt>
      <trkpt lat="42.02408" lon="19.67472">
        <ele>81.849998474121</ele>
        <time>2023-10-01T15:32:06.000Z</time>
      </trkpt>
      <trkpt lat="42.02386" lon="19.67629">
        <ele>81.370002746582</ele>
        <time>2023-10-01T15:32:01.000Z</time>
      </trkpt>
      <trkpt lat="42.02382" lon="19.6765">
        <ele>81.370002746582</ele>
        <time>2023-10-01T15:32:00.000Z</time>
      </trkpt>
      <trkpt lat="42.02375" lon="19.6767">
        <ele>81.370002746582</ele>
        <time>2023-10-01T15:31:59.000Z</time>
      </trkpt>
      <trkpt lat="42.02367" lon="19.67689">
        <ele>80.889999389648</ele>
        <time>2023-10-01T15:31:58.000Z</time>
      </trkpt>
      <trkpt lat="42.02357" lon="19.67705">
        <ele>80.889999389648</ele>
        <time>2023-10-01T15:31:57.000Z</time>
      </trkpt>
      <trkpt lat="42.02348" lon="19.67717">
        <ele>81.370002746582</ele>
        <time>2023-10-01T15:31:56.000Z</time>
      </trkpt>
      <trkpt lat="42.02337" lon="19.67728">
        <ele>81.370002746582</ele>
        <time>2023-10-01T15:31:55.000Z</time>
      </trkpt>
      <trkpt lat="42.02319" lon="19.67745">
        <ele>80.889999389648</ele>
        <time>2023-10-01T15:31:54.000Z</time>
      </trkpt>
      <trkpt lat="42.02292" lon="19.67766">
        <ele>80.889999389648</ele>
        <time>2023-10-01T15:31:52.000Z</time>
      </trkpt>
      <trkpt lat="42.02274" lon="19.67777">
        <ele>81.370002746582</ele>
        <time>2023-10-01T15:31:51.000Z</time>
      </trkpt>
      <trkpt lat="42.02179" lon="19.67825">
        <ele>82.809997558594</ele>
        <time>2023-10-01T15:31:46.000Z</time>
      </trkpt>
      <trkpt lat="42.02174" lon="19.67828">
        <ele>83.290000915527</ele>
        <time>2023-10-01T15:31:45.000Z</time>
      </trkpt>
      <trkpt lat="42.02157" lon="19.67841">
        <ele>83.769996643066</ele>
        <time>2023-10-01T15:31:44.000Z</time>
      </trkpt>
      <trkpt lat="42.02106" lon="19.67881">
        <ele>86.180000305176</ele>
        <time>2023-10-01T15:31:41.000Z</time>
      </trkpt>
      <trkpt lat="42.02096" lon="19.67891">
        <ele>87.620002746582</ele>
        <time>2023-10-01T15:31:40.000Z</time>
      </trkpt>
      <trkpt lat="42.02089" lon="19.67902">
        <ele>88.580001831055</ele>
        <time>2023-10-01T15:31:39.000Z</time>
      </trkpt>
      <trkpt lat="42.02087" lon="19.67916">
        <ele>89.540000915527</ele>
        <time>2023-10-01T15:31:38.000Z</time>
      </trkpt>
      <trkpt lat="42.02089" lon="19.67931">
        <ele>90.5</ele>
        <time>2023-10-01T15:31:37.000Z</time>
      </trkpt>
      <trkpt lat="42.02095" lon="19.67944">
        <ele>90.5</ele>
        <time>2023-10-01T15:31:36.000Z</time>
      </trkpt>
      <trkpt lat="42.02097" lon="19.67946">
        <ele>90.980003356934</ele>
        <time>2023-10-01T15:31:35.000Z</time>
      </trkpt>
      <trkpt lat="42.02107" lon="19.67961">
        <ele>90.980003356934</ele>
        <time>2023-10-01T15:31:34.000Z</time>
      </trkpt>
      <trkpt lat="42.02186" lon="19.68069">
        <ele>91.940002441406</ele>
        <time>2023-10-01T15:31:28.000Z</time>
      </trkpt>
      <trkpt lat="42.02268" lon="19.68182">
        <ele>92.419998168945</ele>
        <time>2023-10-01T15:31:21.000Z</time>
      </trkpt>
      <trkpt lat="42.02279" lon="19.6819">
        <ele>91.459999084473</ele>
        <time>2023-10-01T15:31:20.000Z</time>
      </trkpt>
      <trkpt lat="42.02291" lon="19.68194">
        <ele>90.980003356934</ele>
        <time>2023-10-01T15:31:19.000Z</time>
      </trkpt>
      <trkpt lat="42.023" lon="19.68194">
        <ele>90.980003356934</ele>
        <time>2023-10-01T15:31:18.000Z</time>
      </trkpt>
      <trkpt lat="42.02326" lon="19.68193">
        <ele>90.019996643066</ele>
        <time>2023-10-01T15:31:16.000Z</time>
      </trkpt>
      <trkpt lat="42.02458" lon="19.68194">
        <ele>89.059997558594</ele>
        <time>2023-10-01T15:31:10.000Z</time>
      </trkpt>
      <trkpt lat="42.02476" lon="19.68191">
        <ele>89.059997558594</ele>
        <time>2023-10-01T15:31:09.000Z</time>
      </trkpt>
      <trkpt lat="42.02492" lon="19.68185">
        <ele>89.059997558594</ele>
        <time>2023-10-01T15:31:08.000Z</time>
      </trkpt>
      <trkpt lat="42.02507" lon="19.68173">
        <ele>89.540000915527</ele>
        <time>2023-10-01T15:31:07.000Z</time>
      </trkpt>
      <trkpt lat="42.02516" lon="19.68164">
        <ele>90.019996643066</ele>
        <time>2023-10-01T15:31:06.000Z</time>
      </trkpt>
      <trkpt lat="42.02596" lon="19.68064">
        <ele>90.5</ele>
        <time>2023-10-01T15:31:01.000Z</time>
      </trkpt>
      <trkpt lat="42.0262" lon="19.68027">
        <ele>90.5</ele>
        <time>2023-10-01T15:30:59.000Z</time>
      </trkpt>
      <trkpt lat="42.02695" lon="19.6791">
        <ele>89.540000915527</ele>
        <time>2023-10-01T15:30:54.000Z</time>
      </trkpt>
      <trkpt lat="42.02707" lon="19.67897">
        <ele>90.019996643066</ele>
        <time>2023-10-01T15:30:53.000Z</time>
      </trkpt>
      <trkpt lat="42.0272" lon="19.67887">
        <ele>90.019996643066</ele>
        <time>2023-10-01T15:30:52.000Z</time>
      </trkpt>
      <trkpt lat="42.02735" lon="19.67879">
        <ele>90.5</ele>
        <time>2023-10-01T15:30:51.000Z</time>
      </trkpt>
      <trkpt lat="42.02746" lon="19.67874">
        <ele>90.5</ele>
        <time>2023-10-01T15:30:50.000Z</time>
      </trkpt>
      <trkpt lat="42.02765" lon="19.6787">
        <ele>90.980003356934</ele>
        <time>2023-10-01T15:30:49.000Z</time>
      </trkpt>
      <trkpt lat="42.02779" lon="19.67864">
        <ele>90.980003356934</ele>
        <time>2023-10-01T15:30:48.000Z</time>
      </trkpt>
      <trkpt lat="42.02792" lon="19.67853">
        <ele>90.980003356934</ele>
        <time>2023-10-01T15:30:47.000Z</time>
      </trkpt>
      <trkpt lat="42.02801" lon="19.67841">
        <ele>90.980003356934</ele>
        <time>2023-10-01T15:30:46.000Z</time>
      </trkpt>
      <trkpt lat="42.02837" lon="19.67783">
        <ele>90.980003356934</ele>
        <time>2023-10-01T15:30:43.000Z</time>
      </trkpt>
      <trkpt lat="42.02862" lon="19.67731">
        <ele>90.5</ele>
        <time>2023-10-01T15:30:41.000Z</time>
      </trkpt>
      <trkpt lat="42.02875" lon="19.67707">
        <ele>90.019996643066</ele>
        <time>2023-10-01T15:30:40.000Z</time>
      </trkpt>
      <trkpt lat="42.02888" lon="19.67689">
        <ele>90.019996643066</ele>
        <time>2023-10-01T15:30:39.000Z</time>
      </trkpt>
      <trkpt lat="42.02902" lon="19.67674">
        <ele>89.540000915527</ele>
        <time>2023-10-01T15:30:38.000Z</time>
      </trkpt>
      <trkpt lat="42.02929" lon="19.6765">
        <ele>88.580001831055</ele>
        <time>2023-10-01T15:30:36.000Z</time>
      </trkpt>
      <trkpt lat="42.02943" lon="19.67637">
        <ele>88.099998474121</ele>
        <time>2023-10-01T15:30:35.000Z</time>
      </trkpt>
      <trkpt lat="42.02956" lon="19.67617">
        <ele>87.620002746582</ele>
        <time>2023-10-01T15:30:34.000Z</time>
      </trkpt>
      <trkpt lat="42.0297" lon="19.67594">
        <ele>87.620002746582</ele>
        <time>2023-10-01T15:30:32.000Z</time>
      </trkpt>
      <trkpt lat="42.02991" lon="19.67556">
        <ele>88.580001831055</ele>
        <time>2023-10-01T15:30:31.000Z</time>
      </trkpt>
      <trkpt lat="42.03001" lon="19.67542">
        <ele>89.540000915527</ele>
        <time>2023-10-01T15:30:30.000Z</time>
      </trkpt>
      <trkpt lat="42.03013" lon="19.67532">
        <ele>90.019996643066</ele>
        <time>2023-10-01T15:30:29.000Z</time>
      </trkpt>
      <trkpt lat="42.03025" lon="19.67526">
        <ele>90.5</ele>
        <time>2023-10-01T15:30:28.000Z</time>
      </trkpt>
      <trkpt lat="42.03033" lon="19.67522">
        <ele>91.459999084473</ele>
        <time>2023-10-01T15:30:27.000Z</time>
      </trkpt>
      <trkpt lat="42.03055" lon="19.6751">
        <ele>92.900001525879</ele>
        <time>2023-10-01T15:30:26.000Z</time>
      </trkpt>
      <trkpt lat="42.03064" lon="19.67503">
        <ele>93.870002746582</ele>
        <time>2023-10-01T15:30:25.000Z</time>
      </trkpt>
      <trkpt lat="42.03073" lon="19.67495">
        <ele>94.830001831055</ele>
        <time>2023-10-01T15:30:24.000Z</time>
      </trkpt>
      <trkpt lat="42.0311" lon="19.67455">
        <ele>96.75</ele>
        <time>2023-10-01T15:30:21.000Z</time>
      </trkpt>
      <trkpt lat="42.0312" lon="19.67445">
        <ele>98.190002441406</ele>
        <time>2023-10-01T15:30:20.000Z</time>
      </trkpt>
      <trkpt lat="42.03132" lon="19.67436">
        <ele>99.150001525879</ele>
        <time>2023-10-01T15:30:19.000Z</time>
      </trkpt>
      <trkpt lat="42.03142" lon="19.67429">
        <ele>99.629997253418</ele>
        <time>2023-10-01T15:30:18.000Z</time>
      </trkpt>
      <trkpt lat="42.0321" lon="19.67399">
        <ele>104.91999816895</ele>
        <time>2023-10-01T15:30:14.000Z</time>
      </trkpt>
      <trkpt lat="42.03225" lon="19.67391">
        <ele>105.87999725342</ele>
        <time>2023-10-01T15:30:13.000Z</time>
      </trkpt>
      <trkpt lat="42.03236" lon="19.67383">
        <ele>106.83999633789</ele>
        <time>2023-10-01T15:30:12.000Z</time>
      </trkpt>
      <trkpt lat="42.03244" lon="19.67372">
        <ele>108.29000091553</ele>
        <time>2023-10-01T15:30:11.000Z</time>
      </trkpt>
      <trkpt lat="42.0325" lon="19.67359">
        <ele>109.25</ele>
        <time>2023-10-01T15:30:10.000Z</time>
      </trkpt>
      <trkpt lat="42.03252" lon="19.67352">
        <ele>109.25</ele>
        <time>2023-10-01T15:30:09.000Z</time>
      </trkpt>
      <trkpt lat="42.03258" lon="19.6733">
        <ele>110.69000244141</ele>
        <time>2023-10-01T15:30:08.000Z</time>
      </trkpt>
      <trkpt lat="42.03265" lon="19.67309">
        <ele>111.65000152588</ele>
        <time>2023-10-01T15:30:07.000Z</time>
      </trkpt>
      <trkpt lat="42.03269" lon="19.67298">
        <ele>112.12999725342</ele>
        <time>2023-10-01T15:30:06.000Z</time>
      </trkpt>
      <trkpt lat="42.03274" lon="19.67287">
        <ele>112.61000061035</ele>
        <time>2023-10-01T15:30:05.000Z</time>
      </trkpt>
      <trkpt lat="42.0328" lon="19.67278">
        <ele>113.08999633789</ele>
        <time>2023-10-01T15:30:04.000Z</time>
      </trkpt>
      <trkpt lat="42.03282" lon="19.67276">
        <ele>113.08999633789</ele>
        <time>2023-10-01T15:30:03.000Z</time>
      </trkpt>
      <trkpt lat="42.03316" lon="19.67228">
        <ele>114.05000305176</ele>
        <time>2023-10-01T15:30:00.000Z</time>
      </trkpt>
      <trkpt lat="42.03375" lon="19.6715">
        <ele>115.5</ele>
        <time>2023-10-01T15:29:56.000Z</time>
      </trkpt>
      <trkpt lat="42.034" lon="19.67111">
        <ele>116.94000244141</ele>
        <time>2023-10-01T15:29:54.000Z</time>
      </trkpt>
      <trkpt lat="42.0341" lon="19.67092">
        <ele>117.90000152588</ele>
        <time>2023-10-01T15:29:53.000Z</time>
      </trkpt>
      <trkpt lat="42.03418" lon="19.67072">
        <ele>118.37999725342</ele>
        <time>2023-10-01T15:29:52.000Z</time>
      </trkpt>
      <trkpt lat="42.03422" lon="19.67059">
        <ele>118.37999725342</ele>
        <time>2023-10-01T15:29:51.000Z</time>
      </trkpt>
      <trkpt lat="42.0343" lon="19.67029">
        <ele>117.90000152588</ele>
        <time>2023-10-01T15:29:50.000Z</time>
      </trkpt>
      <trkpt lat="42.0344" lon="19.66983">
        <ele>116.94000244141</ele>
        <time>2023-10-01T15:29:48.000Z</time>
      </trkpt>
      <trkpt lat="42.0346" lon="19.66889">
        <ele>116.94000244141</ele>
        <time>2023-10-01T15:29:45.000Z</time>
      </trkpt>
      <trkpt lat="42.03467" lon="19.66865">
        <ele>116.45999908447</ele>
        <time>2023-10-01T15:29:44.000Z</time>
      </trkpt>
      <trkpt lat="42.03473" lon="19.66848">
        <ele>115.5</ele>
        <time>2023-10-01T15:29:43.000Z</time>
      </trkpt>
      <trkpt lat="42.03482" lon="19.66826">
        <ele>114.5299987793</ele>
        <time>2023-10-01T15:29:42.000Z</time>
      </trkpt>
      <trkpt lat="42.03499" lon="19.66793">
        <ele>114.05000305176</ele>
        <time>2023-10-01T15:29:40.000Z</time>
      </trkpt>
      <trkpt lat="42.03563" lon="19.66675">
        <ele>111.65000152588</ele>
        <time>2023-10-01T15:29:35.000Z</time>
      </trkpt>
      <trkpt lat="42.03574" lon="19.66659">
        <ele>110.69000244141</ele>
        <time>2023-10-01T15:29:34.000Z</time>
      </trkpt>
      <trkpt lat="42.03587" lon="19.66641">
        <ele>108.76999664307</ele>
        <time>2023-10-01T15:29:33.000Z</time>
      </trkpt>
      <trkpt lat="42.03597" lon="19.66632">
        <ele>107.80999755859</ele>
        <time>2023-10-01T15:29:32.000Z</time>
      </trkpt>
      <trkpt lat="42.03614" lon="19.66616">
        <ele>105.87999725342</ele>
        <time>2023-10-01T15:29:31.000Z</time>
      </trkpt>
      <trkpt lat="42.03627" lon="19.66607">
        <ele>103.95999908447</ele>
        <time>2023-10-01T15:29:30.000Z</time>
      </trkpt>
      <trkpt lat="42.03639" lon="19.66603">
        <ele>103</ele>
        <time>2023-10-01T15:29:29.000Z</time>
      </trkpt>
      <trkpt lat="42.03654" lon="19.66601">
        <ele>102.04000091553</ele>
        <time>2023-10-01T15:29:28.000Z</time>
      </trkpt>
      <trkpt lat="42.03664" lon="19.66602">
        <ele>101.55999755859</ele>
        <time>2023-10-01T15:29:27.000Z</time>
      </trkpt>
      <trkpt lat="42.03688" lon="19.66605">
        <ele>101.08000183105</ele>
        <time>2023-10-01T15:29:26.000Z</time>
      </trkpt>
      <trkpt lat="42.03702" lon="19.6661">
        <ele>100.59999847412</ele>
        <time>2023-10-01T15:29:25.000Z</time>
      </trkpt>
      <trkpt lat="42.03714" lon="19.66618">
        <ele>100.59999847412</ele>
        <time>2023-10-01T15:29:24.000Z</time>
      </trkpt>
      <trkpt lat="42.03721" lon="19.66625">
        <ele>100.11000061035</ele>
        <time>2023-10-01T15:29:23.000Z</time>
      </trkpt>
      <trkpt lat="42.03728" lon="19.66634">
        <ele>100.11000061035</ele>
        <time>2023-10-01T15:29:22.000Z</time>
      </trkpt>
      <trkpt lat="42.03758" lon="19.66676">
        <ele>99.150001525879</ele>
        <time>2023-10-01T15:29:20.000Z</time>
      </trkpt>
      <trkpt lat="42.03767" lon="19.66689">
        <ele>99.150001525879</ele>
        <time>2023-10-01T15:29:19.000Z</time>
      </trkpt>
      <trkpt lat="42.03855" lon="19.66803">
        <ele>102.51999664307</ele>
        <time>2023-10-01T15:29:14.000Z</time>
      </trkpt>
      <trkpt lat="42.03866" lon="19.6682">
        <ele>102.51999664307</ele>
        <time>2023-10-01T15:29:13.000Z</time>
      </trkpt>
      <trkpt lat="42.03876" lon="19.66833">
        <ele>103.48000335693</ele>
        <time>2023-10-01T15:29:12.000Z</time>
      </trkpt>
      <trkpt lat="42.03884" lon="19.66841">
        <ele>103.48000335693</ele>
        <time>2023-10-01T15:29:11.000Z</time>
      </trkpt>
      <trkpt lat="42.03891" lon="19.66844">
        <ele>103.48000335693</ele>
        <time>2023-10-01T15:29:10.000Z</time>
      </trkpt>
      <trkpt lat="42.039" lon="19.66842">
        <ele>103.48000335693</ele>
        <time>2023-10-01T15:29:09.000Z</time>
      </trkpt>
      <trkpt lat="42.03909" lon="19.66835">
        <ele>103.48000335693</ele>
        <time>2023-10-01T15:29:08.000Z</time>
      </trkpt>
      <trkpt lat="42.03917" lon="19.66828">
        <ele>103.48000335693</ele>
        <time>2023-10-01T15:29:07.000Z</time>
      </trkpt>
      <trkpt lat="42.0393" lon="19.66811">
        <ele>103.48000335693</ele>
        <time>2023-10-01T15:29:06.000Z</time>
      </trkpt>
      <trkpt lat="42.03937" lon="19.66798">
        <ele>103.48000335693</ele>
        <time>2023-10-01T15:29:05.000Z</time>
      </trkpt>
      <trkpt lat="42.0394" lon="19.66783">
        <ele>104.44000244141</ele>
        <time>2023-10-01T15:29:04.000Z</time>
      </trkpt>
      <trkpt lat="42.03941" lon="19.6677">
        <ele>104.91999816895</ele>
        <time>2023-10-01T15:29:03.000Z</time>
      </trkpt>
      <trkpt lat="42.03942" lon="19.66729">
        <ele>106.36000061035</ele>
        <time>2023-10-01T15:29:01.000Z</time>
      </trkpt>
      <trkpt lat="42.03941" lon="19.66707">
        <ele>107.31999969482</ele>
        <time>2023-10-01T15:29:00.000Z</time>
      </trkpt>
      <trkpt lat="42.03928" lon="19.66541">
        <ele>112.61000061035</ele>
        <time>2023-10-01T15:28:54.000Z</time>
      </trkpt>
      <trkpt lat="42.0392" lon="19.66418">
        <ele>114.05000305176</ele>
        <time>2023-10-01T15:28:50.000Z</time>
      </trkpt>
      <trkpt lat="42.0392" lon="19.664">
        <ele>114.5299987793</ele>
        <time>2023-10-01T15:28:49.000Z</time>
      </trkpt>
      <trkpt lat="42.03921" lon="19.66383">
        <ele>115.01000213623</ele>
        <time>2023-10-01T15:28:48.000Z</time>
      </trkpt>
      <trkpt lat="42.03926" lon="19.6637">
        <ele>115.5</ele>
        <time>2023-10-01T15:28:47.000Z</time>
      </trkpt>
      <trkpt lat="42.03933" lon="19.66361">
        <ele>115.5</ele>
        <time>2023-10-01T15:28:46.000Z</time>
      </trkpt>
      <trkpt lat="42.03944" lon="19.66358">
        <ele>115.98000335693</ele>
        <time>2023-10-01T15:28:45.000Z</time>
      </trkpt>
      <trkpt lat="42.03951" lon="19.66358">
        <ele>115.98000335693</ele>
        <time>2023-10-01T15:28:44.000Z</time>
      </trkpt>
      <trkpt lat="42.04055" lon="19.66375">
        <ele>113.08999633789</ele>
        <time>2023-10-01T15:28:39.000Z</time>
      </trkpt>
      <trkpt lat="42.04211" lon="19.66398">
        <ele>111.65000152588</ele>
        <time>2023-10-01T15:28:31.000Z</time>
      </trkpt>
      <trkpt lat="42.04232" lon="19.664">
        <ele>109.73000335693</ele>
        <time>2023-10-01T15:28:30.000Z</time>
      </trkpt>
      <trkpt lat="42.04238" lon="19.664">
        <ele>109.25</ele>
        <time>2023-10-01T15:28:29.000Z</time>
      </trkpt>
      <trkpt lat="42.04282" lon="19.66393">
        <ele>107.31999969482</ele>
        <time>2023-10-01T15:28:27.000Z</time>
      </trkpt>
      <trkpt lat="42.04296" lon="19.66386">
        <ele>107.31999969482</ele>
        <time>2023-10-01T15:28:26.000Z</time>
      </trkpt>
      <trkpt lat="42.04303" lon="19.6638">
        <ele>107.80999755859</ele>
        <time>2023-10-01T15:28:25.000Z</time>
      </trkpt>
      <trkpt lat="42.04317" lon="19.66368">
        <ele>108.76999664307</ele>
        <time>2023-10-01T15:28:24.000Z</time>
      </trkpt>
      <trkpt lat="42.04329" lon="19.66363">
        <ele>108.76999664307</ele>
        <time>2023-10-01T15:28:23.000Z</time>
      </trkpt>
      <trkpt lat="42.0434" lon="19.66363">
        <ele>108.76999664307</ele>
        <time>2023-10-01T15:28:22.000Z</time>
      </trkpt>
      <trkpt lat="42.04348" lon="19.66365">
        <ele>108.76999664307</ele>
        <time>2023-10-01T15:28:21.000Z</time>
      </trkpt>
      <trkpt lat="42.04383" lon="19.66378">
        <ele>109.25</ele>
        <time>2023-10-01T15:28:18.000Z</time>
      </trkpt>
      <trkpt lat="42.04387" lon="19.6638">
        <ele>109.25</ele>
        <time>2023-10-01T15:28:17.000Z</time>
      </trkpt>
      <trkpt lat="42.04438" lon="19.66412">
        <ele>108.76999664307</ele>
        <time>2023-10-01T15:28:13.000Z</time>
      </trkpt>
      <trkpt lat="42.04454" lon="19.6642">
        <ele>109.25</ele>
        <time>2023-10-01T15:28:12.000Z</time>
      </trkpt>
      <trkpt lat="42.04468" lon="19.66424">
        <ele>108.76999664307</ele>
        <time>2023-10-01T15:28:11.000Z</time>
      </trkpt>
      <trkpt lat="42.04483" lon="19.66425">
        <ele>109.25</ele>
        <time>2023-10-01T15:28:10.000Z</time>
      </trkpt>
      <trkpt lat="42.04501" lon="19.66423">
        <ele>109.73000335693</ele>
        <time>2023-10-01T15:28:09.000Z</time>
      </trkpt>
      <trkpt lat="42.04517" lon="19.66419">
        <ele>109.25</ele>
        <time>2023-10-01T15:28:08.000Z</time>
      </trkpt>
      <trkpt lat="42.04526" lon="19.66416">
        <ele>109.25</ele>
        <time>2023-10-01T15:28:07.000Z</time>
      </trkpt>
      <trkpt lat="42.0456" lon="19.66401">
        <ele>109.25</ele>
        <time>2023-10-01T15:28:05.000Z</time>
      </trkpt>
      <trkpt lat="42.04569" lon="19.66395">
        <ele>109.25</ele>
        <time>2023-10-01T15:28:04.000Z</time>
      </trkpt>
      <trkpt lat="42.04576" lon="19.66385">
        <ele>109.25</ele>
        <time>2023-10-01T15:28:03.000Z</time>
      </trkpt>
      <trkpt lat="42.04578" lon="19.66372">
        <ele>109.73000335693</ele>
        <time>2023-10-01T15:28:02.000Z</time>
      </trkpt>
      <trkpt lat="42.04577" lon="19.66356">
        <ele>111.16999816895</ele>
        <time>2023-10-01T15:28:01.000Z</time>
      </trkpt>
      <trkpt lat="42.04571" lon="19.6634">
        <ele>112.61000061035</ele>
        <time>2023-10-01T15:28:00.000Z</time>
      </trkpt>
      <trkpt lat="42.04564" lon="19.66324">
        <ele>113.56999969482</ele>
        <time>2023-10-01T15:27:59.000Z</time>
      </trkpt>
      <trkpt lat="42.04558" lon="19.66306">
        <ele>115.01000213623</ele>
        <time>2023-10-01T15:27:58.000Z</time>
      </trkpt>
      <trkpt lat="42.04554" lon="19.66287">
        <ele>115.98000335693</ele>
        <time>2023-10-01T15:27:57.000Z</time>
      </trkpt>
      <trkpt lat="42.04552" lon="19.66271">
        <ele>116.94000244141</ele>
        <time>2023-10-01T15:27:56.000Z</time>
      </trkpt>
      <trkpt lat="42.04552" lon="19.6626">
        <ele>117.41999816895</ele>
        <time>2023-10-01T15:27:55.000Z</time>
      </trkpt>
      <trkpt lat="42.04554" lon="19.66174">
        <ele>120.7799987793</ele>
        <time>2023-10-01T15:27:52.000Z</time>
      </trkpt>
      <trkpt lat="42.04554" lon="19.6617">
        <ele>120.7799987793</ele>
        <time>2023-10-01T15:27:51.000Z</time>
      </trkpt>
      <trkpt lat="42.04557" lon="19.66135">
        <ele>122.70999908447</ele>
        <time>2023-10-01T15:27:50.000Z</time>
      </trkpt>
      <trkpt lat="42.0456" lon="19.66117">
        <ele>123.66999816895</ele>
        <time>2023-10-01T15:27:49.000Z</time>
      </trkpt>
      <trkpt lat="42.04565" lon="19.66106">
        <ele>124.62999725342</ele>
        <time>2023-10-01T15:27:48.000Z</time>
      </trkpt>
      <trkpt lat="42.04571" lon="19.661">
        <ele>125.11000061035</ele>
        <time>2023-10-01T15:27:47.000Z</time>
      </trkpt>
      <trkpt lat="42.04579" lon="19.66098">
        <ele>126.06999969482</ele>
        <time>2023-10-01T15:27:46.000Z</time>
      </trkpt>
      <trkpt lat="42.04586" lon="19.661">
        <ele>126.55000305176</ele>
        <time>2023-10-01T15:27:45.000Z</time>
      </trkpt>
      <trkpt lat="42.04593" lon="19.66106">
        <ele>127.51000213623</ele>
        <time>2023-10-01T15:27:44.000Z</time>
      </trkpt>
      <trkpt lat="42.04601" lon="19.66118">
        <ele>128.4700012207</ele>
        <time>2023-10-01T15:27:43.000Z</time>
      </trkpt>
      <trkpt lat="42.04612" lon="19.66134">
        <ele>129.91999816895</ele>
        <time>2023-10-01T15:27:42.000Z</time>
      </trkpt>
      <trkpt lat="42.04622" lon="19.66147">
        <ele>130.39999389648</ele>
        <time>2023-10-01T15:27:41.000Z</time>
      </trkpt>
      <trkpt lat="42.04633" lon="19.66157">
        <ele>130.88000488281</ele>
        <time>2023-10-01T15:27:40.000Z</time>
      </trkpt>
      <trkpt lat="42.04646" lon="19.66163">
        <ele>131.83999633789</ele>
        <time>2023-10-01T15:27:39.000Z</time>
      </trkpt>
      <trkpt lat="42.04661" lon="19.66164">
        <ele>132.80000305176</ele>
        <time>2023-10-01T15:27:38.000Z</time>
      </trkpt>
      <trkpt lat="42.04667" lon="19.66163">
        <ele>133.75999450684</ele>
        <time>2023-10-01T15:27:37.000Z</time>
      </trkpt>
      <trkpt lat="42.04715" lon="19.66156">
        <ele>137.13000488281</ele>
        <time>2023-10-01T15:27:35.000Z</time>
      </trkpt>
      <trkpt lat="42.04723" lon="19.66156">
        <ele>137.61000061035</ele>
        <time>2023-10-01T15:27:34.000Z</time>
      </trkpt>
      <trkpt lat="42.04799" lon="19.66158">
        <ele>141.44999694824</ele>
        <time>2023-10-01T15:27:31.000Z</time>
      </trkpt>
      <trkpt lat="42.04815" lon="19.66155">
        <ele>141.44999694824</ele>
        <time>2023-10-01T15:27:30.000Z</time>
      </trkpt>
      <trkpt lat="42.04831" lon="19.66146">
        <ele>140.9700012207</ele>
        <time>2023-10-01T15:27:29.000Z</time>
      </trkpt>
      <trkpt lat="42.04841" lon="19.6614">
        <ele>140.9700012207</ele>
        <time>2023-10-01T15:27:28.000Z</time>
      </trkpt>
      <trkpt lat="42.04875" lon="19.6611">
        <ele>140.9700012207</ele>
        <time>2023-10-01T15:27:26.000Z</time>
      </trkpt>
      <trkpt lat="42.04892" lon="19.66097">
        <ele>140.49000549316</ele>
        <time>2023-10-01T15:27:25.000Z</time>
      </trkpt>
      <trkpt lat="42.04905" lon="19.6609">
        <ele>139.5299987793</ele>
        <time>2023-10-01T15:27:24.000Z</time>
      </trkpt>
      <trkpt lat="42.04917" lon="19.66087">
        <ele>139.05000305176</ele>
        <time>2023-10-01T15:27:23.000Z</time>
      </trkpt>
      <trkpt lat="42.04931" lon="19.66089">
        <ele>138.08999633789</ele>
        <time>2023-10-01T15:27:22.000Z</time>
      </trkpt>
      <trkpt lat="42.04945" lon="19.66096">
        <ele>137.61000061035</ele>
        <time>2023-10-01T15:27:21.000Z</time>
      </trkpt>
      <trkpt lat="42.0496" lon="19.66108">
        <ele>138.08999633789</ele>
        <time>2023-10-01T15:27:20.000Z</time>
      </trkpt>
      <trkpt lat="42.04973" lon="19.66122">
        <ele>137.61000061035</ele>
        <time>2023-10-01T15:27:19.000Z</time>
      </trkpt>
      <trkpt lat="42.04983" lon="19.66136">
        <ele>137.61000061035</ele>
        <time>2023-10-01T15:27:18.000Z</time>
      </trkpt>
      <trkpt lat="42.04988" lon="19.66151">
        <ele>137.13000488281</ele>
        <time>2023-10-01T15:27:17.000Z</time>
      </trkpt>
      <trkpt lat="42.04991" lon="19.66162">
        <ele>136.63999938965</ele>
        <time>2023-10-01T15:27:16.000Z</time>
      </trkpt>
      <trkpt lat="42.04995" lon="19.66184">
        <ele>135.67999267578</ele>
        <time>2023-10-01T15:27:15.000Z</time>
      </trkpt>
      <trkpt lat="42.05002" lon="19.66214">
        <ele>135.67999267578</ele>
        <time>2023-10-01T15:27:14.000Z</time>
      </trkpt>
      <trkpt lat="42.05014" lon="19.66267">
        <ele>135.19999694824</ele>
        <time>2023-10-01T15:27:12.000Z</time>
      </trkpt>
      <trkpt lat="42.05017" lon="19.66289">
        <ele>134.7200012207</ele>
        <time>2023-10-01T15:27:11.000Z</time>
      </trkpt>
      <trkpt lat="42.05018" lon="19.66306">
        <ele>133.2799987793</ele>
        <time>2023-10-01T15:27:10.000Z</time>
      </trkpt>
      <trkpt lat="42.05019" lon="19.66322">
        <ele>132.80000305176</ele>
        <time>2023-10-01T15:27:09.000Z</time>
      </trkpt>
      <trkpt lat="42.05023" lon="19.66335">
        <ele>132.32000732422</ele>
        <time>2023-10-01T15:27:08.000Z</time>
      </trkpt>
      <trkpt lat="42.0503" lon="19.66346">
        <ele>131.36000061035</ele>
        <time>2023-10-01T15:27:07.000Z</time>
      </trkpt>
      <trkpt lat="42.05038" lon="19.6635">
        <ele>130.88000488281</ele>
        <time>2023-10-01T15:27:06.000Z</time>
      </trkpt>
      <trkpt lat="42.05048" lon="19.66352">
        <ele>130.39999389648</ele>
        <time>2023-10-01T15:27:05.000Z</time>
      </trkpt>
      <trkpt lat="42.05061" lon="19.66349">
        <ele>129.91999816895</ele>
        <time>2023-10-01T15:27:04.000Z</time>
      </trkpt>
      <trkpt lat="42.05076" lon="19.66344">
        <ele>129.42999267578</ele>
        <time>2023-10-01T15:27:03.000Z</time>
      </trkpt>
      <trkpt lat="42.0509" lon="19.66339">
        <ele>128.94999694824</ele>
        <time>2023-10-01T15:27:02.000Z</time>
      </trkpt>
      <trkpt lat="42.05106" lon="19.66337">
        <ele>127.51000213623</ele>
        <time>2023-10-01T15:27:01.000Z</time>
      </trkpt>
      <trkpt lat="42.05117" lon="19.66339">
        <ele>127.0299987793</ele>
        <time>2023-10-01T15:27:00.000Z</time>
      </trkpt>
      <trkpt lat="42.05125" lon="19.66341">
        <ele>126.06999969482</ele>
        <time>2023-10-01T15:26:59.000Z</time>
      </trkpt>
      <trkpt lat="42.05171" lon="19.66358">
        <ele>122.70999908447</ele>
        <time>2023-10-01T15:26:57.000Z</time>
      </trkpt>
      <trkpt lat="42.05187" lon="19.66369">
        <ele>121.73999786377</ele>
        <time>2023-10-01T15:26:56.000Z</time>
      </trkpt>
      <trkpt lat="42.05202" lon="19.66383">
        <ele>120.30000305176</ele>
        <time>2023-10-01T15:26:55.000Z</time>
      </trkpt>
      <trkpt lat="42.05214" lon="19.66398">
        <ele>119.33999633789</ele>
        <time>2023-10-01T15:26:54.000Z</time>
      </trkpt>
      <trkpt lat="42.05243" lon="19.66437">
        <ele>116.94000244141</ele>
        <time>2023-10-01T15:26:52.000Z</time>
      </trkpt>
      <trkpt lat="42.05328" lon="19.66549">
        <ele>110.69000244141</ele>
        <time>2023-10-01T15:26:47.000Z</time>
      </trkpt>
      <trkpt lat="42.05341" lon="19.66571">
        <ele>109.25</ele>
        <time>2023-10-01T15:26:46.000Z</time>
      </trkpt>
      <trkpt lat="42.05351" lon="19.66592">
        <ele>107.31999969482</ele>
        <time>2023-10-01T15:26:45.000Z</time>
      </trkpt>
      <trkpt lat="42.05354" lon="19.66599">
        <ele>106.83999633789</ele>
        <time>2023-10-01T15:26:44.000Z</time>
      </trkpt>
      <trkpt lat="42.05379" lon="19.66664">
        <ele>103</ele>
        <time>2023-10-01T15:26:42.000Z</time>
      </trkpt>
      <trkpt lat="42.05387" lon="19.6669">
        <ele>102.51999664307</ele>
        <time>2023-10-01T15:26:41.000Z</time>
      </trkpt>
      <trkpt lat="42.0539" lon="19.66712">
        <ele>102.04000091553</ele>
        <time>2023-10-01T15:26:40.000Z</time>
      </trkpt>
      <trkpt lat="42.05391" lon="19.66733">
        <ele>101.55999755859</ele>
        <time>2023-10-01T15:26:39.000Z</time>
      </trkpt>
      <trkpt lat="42.05389" lon="19.66752">
        <ele>101.08000183105</ele>
        <time>2023-10-01T15:26:38.000Z</time>
      </trkpt>
      <trkpt lat="42.05386" lon="19.66772">
        <ele>99.629997253418</ele>
        <time>2023-10-01T15:26:37.000Z</time>
      </trkpt>
      <trkpt lat="42.05386" lon="19.66793">
        <ele>98.669998168945</ele>
        <time>2023-10-01T15:26:36.000Z</time>
      </trkpt>
      <trkpt lat="42.05388" lon="19.66807">
        <ele>98.190002441406</ele>
        <time>2023-10-01T15:26:35.000Z</time>
      </trkpt>
      <trkpt lat="42.05402" lon="19.66868">
        <ele>95.790000915527</ele>
        <time>2023-10-01T15:26:33.000Z</time>
      </trkpt>
      <trkpt lat="42.05405" lon="19.66889">
        <ele>94.830001831055</ele>
        <time>2023-10-01T15:26:32.000Z</time>
      </trkpt>
      <trkpt lat="42.05406" lon="19.66908">
        <ele>93.870002746582</ele>
        <time>2023-10-01T15:26:31.000Z</time>
      </trkpt>
      <trkpt lat="42.05404" lon="19.66925">
        <ele>93.389999389648</ele>
        <time>2023-10-01T15:26:30.000Z</time>
      </trkpt>
      <trkpt lat="42.054" lon="19.66938">
        <ele>92.900001525879</ele>
        <time>2023-10-01T15:26:29.000Z</time>
      </trkpt>
      <trkpt lat="42.05392" lon="19.66957">
        <ele>92.900001525879</ele>
        <time>2023-10-01T15:26:28.000Z</time>
      </trkpt>
      <trkpt lat="42.05387" lon="19.66974">
        <ele>93.389999389648</ele>
        <time>2023-10-01T15:26:27.000Z</time>
      </trkpt>
      <trkpt lat="42.05386" lon="19.66992">
        <ele>93.389999389648</ele>
        <time>2023-10-01T15:26:26.000Z</time>
      </trkpt>
      <trkpt lat="42.05387" lon="19.67009">
        <ele>94.349998474121</ele>
        <time>2023-10-01T15:26:25.000Z</time>
      </trkpt>
      <trkpt lat="42.0539" lon="19.67022">
        <ele>94.830001831055</ele>
        <time>2023-10-01T15:26:24.000Z</time>
      </trkpt>
      <trkpt lat="42.05396" lon="19.67043">
        <ele>95.309997558594</ele>
        <time>2023-10-01T15:26:23.000Z</time>
      </trkpt>
      <trkpt lat="42.05397" lon="19.6706">
        <ele>95.790000915527</ele>
        <time>2023-10-01T15:26:22.000Z</time>
      </trkpt>
      <trkpt lat="42.05395" lon="19.67072">
        <ele>95.790000915527</ele>
        <time>2023-10-01T15:26:21.000Z</time>
      </trkpt>
      <trkpt lat="42.0539" lon="19.67093">
        <ele>96.269996643066</ele>
        <time>2023-10-01T15:26:20.000Z</time>
      </trkpt>
      <trkpt lat="42.0539" lon="19.67114">
        <ele>97.230003356934</ele>
        <time>2023-10-01T15:26:19.000Z</time>
      </trkpt>
      <trkpt lat="42.05392" lon="19.67135">
        <ele>97.709999084473</ele>
        <time>2023-10-01T15:26:18.000Z</time>
      </trkpt>
      <trkpt lat="42.05398" lon="19.67157">
        <ele>99.150001525879</ele>
        <time>2023-10-01T15:26:17.000Z</time>
      </trkpt>
      <trkpt lat="42.05401" lon="19.67165">
        <ele>100.11000061035</ele>
        <time>2023-10-01T15:26:16.000Z</time>
      </trkpt>
      <trkpt lat="42.05434" lon="19.67233">
        <ele>104.91999816895</ele>
        <time>2023-10-01T15:26:13.000Z</time>
      </trkpt>
      <trkpt lat="42.0544" lon="19.67246">
        <ele>104.91999816895</ele>
        <time>2023-10-01T15:26:12.000Z</time>
      </trkpt>
      <trkpt lat="42.05446" lon="19.67253">
        <ele>104.44000244141</ele>
        <time>2023-10-01T15:26:11.000Z</time>
      </trkpt>
      <trkpt lat="42.05454" lon="19.67255">
        <ele>104.91999816895</ele>
        <time>2023-10-01T15:26:10.000Z</time>
      </trkpt>
      <trkpt lat="42.05463" lon="19.67252">
        <ele>104.91999816895</ele>
        <time>2023-10-01T15:26:09.000Z</time>
      </trkpt>
      <trkpt lat="42.05472" lon="19.67243">
        <ele>105.40000152588</ele>
        <time>2023-10-01T15:26:08.000Z</time>
      </trkpt>
      <trkpt lat="42.05478" lon="19.6723">
        <ele>106.36000061035</ele>
        <time>2023-10-01T15:26:07.000Z</time>
      </trkpt>
      <trkpt lat="42.05482" lon="19.67214">
        <ele>107.31999969482</ele>
        <time>2023-10-01T15:26:06.000Z</time>
      </trkpt>
      <trkpt lat="42.05484" lon="19.67194">
        <ele>108.76999664307</ele>
        <time>2023-10-01T15:26:05.000Z</time>
      </trkpt>
      <trkpt lat="42.05487" lon="19.67175">
        <ele>109.73000335693</ele>
        <time>2023-10-01T15:26:04.000Z</time>
      </trkpt>
      <trkpt lat="42.05494" lon="19.67158">
        <ele>110.69000244141</ele>
        <time>2023-10-01T15:26:03.000Z</time>
      </trkpt>
      <trkpt lat="42.05504" lon="19.67141">
        <ele>112.12999725342</ele>
        <time>2023-10-01T15:26:02.000Z</time>
      </trkpt>
      <trkpt lat="42.05514" lon="19.67127">
        <ele>113.56999969482</ele>
        <time>2023-10-01T15:26:01.000Z</time>
      </trkpt>
      <trkpt lat="42.05526" lon="19.67115">
        <ele>115.01000213623</ele>
        <time>2023-10-01T15:26:00.000Z</time>
      </trkpt>
      <trkpt lat="42.05535" lon="19.67108">
        <ele>115.5</ele>
        <time>2023-10-01T15:25:59.000Z</time>
      </trkpt>
      <trkpt lat="42.0555" lon="19.67099">
        <ele>116.45999908447</ele>
        <time>2023-10-01T15:25:58.000Z</time>
      </trkpt>
      <trkpt lat="42.0556" lon="19.67095">
        <ele>116.94000244141</ele>
        <time>2023-10-01T15:25:57.000Z</time>
      </trkpt>
      <trkpt lat="42.05577" lon="19.67091">
        <ele>117.90000152588</ele>
        <time>2023-10-01T15:25:56.000Z</time>
      </trkpt>
      <trkpt lat="42.05592" lon="19.67091">
        <ele>118.86000061035</ele>
        <time>2023-10-01T15:25:55.000Z</time>
      </trkpt>
      <trkpt lat="42.05608" lon="19.67094">
        <ele>119.33999633789</ele>
        <time>2023-10-01T15:25:54.000Z</time>
      </trkpt>
      <trkpt lat="42.05622" lon="19.67099">
        <ele>119.33999633789</ele>
        <time>2023-10-01T15:25:53.000Z</time>
      </trkpt>
      <trkpt lat="42.05635" lon="19.67107">
        <ele>119.81999969482</ele>
        <time>2023-10-01T15:25:52.000Z</time>
      </trkpt>
      <trkpt lat="42.05646" lon="19.67114">
        <ele>120.7799987793</ele>
        <time>2023-10-01T15:25:51.000Z</time>
      </trkpt>
      <trkpt lat="42.05676" lon="19.67139">
        <ele>123.66999816895</ele>
        <time>2023-10-01T15:25:49.000Z</time>
      </trkpt>
      <trkpt lat="42.0569" lon="19.67148">
        <ele>125.11000061035</ele>
        <time>2023-10-01T15:25:48.000Z</time>
      </trkpt>
      <trkpt lat="42.05693" lon="19.6715">
        <ele>125.11000061035</ele>
        <time>2023-10-01T15:25:47.000Z</time>
      </trkpt>
      <trkpt lat="42.05725" lon="19.67165">
        <ele>127.98999786377</ele>
        <time>2023-10-01T15:25:45.000Z</time>
      </trkpt>
      <trkpt lat="42.05765" lon="19.67187">
        <ele>131.36000061035</ele>
        <time>2023-10-01T15:25:43.000Z</time>
      </trkpt>
      <trkpt lat="42.05769" lon="19.6719">
        <ele>131.83999633789</ele>
        <time>2023-10-01T15:25:42.000Z</time>
      </trkpt>
      <trkpt lat="42.05835" lon="19.67236">
        <ele>138.57000732422</ele>
        <time>2023-10-01T15:25:38.000Z</time>
      </trkpt>
      <trkpt lat="42.05846" lon="19.67246">
        <ele>139.5299987793</ele>
        <time>2023-10-01T15:25:37.000Z</time>
      </trkpt>
      <trkpt lat="42.05853" lon="19.67259">
        <ele>140.00999450684</ele>
        <time>2023-10-01T15:25:36.000Z</time>
      </trkpt>
      <trkpt lat="42.05858" lon="19.67271">
        <ele>140.49000549316</ele>
        <time>2023-10-01T15:25:35.000Z</time>
      </trkpt>
      <trkpt lat="42.05865" lon="19.67291">
        <ele>140.9700012207</ele>
        <time>2023-10-01T15:25:34.000Z</time>
      </trkpt>
      <trkpt lat="42.05871" lon="19.67309">
        <ele>141.92999267578</ele>
        <time>2023-10-01T15:25:33.000Z</time>
      </trkpt>
      <trkpt lat="42.05879" lon="19.67326">
        <ele>142.88999938965</ele>
        <time>2023-10-01T15:25:32.000Z</time>
      </trkpt>
      <trkpt lat="42.05889" lon="19.67339">
        <ele>143.36999511719</ele>
        <time>2023-10-01T15:25:31.000Z</time>
      </trkpt>
      <trkpt lat="42.05902" lon="19.67348">
        <ele>144.33999633789</ele>
        <time>2023-10-01T15:25:30.000Z</time>
      </trkpt>
      <trkpt lat="42.05914" lon="19.67353">
        <ele>145.7799987793</ele>
        <time>2023-10-01T15:25:29.000Z</time>
      </trkpt>
      <trkpt lat="42.05926" lon="19.67356">
        <ele>147.2200012207</ele>
        <time>2023-10-01T15:25:28.000Z</time>
      </trkpt>
      <trkpt lat="42.05969" lon="19.67358">
        <ele>149.61999511719</ele>
        <time>2023-10-01T15:25:25.000Z</time>
      </trkpt>
      <trkpt lat="42.05983" lon="19.67358">
        <ele>149.61999511719</ele>
        <time>2023-10-01T15:25:24.000Z</time>
      </trkpt>
      <trkpt lat="42.05991" lon="19.6736">
        <ele>150.10000610352</ele>
        <time>2023-10-01T15:25:23.000Z</time>
      </trkpt>
      <trkpt lat="42.05998" lon="19.67365">
        <ele>150.10000610352</ele>
        <time>2023-10-01T15:25:22.000Z</time>
      </trkpt>
      <trkpt lat="42.06003" lon="19.67374">
        <ele>150.58000183105</ele>
        <time>2023-10-01T15:25:21.000Z</time>
      </trkpt>
      <trkpt lat="42.06007" lon="19.67385">
        <ele>150.58000183105</ele>
        <time>2023-10-01T15:25:20.000Z</time>
      </trkpt>
      <trkpt lat="42.06009" lon="19.67398">
        <ele>150.10000610352</ele>
        <time>2023-10-01T15:25:19.000Z</time>
      </trkpt>
      <trkpt lat="42.06009" lon="19.6741">
        <ele>150.10000610352</ele>
        <time>2023-10-01T15:25:18.000Z</time>
      </trkpt>
      <trkpt lat="42.06007" lon="19.67421">
        <ele>150.10000610352</ele>
        <time>2023-10-01T15:25:17.000Z</time>
      </trkpt>
      <trkpt lat="42.06003" lon="19.67432">
        <ele>149.61999511719</ele>
        <time>2023-10-01T15:25:16.000Z</time>
      </trkpt>
      <trkpt lat="42.05998" lon="19.6744">
        <ele>149.13999938965</ele>
        <time>2023-10-01T15:25:15.000Z</time>
      </trkpt>
      <trkpt lat="42.05988" lon="19.67454">
        <ele>148.17999267578</ele>
        <time>2023-10-01T15:25:14.000Z</time>
      </trkpt>
      <trkpt lat="42.05979" lon="19.67466">
        <ele>147.69999694824</ele>
        <time>2023-10-01T15:25:13.000Z</time>
      </trkpt>
      <trkpt lat="42.0597" lon="19.6748">
        <ele>146.74000549316</ele>
        <time>2023-10-01T15:25:12.000Z</time>
      </trkpt>
      <trkpt lat="42.05961" lon="19.67498">
        <ele>145.30000305176</ele>
        <time>2023-10-01T15:25:11.000Z</time>
      </trkpt>
      <trkpt lat="42.05932" lon="19.67578">
        <ele>140.49000549316</ele>
        <time>2023-10-01T15:25:07.000Z</time>
      </trkpt>
      <trkpt lat="42.0592" lon="19.67609">
        <ele>139.05000305176</ele>
        <time>2023-10-01T15:25:06.000Z</time>
      </trkpt>
      <trkpt lat="42.0591" lon="19.67629">
        <ele>137.61000061035</ele>
        <time>2023-10-01T15:25:05.000Z</time>
      </trkpt>
      <trkpt lat="42.05907" lon="19.67632">
        <ele>137.13000488281</ele>
        <time>2023-10-01T15:25:04.000Z</time>
      </trkpt>
      <trkpt lat="42.05834" lon="19.6774">
        <ele>127.98999786377</ele>
        <time>2023-10-01T15:24:59.000Z</time>
      </trkpt>
      <trkpt lat="42.05826" lon="19.67758">
        <ele>127.0299987793</ele>
        <time>2023-10-01T15:24:58.000Z</time>
      </trkpt>
      <trkpt lat="42.05821" lon="19.67777">
        <ele>127.0299987793</ele>
        <time>2023-10-01T15:24:57.000Z</time>
      </trkpt>
      <trkpt lat="42.05819" lon="19.67792">
        <ele>126.55000305176</ele>
        <time>2023-10-01T15:24:56.000Z</time>
      </trkpt>
      <trkpt lat="42.05813" lon="19.67861">
        <ele>125.11000061035</ele>
        <time>2023-10-01T15:24:53.000Z</time>
      </trkpt>
      <trkpt lat="42.05814" lon="19.67876">
        <ele>125.11000061035</ele>
        <time>2023-10-01T15:24:52.000Z</time>
      </trkpt>
      <trkpt lat="42.05816" lon="19.67888">
        <ele>124.62999725342</ele>
        <time>2023-10-01T15:24:51.000Z</time>
      </trkpt>
      <trkpt lat="42.05824" lon="19.67898">
        <ele>123.66999816895</ele>
        <time>2023-10-01T15:24:50.000Z</time>
      </trkpt>
      <trkpt lat="42.05832" lon="19.67903">
        <ele>122.70999908447</ele>
        <time>2023-10-01T15:24:49.000Z</time>
      </trkpt>
      <trkpt lat="42.0584" lon="19.67904">
        <ele>122.2200012207</ele>
        <time>2023-10-01T15:24:48.000Z</time>
      </trkpt>
      <trkpt lat="42.05849" lon="19.67899">
        <ele>122.2200012207</ele>
        <time>2023-10-01T15:24:47.000Z</time>
      </trkpt>
      <trkpt lat="42.05857" lon="19.67892">
        <ele>122.70999908447</ele>
        <time>2023-10-01T15:24:46.000Z</time>
      </trkpt>
      <trkpt lat="42.05861" lon="19.67888">
        <ele>122.70999908447</ele>
        <time>2023-10-01T15:24:45.000Z</time>
      </trkpt>
      <trkpt lat="42.05884" lon="19.67863">
        <ele>122.70999908447</ele>
        <time>2023-10-01T15:24:44.000Z</time>
      </trkpt>
      <trkpt lat="42.05897" lon="19.67851">
        <ele>123.19000244141</ele>
        <time>2023-10-01T15:24:43.000Z</time>
      </trkpt>
      <trkpt lat="42.05915" lon="19.67837">
        <ele>123.66999816895</ele>
        <time>2023-10-01T15:24:42.000Z</time>
      </trkpt>
      <trkpt lat="42.05943" lon="19.67814">
        <ele>124.15000152588</ele>
        <time>2023-10-01T15:24:40.000Z</time>
      </trkpt>
      <trkpt lat="42.05956" lon="19.67806">
        <ele>124.62999725342</ele>
        <time>2023-10-01T15:24:39.000Z</time>
      </trkpt>
      <trkpt lat="42.05969" lon="19.67802">
        <ele>125.58999633789</ele>
        <time>2023-10-01T15:24:38.000Z</time>
      </trkpt>
      <trkpt lat="42.06005" lon="19.67793">
        <ele>127.51000213623</ele>
        <time>2023-10-01T15:24:35.000Z</time>
      </trkpt>
      <trkpt lat="42.06029" lon="19.67786">
        <ele>128.4700012207</ele>
        <time>2023-10-01T15:24:34.000Z</time>
      </trkpt>
      <trkpt lat="42.06043" lon="19.67783">
        <ele>129.42999267578</ele>
        <time>2023-10-01T15:24:33.000Z</time>
      </trkpt>
      <trkpt lat="42.06057" lon="19.67783">
        <ele>129.91999816895</ele>
        <time>2023-10-01T15:24:32.000Z</time>
      </trkpt>
      <trkpt lat="42.0606" lon="19.67783">
        <ele>129.91999816895</ele>
        <time>2023-10-01T15:24:31.000Z</time>
      </trkpt>
      <trkpt lat="42.06103" lon="19.67792">
        <ele>132.32000732422</ele>
        <time>2023-10-01T15:24:29.000Z</time>
      </trkpt>
      <trkpt lat="42.06124" lon="19.67793">
        <ele>132.32000732422</ele>
        <time>2023-10-01T15:24:28.000Z</time>
      </trkpt>
      <trkpt lat="42.06139" lon="19.67792">
        <ele>132.32000732422</ele>
        <time>2023-10-01T15:24:27.000Z</time>
      </trkpt>
      <trkpt lat="42.06156" lon="19.67788">
        <ele>133.2799987793</ele>
        <time>2023-10-01T15:24:26.000Z</time>
      </trkpt>
      <trkpt lat="42.06193" lon="19.67774">
        <ele>134.7200012207</ele>
        <time>2023-10-01T15:24:24.000Z</time>
      </trkpt>
      <trkpt lat="42.06211" lon="19.67769">
        <ele>135.19999694824</ele>
        <time>2023-10-01T15:24:23.000Z</time>
      </trkpt>
      <trkpt lat="42.06225" lon="19.67768">
        <ele>135.67999267578</ele>
        <time>2023-10-01T15:24:22.000Z</time>
      </trkpt>
      <trkpt lat="42.06249" lon="19.67767">
        <ele>137.13000488281</ele>
        <time>2023-10-01T15:24:21.000Z</time>
      </trkpt>
      <trkpt lat="42.06265" lon="19.67766">
        <ele>138.57000732422</ele>
        <time>2023-10-01T15:24:20.000Z</time>
      </trkpt>
      <trkpt lat="42.06279" lon="19.67763">
        <ele>139.05000305176</ele>
        <time>2023-10-01T15:24:19.000Z</time>
      </trkpt>
      <trkpt lat="42.06323" lon="19.6775">
        <ele>140.9700012207</ele>
        <time>2023-10-01T15:24:17.000Z</time>
      </trkpt>
      <trkpt lat="42.06342" lon="19.67749">
        <ele>141.44999694824</ele>
        <time>2023-10-01T15:24:16.000Z</time>
      </trkpt>
      <trkpt lat="42.06351" lon="19.67749">
        <ele>141.44999694824</ele>
        <time>2023-10-01T15:24:15.000Z</time>
      </trkpt>
      <trkpt lat="42.06373" lon="19.67753">
        <ele>141.44999694824</ele>
        <time>2023-10-01T15:24:14.000Z</time>
      </trkpt>
      <trkpt lat="42.06387" lon="19.67752">
        <ele>141.92999267578</ele>
        <time>2023-10-01T15:24:13.000Z</time>
      </trkpt>
      <trkpt lat="42.064" lon="19.67746">
        <ele>141.92999267578</ele>
        <time>2023-10-01T15:24:12.000Z</time>
      </trkpt>
      <trkpt lat="42.06406" lon="19.67742">
        <ele>141.92999267578</ele>
        <time>2023-10-01T15:24:11.000Z</time>
      </trkpt>
      <trkpt lat="42.06422" lon="19.67728">
        <ele>141.92999267578</ele>
        <time>2023-10-01T15:24:10.000Z</time>
      </trkpt>
      <trkpt lat="42.0644" lon="19.67716">
        <ele>141.44999694824</ele>
        <time>2023-10-01T15:24:09.000Z</time>
      </trkpt>
      <trkpt lat="42.06453" lon="19.6771">
        <ele>141.92999267578</ele>
        <time>2023-10-01T15:24:08.000Z</time>
      </trkpt>
      <trkpt lat="42.06465" lon="19.67709">
        <ele>141.92999267578</ele>
        <time>2023-10-01T15:24:07.000Z</time>
      </trkpt>
      <trkpt lat="42.06475" lon="19.67712">
        <ele>142.41000366211</ele>
        <time>2023-10-01T15:24:06.000Z</time>
      </trkpt>
      <trkpt lat="42.06484" lon="19.67719">
        <ele>142.41000366211</ele>
        <time>2023-10-01T15:24:05.000Z</time>
      </trkpt>
      <trkpt lat="42.06491" lon="19.6773">
        <ele>142.88999938965</ele>
        <time>2023-10-01T15:24:04.000Z</time>
      </trkpt>
      <trkpt lat="42.06497" lon="19.67746">
        <ele>142.88999938965</ele>
        <time>2023-10-01T15:24:03.000Z</time>
      </trkpt>
      <trkpt lat="42.06502" lon="19.67763">
        <ele>143.36999511719</ele>
        <time>2023-10-01T15:24:02.000Z</time>
      </trkpt>
      <trkpt lat="42.06504" lon="19.67778">
        <ele>143.36999511719</ele>
        <time>2023-10-01T15:24:01.000Z</time>
      </trkpt>
      <trkpt lat="42.06507" lon="19.67801">
        <ele>143.36999511719</ele>
        <time>2023-10-01T15:23:59.000Z</time>
      </trkpt>
      <trkpt lat="42.06512" lon="19.67834">
        <ele>143.36999511719</ele>
        <time>2023-10-01T15:23:58.000Z</time>
      </trkpt>
      <trkpt lat="42.06516" lon="19.67853">
        <ele>142.88999938965</ele>
        <time>2023-10-01T15:23:57.000Z</time>
      </trkpt>
      <trkpt lat="42.06524" lon="19.67875">
        <ele>142.88999938965</ele>
        <time>2023-10-01T15:23:56.000Z</time>
      </trkpt>
      <trkpt lat="42.06527" lon="19.67883">
        <ele>142.88999938965</ele>
        <time>2023-10-01T15:23:55.000Z</time>
      </trkpt>
      <trkpt lat="42.06547" lon="19.67929">
        <ele>142.41000366211</ele>
        <time>2023-10-01T15:23:53.000Z</time>
      </trkpt>
      <trkpt lat="42.06552" lon="19.67946">
        <ele>142.41000366211</ele>
        <time>2023-10-01T15:23:52.000Z</time>
      </trkpt>
      <trkpt lat="42.06553" lon="19.67962">
        <ele>141.92999267578</ele>
        <time>2023-10-01T15:23:51.000Z</time>
      </trkpt>
      <trkpt lat="42.06553" lon="19.67974">
        <ele>141.92999267578</ele>
        <time>2023-10-01T15:23:50.000Z</time>
      </trkpt>
      <trkpt lat="42.06553" lon="19.67981">
        <ele>141.92999267578</ele>
        <time>2023-10-01T15:23:49.000Z</time>
      </trkpt>
      <trkpt lat="42.0655" lon="19.68011">
        <ele>140.49000549316</ele>
        <time>2023-10-01T15:23:48.000Z</time>
      </trkpt>
      <trkpt lat="42.06548" lon="19.68029">
        <ele>139.05000305176</ele>
        <time>2023-10-01T15:23:47.000Z</time>
      </trkpt>
      <trkpt lat="42.06547" lon="19.68043">
        <ele>138.57000732422</ele>
        <time>2023-10-01T15:23:46.000Z</time>
      </trkpt>
      <trkpt lat="42.06548" lon="19.68056">
        <ele>137.61000061035</ele>
        <time>2023-10-01T15:23:45.000Z</time>
      </trkpt>
      <trkpt lat="42.06552" lon="19.68066">
        <ele>137.61000061035</ele>
        <time>2023-10-01T15:23:44.000Z</time>
      </trkpt>
      <trkpt lat="42.06557" lon="19.68074">
        <ele>137.13000488281</ele>
        <time>2023-10-01T15:23:43.000Z</time>
      </trkpt>
      <trkpt lat="42.06565" lon="19.68078">
        <ele>136.63999938965</ele>
        <time>2023-10-01T15:23:42.000Z</time>
      </trkpt>
      <trkpt lat="42.06573" lon="19.68079">
        <ele>136.63999938965</ele>
        <time>2023-10-01T15:23:41.000Z</time>
      </trkpt>
      <trkpt lat="42.06581" lon="19.68078">
        <ele>136.63999938965</ele>
        <time>2023-10-01T15:23:40.000Z</time>
      </trkpt>
      <trkpt lat="42.06584" lon="19.68077">
        <ele>136.63999938965</ele>
        <time>2023-10-01T15:23:39.000Z</time>
      </trkpt>
      <trkpt lat="42.06594" lon="19.68073">
        <ele>137.13000488281</ele>
        <time>2023-10-01T15:23:38.000Z</time>
      </trkpt>
      <trkpt lat="42.066" lon="19.68071">
        <ele>137.13000488281</ele>
        <time>2023-10-01T15:23:37.000Z</time>
      </trkpt>
      <trkpt lat="42.06607" lon="19.68071">
        <ele>137.61000061035</ele>
        <time>2023-10-01T15:23:36.000Z</time>
      </trkpt>
      <trkpt lat="42.06613" lon="19.68072">
        <ele>137.61000061035</ele>
        <time>2023-10-01T15:23:35.000Z</time>
      </trkpt>
      <trkpt lat="42.06621" lon="19.68074">
        <ele>138.08999633789</ele>
        <time>2023-10-01T15:23:34.000Z</time>
      </trkpt>
      <trkpt lat="42.06628" lon="19.68077">
        <ele>138.08999633789</ele>
        <time>2023-10-01T15:23:33.000Z</time>
      </trkpt>
      <trkpt lat="42.06636" lon="19.68081">
        <ele>138.57000732422</ele>
        <time>2023-10-01T15:23:32.000Z</time>
      </trkpt>
      <trkpt lat="42.06644" lon="19.68085">
        <ele>139.05000305176</ele>
        <time>2023-10-01T15:23:31.000Z</time>
      </trkpt>
      <trkpt lat="42.06651" lon="19.6809">
        <ele>139.05000305176</ele>
        <time>2023-10-01T15:23:30.000Z</time>
      </trkpt>
      <trkpt lat="42.0666" lon="19.68095">
        <ele>139.05000305176</ele>
        <time>2023-10-01T15:23:29.000Z</time>
      </trkpt>
      <trkpt lat="42.06671" lon="19.68098">
        <ele>139.5299987793</ele>
        <time>2023-10-01T15:23:28.000Z</time>
      </trkpt>
      <trkpt lat="42.06689" lon="19.68101">
        <ele>139.05000305176</ele>
        <time>2023-10-01T15:23:26.000Z</time>
      </trkpt>
      <trkpt lat="42.067" lon="19.68102">
        <ele>138.57000732422</ele>
        <time>2023-10-01T15:23:25.000Z</time>
      </trkpt>
      <trkpt lat="42.06706" lon="19.68103">
        <ele>138.57000732422</ele>
        <time>2023-10-01T15:23:24.000Z</time>
      </trkpt>
      <trkpt lat="42.06714" lon="19.68105">
        <ele>138.08999633789</ele>
        <time>2023-10-01T15:23:23.000Z</time>
      </trkpt>
      <trkpt lat="42.06725" lon="19.68108">
        <ele>137.61000061035</ele>
        <time>2023-10-01T15:23:22.000Z</time>
      </trkpt>
      <trkpt lat="42.06733" lon="19.68111">
        <ele>137.13000488281</ele>
        <time>2023-10-01T15:23:21.000Z</time>
      </trkpt>
      <trkpt lat="42.06741" lon="19.68114">
        <ele>137.13000488281</ele>
        <time>2023-10-01T15:23:20.000Z</time>
      </trkpt>
      <trkpt lat="42.06747" lon="19.68116">
        <ele>137.13000488281</ele>
        <time>2023-10-01T15:23:19.000Z</time>
      </trkpt>
      <trkpt lat="42.06754" lon="19.6812">
        <ele>137.13000488281</ele>
        <time>2023-10-01T15:23:18.000Z</time>
      </trkpt>
      <trkpt lat="42.06759" lon="19.68125">
        <ele>137.13000488281</ele>
        <time>2023-10-01T15:23:17.000Z</time>
      </trkpt>
      <trkpt lat="42.06764" lon="19.68132">
        <ele>137.13000488281</ele>
        <time>2023-10-01T15:23:16.000Z</time>
      </trkpt>
      <trkpt lat="42.06767" lon="19.68143">
        <ele>137.61000061035</ele>
        <time>2023-10-01T15:23:15.000Z</time>
      </trkpt>
      <trkpt lat="42.06768" lon="19.68156">
        <ele>138.08999633789</ele>
        <time>2023-10-01T15:23:14.000Z</time>
      </trkpt>
      <trkpt lat="42.06767" lon="19.68172">
        <ele>138.08999633789</ele>
        <time>2023-10-01T15:23:13.000Z</time>
      </trkpt>
      <trkpt lat="42.06765" lon="19.68183">
        <ele>138.08999633789</ele>
        <time>2023-10-01T15:23:12.000Z</time>
      </trkpt>
      <trkpt lat="42.06754" lon="19.68228">
        <ele>137.13000488281</ele>
        <time>2023-10-01T15:23:10.000Z</time>
      </trkpt>
      <trkpt lat="42.06752" lon="19.68236">
        <ele>136.63999938965</ele>
        <time>2023-10-01T15:23:09.000Z</time>
      </trkpt>
      <trkpt lat="42.06741" lon="19.68265">
        <ele>134.7200012207</ele>
        <time>2023-10-01T15:23:08.000Z</time>
      </trkpt>
      <trkpt lat="42.06735" lon="19.68277">
        <ele>133.75999450684</ele>
        <time>2023-10-01T15:23:07.000Z</time>
      </trkpt>
      <trkpt lat="42.0673" lon="19.68285">
        <ele>132.80000305176</ele>
        <time>2023-10-01T15:23:06.000Z</time>
      </trkpt>
      <trkpt lat="42.0672" lon="19.68302">
        <ele>131.36000061035</ele>
        <time>2023-10-01T15:23:05.000Z</time>
      </trkpt>
      <trkpt lat="42.06686" lon="19.68354">
        <ele>126.55000305176</ele>
        <time>2023-10-01T15:23:02.000Z</time>
      </trkpt>
      <trkpt lat="42.06679" lon="19.68366">
        <ele>125.58999633789</ele>
        <time>2023-10-01T15:23:01.000Z</time>
      </trkpt>
      <trkpt lat="42.06671" lon="19.68379">
        <ele>124.62999725342</ele>
        <time>2023-10-01T15:23:00.000Z</time>
      </trkpt>
      <trkpt lat="42.06666" lon="19.68386">
        <ele>124.15000152588</ele>
        <time>2023-10-01T15:22:59.000Z</time>
      </trkpt>
      <trkpt lat="42.0666" lon="19.68389">
        <ele>123.66999816895</ele>
        <time>2023-10-01T15:22:58.000Z</time>
      </trkpt>
      <trkpt lat="42.06653" lon="19.6839">
        <ele>123.19000244141</ele>
        <time>2023-10-01T15:22:57.000Z</time>
      </trkpt>
      <trkpt lat="42.06646" lon="19.68389">
        <ele>122.70999908447</ele>
        <time>2023-10-01T15:22:56.000Z</time>
      </trkpt>
      <trkpt lat="42.0664" lon="19.68386">
        <ele>122.70999908447</ele>
        <time>2023-10-01T15:22:55.000Z</time>
      </trkpt>
      <trkpt lat="42.06634" lon="19.68383">
        <ele>122.2200012207</ele>
        <time>2023-10-01T15:22:54.000Z</time>
      </trkpt>
      <trkpt lat="42.06628" lon="19.68381">
        <ele>122.2200012207</ele>
        <time>2023-10-01T15:22:53.000Z</time>
      </trkpt>
      <trkpt lat="42.06622" lon="19.68382">
        <ele>122.2200012207</ele>
        <time>2023-10-01T15:22:52.000Z</time>
      </trkpt>
      <trkpt lat="42.06618" lon="19.68385">
        <ele>121.73999786377</ele>
        <time>2023-10-01T15:22:51.000Z</time>
      </trkpt>
      <trkpt lat="42.06615" lon="19.68391">
        <ele>121.26000213623</ele>
        <time>2023-10-01T15:22:50.000Z</time>
      </trkpt>
      <trkpt lat="42.06614" lon="19.68399">
        <ele>120.7799987793</ele>
        <time>2023-10-01T15:22:49.000Z</time>
      </trkpt>
      <trkpt lat="42.06615" lon="19.68408">
        <ele>120.30000305176</ele>
        <time>2023-10-01T15:22:48.000Z</time>
      </trkpt>
      <trkpt lat="42.06619" lon="19.6842">
        <ele>119.33999633789</ele>
        <time>2023-10-01T15:22:47.000Z</time>
      </trkpt>
      <trkpt lat="42.06622" lon="19.68433">
        <ele>118.86000061035</ele>
        <time>2023-10-01T15:22:46.000Z</time>
      </trkpt>
      <trkpt lat="42.06623" lon="19.68448">
        <ele>118.37999725342</ele>
        <time>2023-10-01T15:22:45.000Z</time>
      </trkpt>
      <trkpt lat="42.06621" lon="19.68462">
        <ele>117.41999816895</ele>
        <time>2023-10-01T15:22:44.000Z</time>
      </trkpt>
      <trkpt lat="42.06615" lon="19.68476">
        <ele>115.98000335693</ele>
        <time>2023-10-01T15:22:43.000Z</time>
      </trkpt>
      <trkpt lat="42.06609" lon="19.68488">
        <ele>115.01000213623</ele>
        <time>2023-10-01T15:22:42.000Z</time>
      </trkpt>
      <trkpt lat="42.06575" lon="19.68539">
        <ele>112.12999725342</ele>
        <time>2023-10-01T15:22:39.000Z</time>
      </trkpt>
      <trkpt lat="42.06562" lon="19.68555">
        <ele>111.16999816895</ele>
        <time>2023-10-01T15:22:38.000Z</time>
      </trkpt>
      <trkpt lat="42.06546" lon="19.68572">
        <ele>110.20999908447</ele>
        <time>2023-10-01T15:22:37.000Z</time>
      </trkpt>
      <trkpt lat="42.06531" lon="19.68585">
        <ele>110.20999908447</ele>
        <time>2023-10-01T15:22:36.000Z</time>
      </trkpt>
      <trkpt lat="42.06448" lon="19.68644">
        <ele>108.29000091553</ele>
        <time>2023-10-01T15:22:31.000Z</time>
      </trkpt>
      <trkpt lat="42.06432" lon="19.68657">
        <ele>107.80999755859</ele>
        <time>2023-10-01T15:22:30.000Z</time>
      </trkpt>
      <trkpt lat="42.06424" lon="19.68665">
        <ele>107.31999969482</ele>
        <time>2023-10-01T15:22:29.000Z</time>
      </trkpt>
      <trkpt lat="42.06396" lon="19.68697">
        <ele>104.91999816895</ele>
        <time>2023-10-01T15:22:27.000Z</time>
      </trkpt>
      <trkpt lat="42.06386" lon="19.68707">
        <ele>104.44000244141</ele>
        <time>2023-10-01T15:22:26.000Z</time>
      </trkpt>
      <trkpt lat="42.06371" lon="19.68721">
        <ele>103.48000335693</ele>
        <time>2023-10-01T15:22:25.000Z</time>
      </trkpt>
      <trkpt lat="42.06362" lon="19.68729">
        <ele>103.95999908447</ele>
        <time>2023-10-01T15:22:24.000Z</time>
      </trkpt>
      <trkpt lat="42.06354" lon="19.68738">
        <ele>103.95999908447</ele>
        <time>2023-10-01T15:22:23.000Z</time>
      </trkpt>
      <trkpt lat="42.06351" lon="19.68748">
        <ele>104.44000244141</ele>
        <time>2023-10-01T15:22:22.000Z</time>
      </trkpt>
      <trkpt lat="42.0635" lon="19.68758">
        <ele>104.44000244141</ele>
        <time>2023-10-01T15:22:21.000Z</time>
      </trkpt>
      <trkpt lat="42.06351" lon="19.68768">
        <ele>104.44000244141</ele>
        <time>2023-10-01T15:22:20.000Z</time>
      </trkpt>
      <trkpt lat="42.06354" lon="19.68781">
        <ele>104.44000244141</ele>
        <time>2023-10-01T15:22:19.000Z</time>
      </trkpt>
      <trkpt lat="42.06357" lon="19.68789">
        <ele>104.44000244141</ele>
        <time>2023-10-01T15:22:18.000Z</time>
      </trkpt>
      <trkpt lat="42.06362" lon="19.68793">
        <ele>104.91999816895</ele>
        <time>2023-10-01T15:22:17.000Z</time>
      </trkpt>
      <trkpt lat="42.06371" lon="19.68794">
        <ele>104.91999816895</ele>
        <time>2023-10-01T15:22:16.000Z</time>
      </trkpt>
      <trkpt lat="42.06379" lon="19.68793">
        <ele>105.40000152588</ele>
        <time>2023-10-01T15:22:15.000Z</time>
      </trkpt>
      <trkpt lat="42.06389" lon="19.68791">
        <ele>104.91999816895</ele>
        <time>2023-10-01T15:22:14.000Z</time>
      </trkpt>
      <trkpt lat="42.06403" lon="19.68788">
        <ele>105.40000152588</ele>
        <time>2023-10-01T15:22:13.000Z</time>
      </trkpt>
      <trkpt lat="42.06412" lon="19.68786">
        <ele>105.87999725342</ele>
        <time>2023-10-01T15:22:12.000Z</time>
      </trkpt>
      <trkpt lat="42.06459" lon="19.6877">
        <ele>109.25</ele>
        <time>2023-10-01T15:22:09.000Z</time>
      </trkpt>
      <trkpt lat="42.06469" lon="19.68767">
        <ele>110.20999908447</ele>
        <time>2023-10-01T15:22:08.000Z</time>
      </trkpt>
      <trkpt lat="42.06483" lon="19.68766">
        <ele>111.16999816895</ele>
        <time>2023-10-01T15:22:07.000Z</time>
      </trkpt>
      <trkpt lat="42.06495" lon="19.68766">
        <ele>112.12999725342</ele>
        <time>2023-10-01T15:22:06.000Z</time>
      </trkpt>
      <trkpt lat="42.06506" lon="19.6877">
        <ele>112.61000061035</ele>
        <time>2023-10-01T15:22:05.000Z</time>
      </trkpt>
      <trkpt lat="42.06555" lon="19.68791">
        <ele>114.5299987793</ele>
        <time>2023-10-01T15:22:01.000Z</time>
      </trkpt>
      <trkpt lat="42.06665" lon="19.68841">
        <ele>115.5</ele>
        <time>2023-10-01T15:21:53.000Z</time>
      </trkpt>
      <trkpt lat="42.06676" lon="19.68849">
        <ele>115.01000213623</ele>
        <time>2023-10-01T15:21:52.000Z</time>
      </trkpt>
      <trkpt lat="42.06684" lon="19.68859">
        <ele>115.01000213623</ele>
        <time>2023-10-01T15:21:51.000Z</time>
      </trkpt>
      <trkpt lat="42.06689" lon="19.68872">
        <ele>114.5299987793</ele>
        <time>2023-10-01T15:21:50.000Z</time>
      </trkpt>
      <trkpt lat="42.06691" lon="19.68885">
        <ele>114.05000305176</ele>
        <time>2023-10-01T15:21:49.000Z</time>
      </trkpt>
      <trkpt lat="42.06692" lon="19.689">
        <ele>114.05000305176</ele>
        <time>2023-10-01T15:21:48.000Z</time>
      </trkpt>
      <trkpt lat="42.0669" lon="19.68913">
        <ele>113.08999633789</ele>
        <time>2023-10-01T15:21:47.000Z</time>
      </trkpt>
      <trkpt lat="42.06691" lon="19.68925">
        <ele>112.61000061035</ele>
        <time>2023-10-01T15:21:46.000Z</time>
      </trkpt>
      <trkpt lat="42.06694" lon="19.68935">
        <ele>112.12999725342</ele>
        <time>2023-10-01T15:21:45.000Z</time>
      </trkpt>
      <trkpt lat="42.06699" lon="19.68941">
        <ele>111.65000152588</ele>
        <time>2023-10-01T15:21:44.000Z</time>
      </trkpt>
      <trkpt lat="42.06705" lon="19.68943">
        <ele>111.65000152588</ele>
        <time>2023-10-01T15:21:43.000Z</time>
      </trkpt>
      <trkpt lat="42.06711" lon="19.68941">
        <ele>112.12999725342</ele>
        <time>2023-10-01T15:21:42.000Z</time>
      </trkpt>
      <trkpt lat="42.06717" lon="19.68934">
        <ele>112.12999725342</ele>
        <time>2023-10-01T15:21:41.000Z</time>
      </trkpt>
      <trkpt lat="42.06722" lon="19.68922">
        <ele>112.12999725342</ele>
        <time>2023-10-01T15:21:40.000Z</time>
      </trkpt>
      <trkpt lat="42.06724" lon="19.6892">
        <ele>112.12999725342</ele>
        <time>2023-10-01T15:21:39.000Z</time>
      </trkpt>
      <trkpt lat="42.06735" lon="19.68891">
        <ele>111.65000152588</ele>
        <time>2023-10-01T15:21:38.000Z</time>
      </trkpt>
      <trkpt lat="42.0674" lon="19.6888">
        <ele>111.65000152588</ele>
        <time>2023-10-01T15:21:37.000Z</time>
      </trkpt>
      <trkpt lat="42.06747" lon="19.68872">
        <ele>111.65000152588</ele>
        <time>2023-10-01T15:21:36.000Z</time>
      </trkpt>
      <trkpt lat="42.06754" lon="19.68868">
        <ele>111.65000152588</ele>
        <time>2023-10-01T15:21:35.000Z</time>
      </trkpt>
      <trkpt lat="42.06763" lon="19.6887">
        <ele>111.65000152588</ele>
        <time>2023-10-01T15:21:34.000Z</time>
      </trkpt>
      <trkpt lat="42.06771" lon="19.68875">
        <ele>112.12999725342</ele>
        <time>2023-10-01T15:21:33.000Z</time>
      </trkpt>
      <trkpt lat="42.06782" lon="19.68884">
        <ele>113.08999633789</ele>
        <time>2023-10-01T15:21:32.000Z</time>
      </trkpt>
      <trkpt lat="42.0679" lon="19.68892">
        <ele>113.08999633789</ele>
        <time>2023-10-01T15:21:31.000Z</time>
      </trkpt>
      <trkpt lat="42.06792" lon="19.68894">
        <ele>113.08999633789</ele>
        <time>2023-10-01T15:21:30.000Z</time>
      </trkpt>
      <trkpt lat="42.06814" lon="19.6892">
        <ele>113.08999633789</ele>
        <time>2023-10-01T15:21:28.000Z</time>
      </trkpt>
      <trkpt lat="42.06824" lon="19.68933">
        <ele>112.61000061035</ele>
        <time>2023-10-01T15:21:27.000Z</time>
      </trkpt>
      <trkpt lat="42.06831" lon="19.68942">
        <ele>112.61000061035</ele>
        <time>2023-10-01T15:21:26.000Z</time>
      </trkpt>
      <trkpt lat="42.06855" lon="19.68972">
        <ele>112.12999725342</ele>
        <time>2023-10-01T15:21:24.000Z</time>
      </trkpt>
      <trkpt lat="42.06864" lon="19.68985">
        <ele>112.12999725342</ele>
        <time>2023-10-01T15:21:23.000Z</time>
      </trkpt>
      <trkpt lat="42.06871" lon="19.68998">
        <ele>112.12999725342</ele>
        <time>2023-10-01T15:21:22.000Z</time>
      </trkpt>
      <trkpt lat="42.06879" lon="19.69012">
        <ele>112.61000061035</ele>
        <time>2023-10-01T15:21:21.000Z</time>
      </trkpt>
      <trkpt lat="42.06889" lon="19.69021">
        <ele>114.05000305176</ele>
        <time>2023-10-01T15:21:20.000Z</time>
      </trkpt>
      <trkpt lat="42.06901" lon="19.69027">
        <ele>115.5</ele>
        <time>2023-10-01T15:21:19.000Z</time>
      </trkpt>
      <trkpt lat="42.06912" lon="19.6903">
        <ele>116.45999908447</ele>
        <time>2023-10-01T15:21:18.000Z</time>
      </trkpt>
      <trkpt lat="42.06938" lon="19.69034">
        <ele>118.86000061035</ele>
        <time>2023-10-01T15:21:16.000Z</time>
      </trkpt>
      <trkpt lat="42.06947" lon="19.69039">
        <ele>119.81999969482</ele>
        <time>2023-10-01T15:21:15.000Z</time>
      </trkpt>
      <trkpt lat="42.06954" lon="19.69048">
        <ele>120.7799987793</ele>
        <time>2023-10-01T15:21:14.000Z</time>
      </trkpt>
      <trkpt lat="42.06959" lon="19.6906">
        <ele>121.73999786377</ele>
        <time>2023-10-01T15:21:13.000Z</time>
      </trkpt>
      <trkpt lat="42.06961" lon="19.69072">
        <ele>122.2200012207</ele>
        <time>2023-10-01T15:21:12.000Z</time>
      </trkpt>
      <trkpt lat="42.06963" lon="19.6909">
        <ele>123.66999816895</ele>
        <time>2023-10-01T15:21:11.000Z</time>
      </trkpt>
      <trkpt lat="42.06963" lon="19.69108">
        <ele>125.11000061035</ele>
        <time>2023-10-01T15:21:10.000Z</time>
      </trkpt>
      <trkpt lat="42.06961" lon="19.69125">
        <ele>126.06999969482</ele>
        <time>2023-10-01T15:21:09.000Z</time>
      </trkpt>
      <trkpt lat="42.06957" lon="19.69144">
        <ele>127.98999786377</ele>
        <time>2023-10-01T15:21:08.000Z</time>
      </trkpt>
      <trkpt lat="42.06955" lon="19.69159">
        <ele>128.4700012207</ele>
        <time>2023-10-01T15:21:07.000Z</time>
      </trkpt>
      <trkpt lat="42.06954" lon="19.69174">
        <ele>129.42999267578</ele>
        <time>2023-10-01T15:21:06.000Z</time>
      </trkpt>
      <trkpt lat="42.06955" lon="19.69188">
        <ele>129.91999816895</ele>
        <time>2023-10-01T15:21:05.000Z</time>
      </trkpt>
      <trkpt lat="42.06957" lon="19.692">
        <ele>130.88000488281</ele>
        <time>2023-10-01T15:21:04.000Z</time>
      </trkpt>
      <trkpt lat="42.06963" lon="19.69225">
        <ele>132.32000732422</ele>
        <time>2023-10-01T15:21:02.000Z</time>
      </trkpt>
      <trkpt lat="42.06965" lon="19.69239">
        <ele>132.80000305176</ele>
        <time>2023-10-01T15:21:01.000Z</time>
      </trkpt>
      <trkpt lat="42.06966" lon="19.69254">
        <ele>134.24000549316</ele>
        <time>2023-10-01T15:21:00.000Z</time>
      </trkpt>
      <trkpt lat="42.06966" lon="19.6928">
        <ele>135.67999267578</ele>
        <time>2023-10-01T15:20:58.000Z</time>
      </trkpt>
      <trkpt lat="42.06969" lon="19.69291">
        <ele>136.16000366211</ele>
        <time>2023-10-01T15:20:57.000Z</time>
      </trkpt>
      <trkpt lat="42.06974" lon="19.69299">
        <ele>137.13000488281</ele>
        <time>2023-10-01T15:20:56.000Z</time>
      </trkpt>
      <trkpt lat="42.06981" lon="19.69304">
        <ele>138.08999633789</ele>
        <time>2023-10-01T15:20:55.000Z</time>
      </trkpt>
      <trkpt lat="42.06987" lon="19.69304">
        <ele>138.57000732422</ele>
        <time>2023-10-01T15:20:54.000Z</time>
      </trkpt>
      <trkpt lat="42.06996" lon="19.69299">
        <ele>139.05000305176</ele>
        <time>2023-10-01T15:20:53.000Z</time>
      </trkpt>
      <trkpt lat="42.07039" lon="19.69256">
        <ele>142.41000366211</ele>
        <time>2023-10-01T15:20:48.000Z</time>
      </trkpt>
      <trkpt lat="42.07049" lon="19.69249">
        <ele>142.88999938965</ele>
        <time>2023-10-01T15:20:47.000Z</time>
      </trkpt>
      <trkpt lat="42.07053" lon="19.69247">
        <ele>143.36999511719</ele>
        <time>2023-10-01T15:20:46.000Z</time>
      </trkpt>
      <trkpt lat="42.07072" lon="19.69238">
        <ele>144.33999633789</ele>
        <time>2023-10-01T15:20:44.000Z</time>
      </trkpt>
      <trkpt lat="42.07072" lon="19.69238">
        <ele>140.00999450684</ele>
        <time>2023-10-01T14:03:32.000Z</time>
      </trkpt>
      <trkpt lat="42.07079" lon="19.69236">
        <ele>140.49000549316</ele>
        <time>2023-10-01T14:03:31.000Z</time>
      </trkpt>
      <trkpt lat="42.07086" lon="19.69236">
        <ele>140.49000549316</ele>
        <time>2023-10-01T14:03:30.000Z</time>
      </trkpt>
      <trkpt lat="42.07093" lon="19.69238">
        <ele>140.9700012207</ele>
        <time>2023-10-01T14:03:29.000Z</time>
      </trkpt>
      <trkpt lat="42.07098" lon="19.69245">
        <ele>140.9700012207</ele>
        <time>2023-10-01T14:03:28.000Z</time>
      </trkpt>
      <trkpt lat="42.07101" lon="19.69254">
        <ele>140.9700012207</ele>
        <time>2023-10-01T14:03:27.000Z</time>
      </trkpt>
      <trkpt lat="42.071" lon="19.69265">
        <ele>140.9700012207</ele>
        <time>2023-10-01T14:03:26.000Z</time>
      </trkpt>
      <trkpt lat="42.07097" lon="19.69277">
        <ele>140.49000549316</ele>
        <time>2023-10-01T14:03:25.000Z</time>
      </trkpt>
      <trkpt lat="42.07091" lon="19.69289">
        <ele>140.9700012207</ele>
        <time>2023-10-01T14:03:24.000Z</time>
      </trkpt>
      <trkpt lat="42.07087" lon="19.69297">
        <ele>140.9700012207</ele>
        <time>2023-10-01T14:03:23.000Z</time>
      </trkpt>
      <trkpt lat="42.07075" lon="19.69316">
        <ele>142.41000366211</ele>
        <time>2023-10-01T14:03:22.000Z</time>
      </trkpt>
      <trkpt lat="42.07065" lon="19.69329">
        <ele>143.36999511719</ele>
        <time>2023-10-01T14:03:21.000Z</time>
      </trkpt>
      <trkpt lat="42.07052" lon="19.69343">
        <ele>145.30000305176</ele>
        <time>2023-10-01T14:03:20.000Z</time>
      </trkpt>
      <trkpt lat="42.07041" lon="19.69353">
        <ele>146.25999450684</ele>
        <time>2023-10-01T14:03:19.000Z</time>
      </trkpt>
      <trkpt lat="42.07035" lon="19.69357">
        <ele>146.74000549316</ele>
        <time>2023-10-01T14:03:18.000Z</time>
      </trkpt>
      <trkpt lat="42.07014" lon="19.6937">
        <ele>148.66000366211</ele>
        <time>2023-10-01T14:03:17.000Z</time>
      </trkpt>
      <trkpt lat="42.07006" lon="19.6938">
        <ele>149.61999511719</ele>
        <time>2023-10-01T14:03:16.000Z</time>
      </trkpt>
      <trkpt lat="42.07003" lon="19.69392">
        <ele>150.58000183105</ele>
        <time>2023-10-01T14:03:15.000Z</time>
      </trkpt>
      <trkpt lat="42.07004" lon="19.69408">
        <ele>151.53999328613</ele>
        <time>2023-10-01T14:03:14.000Z</time>
      </trkpt>
      <trkpt lat="42.07007" lon="19.69426">
        <ele>152.50999450684</ele>
        <time>2023-10-01T14:03:13.000Z</time>
      </trkpt>
      <trkpt lat="42.07011" lon="19.69444">
        <ele>152.99000549316</ele>
        <time>2023-10-01T14:03:12.000Z</time>
      </trkpt>
      <trkpt lat="42.07011" lon="19.6946">
        <ele>153.4700012207</ele>
        <time>2023-10-01T14:03:11.000Z</time>
      </trkpt>
      <trkpt lat="42.07007" lon="19.69479">
        <ele>153.94999694824</ele>
        <time>2023-10-01T14:03:10.000Z</time>
      </trkpt>
      <trkpt lat="42.07004" lon="19.69488">
        <ele>153.94999694824</ele>
        <time>2023-10-01T14:03:09.000Z</time>
      </trkpt>
      <trkpt lat="42.06998" lon="19.69507">
        <ele>153.94999694824</ele>
        <time>2023-10-01T14:03:08.000Z</time>
      </trkpt>
      <trkpt lat="42.06985" lon="19.6954">
        <ele>155.86999511719</ele>
        <time>2023-10-01T14:03:07.000Z</time>
      </trkpt>
      <trkpt lat="42.06981" lon="19.69559">
        <ele>156.35000610352</ele>
        <time>2023-10-01T14:03:06.000Z</time>
      </trkpt>
      <trkpt lat="42.0698" lon="19.69576">
        <ele>156.35000610352</ele>
        <time>2023-10-01T14:03:05.000Z</time>
      </trkpt>
      <trkpt lat="42.06984" lon="19.69592">
        <ele>157.30999755859</ele>
        <time>2023-10-01T14:03:04.000Z</time>
      </trkpt>
      <trkpt lat="42.06986" lon="19.69595">
        <ele>157.78999328613</ele>
        <time>2023-10-01T14:03:03.000Z</time>
      </trkpt>
      <trkpt lat="42.07004" lon="19.69628">
        <ele>159.24000549316</ele>
        <time>2023-10-01T14:03:02.000Z</time>
      </trkpt>
      <trkpt lat="42.07006" lon="19.69635">
        <ele>159.7200012207</ele>
        <time>2023-10-01T14:03:01.000Z</time>
      </trkpt>
      <trkpt lat="42.0702" lon="19.69666">
        <ele>160.67999267578</ele>
        <time>2023-10-01T14:03:00.000Z</time>
      </trkpt>
      <trkpt lat="42.0703" lon="19.6968">
        <ele>161.63999938965</ele>
        <time>2023-10-01T14:02:59.000Z</time>
      </trkpt>
      <trkpt lat="42.0704" lon="19.6969">
        <ele>162.11999511719</ele>
        <time>2023-10-01T14:02:58.000Z</time>
      </trkpt>
      <trkpt lat="42.07048" lon="19.69701">
        <ele>162.11999511719</ele>
        <time>2023-10-01T14:02:57.000Z</time>
      </trkpt>
      <trkpt lat="42.0705" lon="19.69711">
        <ele>162.11999511719</ele>
        <time>2023-10-01T14:02:56.000Z</time>
      </trkpt>
      <trkpt lat="42.07049" lon="19.69726">
        <ele>162.11999511719</ele>
        <time>2023-10-01T14:02:55.000Z</time>
      </trkpt>
      <trkpt lat="42.07045" lon="19.69745">
        <ele>161.63999938965</ele>
        <time>2023-10-01T14:02:54.000Z</time>
      </trkpt>
      <trkpt lat="42.07043" lon="19.69761">
        <ele>161.63999938965</ele>
        <time>2023-10-01T14:02:53.000Z</time>
      </trkpt>
      <trkpt lat="42.07045" lon="19.69781">
        <ele>162.11999511719</ele>
        <time>2023-10-01T14:02:52.000Z</time>
      </trkpt>
      <trkpt lat="42.07055" lon="19.69828">
        <ele>162.11999511719</ele>
        <time>2023-10-01T14:02:50.000Z</time>
      </trkpt>
      <trkpt lat="42.07057" lon="19.69848">
        <ele>162.11999511719</ele>
        <time>2023-10-01T14:02:49.000Z</time>
      </trkpt>
      <trkpt lat="42.07058" lon="19.69876">
        <ele>161.16000366211</ele>
        <time>2023-10-01T14:02:48.000Z</time>
      </trkpt>
      <trkpt lat="42.0706" lon="19.69894">
        <ele>160.19999694824</ele>
        <time>2023-10-01T14:02:47.000Z</time>
      </trkpt>
      <trkpt lat="42.07064" lon="19.69908">
        <ele>160.19999694824</ele>
        <time>2023-10-01T14:02:46.000Z</time>
      </trkpt>
      <trkpt lat="42.07074" lon="19.69922">
        <ele>161.16000366211</ele>
        <time>2023-10-01T14:02:45.000Z</time>
      </trkpt>
      <trkpt lat="42.07087" lon="19.69935">
        <ele>162.11999511719</ele>
        <time>2023-10-01T14:02:44.000Z</time>
      </trkpt>
      <trkpt lat="42.07101" lon="19.69945">
        <ele>162.60000610352</ele>
        <time>2023-10-01T14:02:43.000Z</time>
      </trkpt>
      <trkpt lat="42.07112" lon="19.69954">
        <ele>163.08000183105</ele>
        <time>2023-10-01T14:02:42.000Z</time>
      </trkpt>
      <trkpt lat="42.0712" lon="19.69964">
        <ele>163.55999755859</ele>
        <time>2023-10-01T14:02:41.000Z</time>
      </trkpt>
      <trkpt lat="42.07125" lon="19.69976">
        <ele>163.55999755859</ele>
        <time>2023-10-01T14:02:40.000Z</time>
      </trkpt>
      <trkpt lat="42.07127" lon="19.69992">
        <ele>163.55999755859</ele>
        <time>2023-10-01T14:02:39.000Z</time>
      </trkpt>
      <trkpt lat="42.07127" lon="19.70006">
        <ele>163.55999755859</ele>
        <time>2023-10-01T14:02:38.000Z</time>
      </trkpt>
      <trkpt lat="42.07125" lon="19.7003">
        <ele>163.08000183105</ele>
        <time>2023-10-01T14:02:37.000Z</time>
      </trkpt>
      <trkpt lat="42.07126" lon="19.7005">
        <ele>162.60000610352</ele>
        <time>2023-10-01T14:02:36.000Z</time>
      </trkpt>
      <trkpt lat="42.07128" lon="19.7006">
        <ele>162.60000610352</ele>
        <time>2023-10-01T14:02:35.000Z</time>
      </trkpt>
      <trkpt lat="42.07135" lon="19.70091">
        <ele>163.08000183105</ele>
        <time>2023-10-01T14:02:34.000Z</time>
      </trkpt>
      <trkpt lat="42.07136" lon="19.70109">
        <ele>164.03999328613</ele>
        <time>2023-10-01T14:02:33.000Z</time>
      </trkpt>
      <trkpt lat="42.07134" lon="19.70127">
        <ele>165</ele>
        <time>2023-10-01T14:02:32.000Z</time>
      </trkpt>
      <trkpt lat="42.0713" lon="19.70148">
        <ele>166.44999694824</ele>
        <time>2023-10-01T14:02:31.000Z</time>
      </trkpt>
      <trkpt lat="42.07129" lon="19.70155">
        <ele>166.92999267578</ele>
        <time>2023-10-01T14:02:30.000Z</time>
      </trkpt>
      <trkpt lat="42.07107" lon="19.70231">
        <ele>171.72999572754</ele>
        <time>2023-10-01T14:02:27.000Z</time>
      </trkpt>
      <trkpt lat="42.07102" lon="19.70251">
        <ele>172.21000671387</ele>
        <time>2023-10-01T14:02:26.000Z</time>
      </trkpt>
      <trkpt lat="42.07101" lon="19.70263">
        <ele>172.69000244141</ele>
        <time>2023-10-01T14:02:25.000Z</time>
      </trkpt>
      <trkpt lat="42.071" lon="19.70287">
        <ele>174.13999938965</ele>
        <time>2023-10-01T14:02:24.000Z</time>
      </trkpt>
      <trkpt lat="42.07097" lon="19.70301">
        <ele>174.61999511719</ele>
        <time>2023-10-01T14:02:23.000Z</time>
      </trkpt>
      <trkpt lat="42.07091" lon="19.70312">
        <ele>175.10000610352</ele>
        <time>2023-10-01T14:02:22.000Z</time>
      </trkpt>
      <trkpt lat="42.07084" lon="19.7032">
        <ele>175.10000610352</ele>
        <time>2023-10-01T14:02:21.000Z</time>
      </trkpt>
      <trkpt lat="42.07079" lon="19.70325">
        <ele>175.58000183105</ele>
        <time>2023-10-01T14:02:20.000Z</time>
      </trkpt>
      <trkpt lat="42.07053" lon="19.70346">
        <ele>176.53999328613</ele>
        <time>2023-10-01T14:02:18.000Z</time>
      </trkpt>
      <trkpt lat="42.06989" lon="19.70412">
        <ele>183.27000427246</ele>
        <time>2023-10-01T14:02:14.000Z</time>
      </trkpt>
      <trkpt lat="42.06977" lon="19.70421">
        <ele>184.71000671387</ele>
        <time>2023-10-01T14:02:13.000Z</time>
      </trkpt>
      <trkpt lat="42.06969" lon="19.70426">
        <ele>185.19000244141</ele>
        <time>2023-10-01T14:02:12.000Z</time>
      </trkpt>
      <trkpt lat="42.06957" lon="19.70431">
        <ele>185.19000244141</ele>
        <time>2023-10-01T14:02:11.000Z</time>
      </trkpt>
      <trkpt lat="42.06951" lon="19.70436">
        <ele>185.19000244141</ele>
        <time>2023-10-01T14:02:10.000Z</time>
      </trkpt>
      <trkpt lat="42.06948" lon="19.70445">
        <ele>186.14999389648</ele>
        <time>2023-10-01T14:02:09.000Z</time>
      </trkpt>
      <trkpt lat="42.06949" lon="19.70456">
        <ele>186.63000488281</ele>
        <time>2023-10-01T14:02:08.000Z</time>
      </trkpt>
      <trkpt lat="42.06954" lon="19.70468">
        <ele>188.08000183105</ele>
        <time>2023-10-01T14:02:07.000Z</time>
      </trkpt>
      <trkpt lat="42.06962" lon="19.70478">
        <ele>188.55999755859</ele>
        <time>2023-10-01T14:02:06.000Z</time>
      </trkpt>
      <trkpt lat="42.06979" lon="19.70498">
        <ele>190.47999572754</ele>
        <time>2023-10-01T14:02:04.000Z</time>
      </trkpt>
      <trkpt lat="42.06998" lon="19.70521">
        <ele>192.88000488281</ele>
        <time>2023-10-01T14:02:03.000Z</time>
      </trkpt>
      <trkpt lat="42.07016" lon="19.70539">
        <ele>194.80000305176</ele>
        <time>2023-10-01T14:02:02.000Z</time>
      </trkpt>
      <trkpt lat="42.07027" lon="19.70549">
        <ele>195.77000427246</ele>
        <time>2023-10-01T14:02:01.000Z</time>
      </trkpt>
      <trkpt lat="42.07036" lon="19.70559">
        <ele>196.72999572754</ele>
        <time>2023-10-01T14:02:00.000Z</time>
      </trkpt>
      <trkpt lat="42.07041" lon="19.70571">
        <ele>197.69000244141</ele>
        <time>2023-10-01T14:01:59.000Z</time>
      </trkpt>
      <trkpt lat="42.07042" lon="19.70582">
        <ele>198.64999389648</ele>
        <time>2023-10-01T14:01:58.000Z</time>
      </trkpt>
      <trkpt lat="42.0704" lon="19.70596">
        <ele>199.13000488281</ele>
        <time>2023-10-01T14:01:57.000Z</time>
      </trkpt>
      <trkpt lat="42.07038" lon="19.70603">
        <ele>199.61000061035</ele>
        <time>2023-10-01T14:01:56.000Z</time>
      </trkpt>
      <trkpt lat="42.07022" lon="19.70652">
        <ele>200.57000732422</ele>
        <time>2023-10-01T14:01:54.000Z</time>
      </trkpt>
      <trkpt lat="42.07017" lon="19.70674">
        <ele>201.5299987793</ele>
        <time>2023-10-01T14:01:53.000Z</time>
      </trkpt>
      <trkpt lat="42.07015" lon="19.70694">
        <ele>202.97999572754</ele>
        <time>2023-10-01T14:01:52.000Z</time>
      </trkpt>
      <trkpt lat="42.07015" lon="19.70713">
        <ele>203.46000671387</ele>
        <time>2023-10-01T14:01:51.000Z</time>
      </trkpt>
      <trkpt lat="42.07019" lon="19.70729">
        <ele>204.41999816895</ele>
        <time>2023-10-01T14:01:50.000Z</time>
      </trkpt>
      <trkpt lat="42.07025" lon="19.70744">
        <ele>204.89999389648</ele>
        <time>2023-10-01T14:01:49.000Z</time>
      </trkpt>
      <trkpt lat="42.07033" lon="19.70756">
        <ele>205.38000488281</ele>
        <time>2023-10-01T14:01:48.000Z</time>
      </trkpt>
      <trkpt lat="42.07039" lon="19.70768">
        <ele>205.38000488281</ele>
        <time>2023-10-01T14:01:47.000Z</time>
      </trkpt>
      <trkpt lat="42.07042" lon="19.7078">
        <ele>205.86000061035</ele>
        <time>2023-10-01T14:01:46.000Z</time>
      </trkpt>
      <trkpt lat="42.0704" lon="19.70792">
        <ele>205.86000061035</ele>
        <time>2023-10-01T14:01:45.000Z</time>
      </trkpt>
      <trkpt lat="42.07036" lon="19.70805">
        <ele>206.33999633789</ele>
        <time>2023-10-01T14:01:44.000Z</time>
      </trkpt>
      <trkpt lat="42.07032" lon="19.70812">
        <ele>206.33999633789</ele>
        <time>2023-10-01T14:01:43.000Z</time>
      </trkpt>
      <trkpt lat="42.07022" lon="19.70829">
        <ele>206.33999633789</ele>
        <time>2023-10-01T14:01:42.000Z</time>
      </trkpt>
      <trkpt lat="42.07018" lon="19.70842">
        <ele>206.33999633789</ele>
        <time>2023-10-01T14:01:41.000Z</time>
      </trkpt>
      <trkpt lat="42.07018" lon="19.70857">
        <ele>207.30000305176</ele>
        <time>2023-10-01T14:01:40.000Z</time>
      </trkpt>
      <trkpt lat="42.07019" lon="19.70864">
        <ele>207.30000305176</ele>
        <time>2023-10-01T14:01:39.000Z</time>
      </trkpt>
      <trkpt lat="42.07023" lon="19.70894">
        <ele>208.74000549316</ele>
        <time>2023-10-01T14:01:38.000Z</time>
      </trkpt>
      <trkpt lat="42.07024" lon="19.70909">
        <ele>209.2200012207</ele>
        <time>2023-10-01T14:01:37.000Z</time>
      </trkpt>
      <trkpt lat="42.07023" lon="19.70922">
        <ele>209.2200012207</ele>
        <time>2023-10-01T14:01:36.000Z</time>
      </trkpt>
      <trkpt lat="42.07018" lon="19.7093">
        <ele>209.69999694824</ele>
        <time>2023-10-01T14:01:35.000Z</time>
      </trkpt>
      <trkpt lat="42.0701" lon="19.70936">
        <ele>210.19000244141</ele>
        <time>2023-10-01T14:01:34.000Z</time>
      </trkpt>
      <trkpt lat="42.07" lon="19.70939">
        <ele>210.19000244141</ele>
        <time>2023-10-01T14:01:33.000Z</time>
      </trkpt>
      <trkpt lat="42.06993" lon="19.7094">
        <ele>210.66999816895</ele>
        <time>2023-10-01T14:01:32.000Z</time>
      </trkpt>
      <trkpt lat="42.06969" lon="19.70943">
        <ele>210.66999816895</ele>
        <time>2023-10-01T14:01:31.000Z</time>
      </trkpt>
      <trkpt lat="42.06959" lon="19.70945">
        <ele>210.66999816895</ele>
        <time>2023-10-01T14:01:30.000Z</time>
      </trkpt>
      <trkpt lat="42.0695" lon="19.7095">
        <ele>210.66999816895</ele>
        <time>2023-10-01T14:01:29.000Z</time>
      </trkpt>
      <trkpt lat="42.06943" lon="19.70958">
        <ele>210.66999816895</ele>
        <time>2023-10-01T14:01:28.000Z</time>
      </trkpt>
      <trkpt lat="42.06938" lon="19.7097">
        <ele>211.14999389648</ele>
        <time>2023-10-01T14:01:27.000Z</time>
      </trkpt>
      <trkpt lat="42.06935" lon="19.70985">
        <ele>211.63000488281</ele>
        <time>2023-10-01T14:01:26.000Z</time>
      </trkpt>
      <trkpt lat="42.06936" lon="19.71003">
        <ele>212.11000061035</ele>
        <time>2023-10-01T14:01:25.000Z</time>
      </trkpt>
      <trkpt lat="42.06937" lon="19.71012">
        <ele>212.11000061035</ele>
        <time>2023-10-01T14:01:24.000Z</time>
      </trkpt>
      <trkpt lat="42.0694" lon="19.71038">
        <ele>212.11000061035</ele>
        <time>2023-10-01T14:01:23.000Z</time>
      </trkpt>
      <trkpt lat="42.0694" lon="19.71053">
        <ele>212.11000061035</ele>
        <time>2023-10-01T14:01:22.000Z</time>
      </trkpt>
      <trkpt lat="42.06938" lon="19.71065">
        <ele>212.11000061035</ele>
        <time>2023-10-01T14:01:21.000Z</time>
      </trkpt>
      <trkpt lat="42.06933" lon="19.71074">
        <ele>211.63000488281</ele>
        <time>2023-10-01T14:01:20.000Z</time>
      </trkpt>
      <trkpt lat="42.06926" lon="19.71081">
        <ele>211.63000488281</ele>
        <time>2023-10-01T14:01:19.000Z</time>
      </trkpt>
      <trkpt lat="42.06916" lon="19.71083">
        <ele>211.14999389648</ele>
        <time>2023-10-01T14:01:18.000Z</time>
      </trkpt>
      <trkpt lat="42.06905" lon="19.71083">
        <ele>210.66999816895</ele>
        <time>2023-10-01T14:01:17.000Z</time>
      </trkpt>
      <trkpt lat="42.0689" lon="19.71081">
        <ele>210.66999816895</ele>
        <time>2023-10-01T14:01:16.000Z</time>
      </trkpt>
      <trkpt lat="42.06879" lon="19.7108">
        <ele>210.19000244141</ele>
        <time>2023-10-01T14:01:15.000Z</time>
      </trkpt>
      <trkpt lat="42.0687" lon="19.71083">
        <ele>209.69999694824</ele>
        <time>2023-10-01T14:01:14.000Z</time>
      </trkpt>
      <trkpt lat="42.06862" lon="19.71092">
        <ele>209.2200012207</ele>
        <time>2023-10-01T14:01:13.000Z</time>
      </trkpt>
      <trkpt lat="42.06855" lon="19.71101">
        <ele>209.2200012207</ele>
        <time>2023-10-01T14:01:12.000Z</time>
      </trkpt>
      <trkpt lat="42.06834" lon="19.71134">
        <ele>208.25999450684</ele>
        <time>2023-10-01T14:01:10.000Z</time>
      </trkpt>
      <trkpt lat="42.06824" lon="19.71143">
        <ele>207.30000305176</ele>
        <time>2023-10-01T14:01:09.000Z</time>
      </trkpt>
      <trkpt lat="42.06814" lon="19.7115">
        <ele>206.33999633789</ele>
        <time>2023-10-01T14:01:08.000Z</time>
      </trkpt>
      <trkpt lat="42.06809" lon="19.71152">
        <ele>205.86000061035</ele>
        <time>2023-10-01T14:01:07.000Z</time>
      </trkpt>
      <trkpt lat="42.06787" lon="19.71159">
        <ele>203.94000244141</ele>
        <time>2023-10-01T14:01:06.000Z</time>
      </trkpt>
      <trkpt lat="42.06776" lon="19.71166">
        <ele>202.97999572754</ele>
        <time>2023-10-01T14:01:05.000Z</time>
      </trkpt>
      <trkpt lat="42.06767" lon="19.71176">
        <ele>202.49000549316</ele>
        <time>2023-10-01T14:01:04.000Z</time>
      </trkpt>
      <trkpt lat="42.06761" lon="19.71188">
        <ele>201.5299987793</ele>
        <time>2023-10-01T14:01:03.000Z</time>
      </trkpt>
      <trkpt lat="42.06759" lon="19.71199">
        <ele>201.05000305176</ele>
        <time>2023-10-01T14:01:02.000Z</time>
      </trkpt>
      <trkpt lat="42.0676" lon="19.71208">
        <ele>200.57000732422</ele>
        <time>2023-10-01T14:01:01.000Z</time>
      </trkpt>
      <trkpt lat="42.06764" lon="19.71218">
        <ele>200.08999633789</ele>
        <time>2023-10-01T14:01:00.000Z</time>
      </trkpt>
      <trkpt lat="42.06772" lon="19.71226">
        <ele>199.61000061035</ele>
        <time>2023-10-01T14:00:59.000Z</time>
      </trkpt>
      <trkpt lat="42.06781" lon="19.71234">
        <ele>198.64999389648</ele>
        <time>2023-10-01T14:00:58.000Z</time>
      </trkpt>
      <trkpt lat="42.06789" lon="19.71243">
        <ele>197.69000244141</ele>
        <time>2023-10-01T14:00:57.000Z</time>
      </trkpt>
      <trkpt lat="42.06795" lon="19.71256">
        <ele>196.72999572754</ele>
        <time>2023-10-01T14:00:56.000Z</time>
      </trkpt>
      <trkpt lat="42.06801" lon="19.71275">
        <ele>196.25</ele>
        <time>2023-10-01T14:00:55.000Z</time>
      </trkpt>
      <trkpt lat="42.06805" lon="19.71293">
        <ele>195.2799987793</ele>
        <time>2023-10-01T14:00:54.000Z</time>
      </trkpt>
      <trkpt lat="42.06806" lon="19.7131">
        <ele>194.32000732422</ele>
        <time>2023-10-01T14:00:53.000Z</time>
      </trkpt>
      <trkpt lat="42.06805" lon="19.71326">
        <ele>193.83999633789</ele>
        <time>2023-10-01T14:00:52.000Z</time>
      </trkpt>
      <trkpt lat="42.06804" lon="19.7134">
        <ele>193.36000061035</ele>
        <time>2023-10-01T14:00:51.000Z</time>
      </trkpt>
      <trkpt lat="42.06807" lon="19.71352">
        <ele>191.91999816895</ele>
        <time>2023-10-01T14:00:50.000Z</time>
      </trkpt>
      <trkpt lat="42.06812" lon="19.7136">
        <ele>191.44000244141</ele>
        <time>2023-10-01T14:00:49.000Z</time>
      </trkpt>
      <trkpt lat="42.06821" lon="19.71366">
        <ele>190.47999572754</ele>
        <time>2023-10-01T14:00:48.000Z</time>
      </trkpt>
      <trkpt lat="42.06825" lon="19.71368">
        <ele>190</ele>
        <time>2023-10-01T14:00:47.000Z</time>
      </trkpt>
      <trkpt lat="42.06841" lon="19.71374">
        <ele>189.03999328613</ele>
        <time>2023-10-01T14:00:46.000Z</time>
      </trkpt>
      <trkpt lat="42.06849" lon="19.71381">
        <ele>187.58999633789</ele>
        <time>2023-10-01T14:00:45.000Z</time>
      </trkpt>
      <trkpt lat="42.06856" lon="19.71392">
        <ele>186.63000488281</ele>
        <time>2023-10-01T14:00:44.000Z</time>
      </trkpt>
      <trkpt lat="42.06861" lon="19.71407">
        <ele>185.19000244141</ele>
        <time>2023-10-01T14:00:43.000Z</time>
      </trkpt>
      <trkpt lat="42.06865" lon="19.71422">
        <ele>183.75</ele>
        <time>2023-10-01T14:00:42.000Z</time>
      </trkpt>
      <trkpt lat="42.06868" lon="19.71437">
        <ele>182.78999328613</ele>
        <time>2023-10-01T14:00:41.000Z</time>
      </trkpt>
      <trkpt lat="42.06869" lon="19.71451">
        <ele>181.83000183105</ele>
        <time>2023-10-01T14:00:40.000Z</time>
      </trkpt>
      <trkpt lat="42.06866" lon="19.71465">
        <ele>180.86999511719</ele>
        <time>2023-10-01T14:00:39.000Z</time>
      </trkpt>
      <trkpt lat="42.0686" lon="19.71478">
        <ele>179.89999389648</ele>
        <time>2023-10-01T14:00:38.000Z</time>
      </trkpt>
      <trkpt lat="42.06851" lon="19.71489">
        <ele>179.41999816895</ele>
        <time>2023-10-01T14:00:37.000Z</time>
      </trkpt>
      <trkpt lat="42.06842" lon="19.71496">
        <ele>178.46000671387</ele>
        <time>2023-10-01T14:00:36.000Z</time>
      </trkpt>
      <trkpt lat="42.06832" lon="19.71501">
        <ele>177.5</ele>
        <time>2023-10-01T14:00:35.000Z</time>
      </trkpt>
      <trkpt lat="42.06756" lon="19.71534">
        <ele>172.69000244141</ele>
        <time>2023-10-01T14:00:31.000Z</time>
      </trkpt>
      <trkpt lat="42.06741" lon="19.71543">
        <ele>171.25</ele>
        <time>2023-10-01T14:00:30.000Z</time>
      </trkpt>
      <trkpt lat="42.0671" lon="19.71564">
        <ele>167.88999938965</ele>
        <time>2023-10-01T14:00:29.000Z</time>
      </trkpt>
      <trkpt lat="42.06698" lon="19.71573">
        <ele>166.92999267578</ele>
        <time>2023-10-01T14:00:28.000Z</time>
      </trkpt>
      <trkpt lat="42.06683" lon="19.71586">
        <ele>165.47999572754</ele>
        <time>2023-10-01T14:00:27.000Z</time>
      </trkpt>
      <trkpt lat="42.06662" lon="19.71606">
        <ele>164.03999328613</ele>
        <time>2023-10-01T14:00:26.000Z</time>
      </trkpt>
      <trkpt lat="42.06648" lon="19.71616">
        <ele>163.08000183105</ele>
        <time>2023-10-01T14:00:25.000Z</time>
      </trkpt>
      <trkpt lat="42.06633" lon="19.71624">
        <ele>161.63999938965</ele>
        <time>2023-10-01T14:00:24.000Z</time>
      </trkpt>
      <trkpt lat="42.06627" lon="19.71626">
        <ele>161.63999938965</ele>
        <time>2023-10-01T14:00:23.000Z</time>
      </trkpt>
      <trkpt lat="42.0655" lon="19.71648">
        <ele>160.19999694824</ele>
        <time>2023-10-01T14:00:19.000Z</time>
      </trkpt>
      <trkpt lat="42.06533" lon="19.7165">
        <ele>160.19999694824</ele>
        <time>2023-10-01T14:00:18.000Z</time>
      </trkpt>
      <trkpt lat="42.0652" lon="19.71648">
        <ele>160.67999267578</ele>
        <time>2023-10-01T14:00:17.000Z</time>
      </trkpt>
      <trkpt lat="42.06509" lon="19.71642">
        <ele>161.16000366211</ele>
        <time>2023-10-01T14:00:16.000Z</time>
      </trkpt>
      <trkpt lat="42.06498" lon="19.71633">
        <ele>161.16000366211</ele>
        <time>2023-10-01T14:00:15.000Z</time>
      </trkpt>
      <trkpt lat="42.06486" lon="19.71626">
        <ele>161.16000366211</ele>
        <time>2023-10-01T14:00:14.000Z</time>
      </trkpt>
      <trkpt lat="42.06472" lon="19.71623">
        <ele>160.67999267578</ele>
        <time>2023-10-01T14:00:13.000Z</time>
      </trkpt>
      <trkpt lat="42.06458" lon="19.71624">
        <ele>160.67999267578</ele>
        <time>2023-10-01T14:00:12.000Z</time>
      </trkpt>
      <trkpt lat="42.06442" lon="19.71629">
        <ele>160.19999694824</ele>
        <time>2023-10-01T14:00:11.000Z</time>
      </trkpt>
      <trkpt lat="42.06434" lon="19.71632">
        <ele>160.19999694824</ele>
        <time>2023-10-01T14:00:10.000Z</time>
      </trkpt>
      <trkpt lat="42.06419" lon="19.71638">
        <ele>159.24000549316</ele>
        <time>2023-10-01T14:00:09.000Z</time>
      </trkpt>
      <trkpt lat="42.06391" lon="19.7165">
        <ele>157.78999328613</ele>
        <time>2023-10-01T14:00:08.000Z</time>
      </trkpt>
      <trkpt lat="42.06382" lon="19.71653">
        <ele>157.30999755859</ele>
        <time>2023-10-01T14:00:07.000Z</time>
      </trkpt>
      <trkpt lat="42.06357" lon="19.71661">
        <ele>155.38999938965</ele>
        <time>2023-10-01T14:00:06.000Z</time>
      </trkpt>
      <trkpt lat="42.06336" lon="19.71668">
        <ele>153.4700012207</ele>
        <time>2023-10-01T14:00:04.000Z</time>
      </trkpt>
      <trkpt lat="42.06318" lon="19.71674">
        <ele>152.0299987793</ele>
        <time>2023-10-01T14:00:03.000Z</time>
      </trkpt>
      <trkpt lat="42.06311" lon="19.7168">
        <ele>151.53999328613</ele>
        <time>2023-10-01T14:00:02.000Z</time>
      </trkpt>
      <trkpt lat="42.06306" lon="19.71691">
        <ele>151.05999755859</ele>
        <time>2023-10-01T14:00:01.000Z</time>
      </trkpt>
      <trkpt lat="42.06304" lon="19.71706">
        <ele>150.58000183105</ele>
        <time>2023-10-01T14:00:00.000Z</time>
      </trkpt>
      <trkpt lat="42.06304" lon="19.71725">
        <ele>150.10000610352</ele>
        <time>2023-10-01T13:59:59.000Z</time>
      </trkpt>
      <trkpt lat="42.06306" lon="19.71742">
        <ele>150.10000610352</ele>
        <time>2023-10-01T13:59:58.000Z</time>
      </trkpt>
      <trkpt lat="42.06308" lon="19.71757">
        <ele>150.10000610352</ele>
        <time>2023-10-01T13:59:57.000Z</time>
      </trkpt>
      <trkpt lat="42.06312" lon="19.71768">
        <ele>150.10000610352</ele>
        <time>2023-10-01T13:59:56.000Z</time>
      </trkpt>
      <trkpt lat="42.06319" lon="19.71776">
        <ele>150.58000183105</ele>
        <time>2023-10-01T13:59:55.000Z</time>
      </trkpt>
      <trkpt lat="42.0633" lon="19.71784">
        <ele>150.58000183105</ele>
        <time>2023-10-01T13:59:54.000Z</time>
      </trkpt>
      <trkpt lat="42.06341" lon="19.71789">
        <ele>150.58000183105</ele>
        <time>2023-10-01T13:59:53.000Z</time>
      </trkpt>
      <trkpt lat="42.06371" lon="19.71802">
        <ele>151.53999328613</ele>
        <time>2023-10-01T13:59:51.000Z</time>
      </trkpt>
      <trkpt lat="42.06383" lon="19.71807">
        <ele>152.0299987793</ele>
        <time>2023-10-01T13:59:50.000Z</time>
      </trkpt>
      <trkpt lat="42.0644" lon="19.71837">
        <ele>155.38999938965</ele>
        <time>2023-10-01T13:59:47.000Z</time>
      </trkpt>
      <trkpt lat="42.06465" lon="19.71849">
        <ele>157.30999755859</ele>
        <time>2023-10-01T13:59:45.000Z</time>
      </trkpt>
      <trkpt lat="42.06473" lon="19.71857">
        <ele>157.78999328613</ele>
        <time>2023-10-01T13:59:44.000Z</time>
      </trkpt>
      <trkpt lat="42.06479" lon="19.71868">
        <ele>157.78999328613</ele>
        <time>2023-10-01T13:59:43.000Z</time>
      </trkpt>
      <trkpt lat="42.06482" lon="19.71876">
        <ele>157.78999328613</ele>
        <time>2023-10-01T13:59:42.000Z</time>
      </trkpt>
      <trkpt lat="42.06484" lon="19.71885">
        <ele>158.27000427246</ele>
        <time>2023-10-01T13:59:41.000Z</time>
      </trkpt>
      <trkpt lat="42.06489" lon="19.71908">
        <ele>158.27000427246</ele>
        <time>2023-10-01T13:59:40.000Z</time>
      </trkpt>
      <trkpt lat="42.06493" lon="19.71917">
        <ele>159.24000549316</ele>
        <time>2023-10-01T13:59:39.000Z</time>
      </trkpt>
      <trkpt lat="42.06499" lon="19.71922">
        <ele>160.19999694824</ele>
        <time>2023-10-01T13:59:38.000Z</time>
      </trkpt>
      <trkpt lat="42.06506" lon="19.71922">
        <ele>161.16000366211</ele>
        <time>2023-10-01T13:59:37.000Z</time>
      </trkpt>
      <trkpt lat="42.06514" lon="19.71919">
        <ele>161.63999938965</ele>
        <time>2023-10-01T13:59:36.000Z</time>
      </trkpt>
      <trkpt lat="42.06522" lon="19.71912">
        <ele>162.60000610352</ele>
        <time>2023-10-01T13:59:35.000Z</time>
      </trkpt>
      <trkpt lat="42.06533" lon="19.71906">
        <ele>163.55999755859</ele>
        <time>2023-10-01T13:59:34.000Z</time>
      </trkpt>
      <trkpt lat="42.06543" lon="19.71903">
        <ele>164.03999328613</ele>
        <time>2023-10-01T13:59:33.000Z</time>
      </trkpt>
      <trkpt lat="42.06553" lon="19.71905">
        <ele>165</ele>
        <time>2023-10-01T13:59:32.000Z</time>
      </trkpt>
      <trkpt lat="42.06562" lon="19.7191">
        <ele>165.47999572754</ele>
        <time>2023-10-01T13:59:31.000Z</time>
      </trkpt>
      <trkpt lat="42.06568" lon="19.71915">
        <ele>165.96000671387</ele>
        <time>2023-10-01T13:59:30.000Z</time>
      </trkpt>
      <trkpt lat="42.06642" lon="19.71992">
        <ele>173.66000366211</ele>
        <time>2023-10-01T13:59:24.000Z</time>
      </trkpt>
      <trkpt lat="42.06722" lon="19.72094">
        <ele>184.22999572754</ele>
        <time>2023-10-01T13:59:17.000Z</time>
      </trkpt>
      <trkpt lat="42.06747" lon="19.72122">
        <ele>186.14999389648</ele>
        <time>2023-10-01T13:59:15.000Z</time>
      </trkpt>
      <trkpt lat="42.06758" lon="19.72128">
        <ele>186.63000488281</ele>
        <time>2023-10-01T13:59:14.000Z</time>
      </trkpt>
      <trkpt lat="42.06778" lon="19.72137">
        <ele>187.58999633789</ele>
        <time>2023-10-01T13:59:12.000Z</time>
      </trkpt>
      <trkpt lat="42.06788" lon="19.72145">
        <ele>187.58999633789</ele>
        <time>2023-10-01T13:59:11.000Z</time>
      </trkpt>
      <trkpt lat="42.06798" lon="19.72157">
        <ele>188.08000183105</ele>
        <time>2023-10-01T13:59:10.000Z</time>
      </trkpt>
      <trkpt lat="42.06809" lon="19.72167">
        <ele>188.55999755859</ele>
        <time>2023-10-01T13:59:09.000Z</time>
      </trkpt>
      <trkpt lat="42.06818" lon="19.72173">
        <ele>189.03999328613</ele>
        <time>2023-10-01T13:59:08.000Z</time>
      </trkpt>
      <trkpt lat="42.06829" lon="19.72179">
        <ele>189.03999328613</ele>
        <time>2023-10-01T13:59:07.000Z</time>
      </trkpt>
      <trkpt lat="42.06844" lon="19.72185">
        <ele>189.52000427246</ele>
        <time>2023-10-01T13:59:06.000Z</time>
      </trkpt>
      <trkpt lat="42.06881" lon="19.72202">
        <ele>190</ele>
        <time>2023-10-01T13:59:03.000Z</time>
      </trkpt>
      <trkpt lat="42.06906" lon="19.72211">
        <ele>190.96000671387</ele>
        <time>2023-10-01T13:59:01.000Z</time>
      </trkpt>
      <trkpt lat="42.06913" lon="19.72215">
        <ele>190.96000671387</ele>
        <time>2023-10-01T13:59:00.000Z</time>
      </trkpt>
      <trkpt lat="42.06918" lon="19.72219">
        <ele>190.96000671387</ele>
        <time>2023-10-01T13:58:59.000Z</time>
      </trkpt>
      <trkpt lat="42.06923" lon="19.72224">
        <ele>190.96000671387</ele>
        <time>2023-10-01T13:58:58.000Z</time>
      </trkpt>
      <trkpt lat="42.06928" lon="19.72228">
        <ele>190.47999572754</ele>
        <time>2023-10-01T13:58:57.000Z</time>
      </trkpt>
      <trkpt lat="42.06933" lon="19.72232">
        <ele>190.96000671387</ele>
        <time>2023-10-01T13:58:56.000Z</time>
      </trkpt>
      <trkpt lat="42.06936" lon="19.72237">
        <ele>190.47999572754</ele>
        <time>2023-10-01T13:58:55.000Z</time>
      </trkpt>
      <trkpt lat="42.06941" lon="19.72245">
        <ele>190</ele>
        <time>2023-10-01T13:58:54.000Z</time>
      </trkpt>
      <trkpt lat="42.06945" lon="19.72254">
        <ele>190</ele>
        <time>2023-10-01T13:58:53.000Z</time>
      </trkpt>
      <trkpt lat="42.06975" lon="19.72334">
        <ele>192.39999389648</ele>
        <time>2023-10-01T13:58:48.000Z</time>
      </trkpt>
      <trkpt lat="42.06982" lon="19.72361">
        <ele>193.36000061035</ele>
        <time>2023-10-01T13:58:47.000Z</time>
      </trkpt>
      <trkpt lat="42.06986" lon="19.72379">
        <ele>194.32000732422</ele>
        <time>2023-10-01T13:58:46.000Z</time>
      </trkpt>
      <trkpt lat="42.06988" lon="19.72397">
        <ele>195.2799987793</ele>
        <time>2023-10-01T13:58:45.000Z</time>
      </trkpt>
      <trkpt lat="42.06987" lon="19.72414">
        <ele>196.25</ele>
        <time>2023-10-01T13:58:44.000Z</time>
      </trkpt>
      <trkpt lat="42.06983" lon="19.7243">
        <ele>196.72999572754</ele>
        <time>2023-10-01T13:58:43.000Z</time>
      </trkpt>
      <trkpt lat="42.06976" lon="19.72445">
        <ele>197.21000671387</ele>
        <time>2023-10-01T13:58:42.000Z</time>
      </trkpt>
      <trkpt lat="42.06971" lon="19.72454">
        <ele>197.21000671387</ele>
        <time>2023-10-01T13:58:41.000Z</time>
      </trkpt>
      <trkpt lat="42.06948" lon="19.72489">
        <ele>198.16999816895</ele>
        <time>2023-10-01T13:58:39.000Z</time>
      </trkpt>
      <trkpt lat="42.06939" lon="19.72504">
        <ele>198.64999389648</ele>
        <time>2023-10-01T13:58:38.000Z</time>
      </trkpt>
      <trkpt lat="42.06935" lon="19.72516">
        <ele>198.64999389648</ele>
        <time>2023-10-01T13:58:37.000Z</time>
      </trkpt>
      <trkpt lat="42.06935" lon="19.72527">
        <ele>199.13000488281</ele>
        <time>2023-10-01T13:58:36.000Z</time>
      </trkpt>
      <trkpt lat="42.06938" lon="19.72538">
        <ele>199.61000061035</ele>
        <time>2023-10-01T13:58:35.000Z</time>
      </trkpt>
      <trkpt lat="42.06942" lon="19.72546">
        <ele>200.08999633789</ele>
        <time>2023-10-01T13:58:34.000Z</time>
      </trkpt>
      <trkpt lat="42.06971" lon="19.72595">
        <ele>202.00999450684</ele>
        <time>2023-10-01T13:58:31.000Z</time>
      </trkpt>
      <trkpt lat="42.06988" lon="19.72622">
        <ele>201.5299987793</ele>
        <time>2023-10-01T13:58:30.000Z</time>
      </trkpt>
      <trkpt lat="42.07001" lon="19.72637">
        <ele>201.5299987793</ele>
        <time>2023-10-01T13:58:29.000Z</time>
      </trkpt>
      <trkpt lat="42.07013" lon="19.72649">
        <ele>201.5299987793</ele>
        <time>2023-10-01T13:58:28.000Z</time>
      </trkpt>
      <trkpt lat="42.07024" lon="19.72657">
        <ele>201.5299987793</ele>
        <time>2023-10-01T13:58:27.000Z</time>
      </trkpt>
      <trkpt lat="42.07034" lon="19.7266">
        <ele>201.05000305176</ele>
        <time>2023-10-01T13:58:26.000Z</time>
      </trkpt>
      <trkpt lat="42.07044" lon="19.7266">
        <ele>201.05000305176</ele>
        <time>2023-10-01T13:58:25.000Z</time>
      </trkpt>
      <trkpt lat="42.07052" lon="19.72656">
        <ele>200.57000732422</ele>
        <time>2023-10-01T13:58:24.000Z</time>
      </trkpt>
      <trkpt lat="42.07059" lon="19.72647">
        <ele>200.57000732422</ele>
        <time>2023-10-01T13:58:23.000Z</time>
      </trkpt>
      <trkpt lat="42.07065" lon="19.72635">
        <ele>200.08999633789</ele>
        <time>2023-10-01T13:58:22.000Z</time>
      </trkpt>
      <trkpt lat="42.07071" lon="19.72621">
        <ele>199.13000488281</ele>
        <time>2023-10-01T13:58:21.000Z</time>
      </trkpt>
      <trkpt lat="42.07086" lon="19.72583">
        <ele>197.21000671387</ele>
        <time>2023-10-01T13:58:19.000Z</time>
      </trkpt>
      <trkpt lat="42.07094" lon="19.72562">
        <ele>197.21000671387</ele>
        <time>2023-10-01T13:58:18.000Z</time>
      </trkpt>
      <trkpt lat="42.07102" lon="19.72549">
        <ele>196.72999572754</ele>
        <time>2023-10-01T13:58:17.000Z</time>
      </trkpt>
      <trkpt lat="42.07108" lon="19.7254">
        <ele>196.72999572754</ele>
        <time>2023-10-01T13:58:16.000Z</time>
      </trkpt>
      <trkpt lat="42.07118" lon="19.7253">
        <ele>196.72999572754</ele>
        <time>2023-10-01T13:58:15.000Z</time>
      </trkpt>
      <trkpt lat="42.07141" lon="19.72508">
        <ele>196.72999572754</ele>
        <time>2023-10-01T13:58:13.000Z</time>
      </trkpt>
      <trkpt lat="42.0715" lon="19.72501">
        <ele>196.72999572754</ele>
        <time>2023-10-01T13:58:12.000Z</time>
      </trkpt>
      <trkpt lat="42.07159" lon="19.72496">
        <ele>196.72999572754</ele>
        <time>2023-10-01T13:58:11.000Z</time>
      </trkpt>
      <trkpt lat="42.07168" lon="19.72494">
        <ele>197.21000671387</ele>
        <time>2023-10-01T13:58:10.000Z</time>
      </trkpt>
      <trkpt lat="42.07178" lon="19.72495">
        <ele>197.21000671387</ele>
        <time>2023-10-01T13:58:09.000Z</time>
      </trkpt>
      <trkpt lat="42.0719" lon="19.72499">
        <ele>197.21000671387</ele>
        <time>2023-10-01T13:58:08.000Z</time>
      </trkpt>
      <trkpt lat="42.07203" lon="19.72508">
        <ele>197.21000671387</ele>
        <time>2023-10-01T13:58:07.000Z</time>
      </trkpt>
      <trkpt lat="42.07216" lon="19.72518">
        <ele>197.69000244141</ele>
        <time>2023-10-01T13:58:06.000Z</time>
      </trkpt>
      <trkpt lat="42.07226" lon="19.72529">
        <ele>197.69000244141</ele>
        <time>2023-10-01T13:58:05.000Z</time>
      </trkpt>
      <trkpt lat="42.07233" lon="19.72542">
        <ele>197.69000244141</ele>
        <time>2023-10-01T13:58:04.000Z</time>
      </trkpt>
      <trkpt lat="42.07239" lon="19.72551">
        <ele>197.69000244141</ele>
        <time>2023-10-01T13:58:03.000Z</time>
      </trkpt>
      <trkpt lat="42.07248" lon="19.72557">
        <ele>198.16999816895</ele>
        <time>2023-10-01T13:58:02.000Z</time>
      </trkpt>
      <trkpt lat="42.07258" lon="19.72559">
        <ele>198.16999816895</ele>
        <time>2023-10-01T13:58:01.000Z</time>
      </trkpt>
      <trkpt lat="42.07269" lon="19.72557">
        <ele>198.16999816895</ele>
        <time>2023-10-01T13:58:00.000Z</time>
      </trkpt>
      <trkpt lat="42.0728" lon="19.72553">
        <ele>198.16999816895</ele>
        <time>2023-10-01T13:57:59.000Z</time>
      </trkpt>
      <trkpt lat="42.07291" lon="19.7255">
        <ele>198.16999816895</ele>
        <time>2023-10-01T13:57:58.000Z</time>
      </trkpt>
      <trkpt lat="42.073" lon="19.72552">
        <ele>198.16999816895</ele>
        <time>2023-10-01T13:57:57.000Z</time>
      </trkpt>
      <trkpt lat="42.07308" lon="19.72559">
        <ele>198.64999389648</ele>
        <time>2023-10-01T13:57:56.000Z</time>
      </trkpt>
      <trkpt lat="42.07315" lon="19.72571">
        <ele>198.16999816895</ele>
        <time>2023-10-01T13:57:55.000Z</time>
      </trkpt>
      <trkpt lat="42.07322" lon="19.72585">
        <ele>198.16999816895</ele>
        <time>2023-10-01T13:57:54.000Z</time>
      </trkpt>
      <trkpt lat="42.07326" lon="19.726">
        <ele>198.16999816895</ele>
        <time>2023-10-01T13:57:53.000Z</time>
      </trkpt>
      <trkpt lat="42.07328" lon="19.72616">
        <ele>197.69000244141</ele>
        <time>2023-10-01T13:57:52.000Z</time>
      </trkpt>
      <trkpt lat="42.07327" lon="19.72628">
        <ele>197.69000244141</ele>
        <time>2023-10-01T13:57:51.000Z</time>
      </trkpt>
      <trkpt lat="42.07324" lon="19.72674">
        <ele>199.61000061035</ele>
        <time>2023-10-01T13:57:49.000Z</time>
      </trkpt>
      <trkpt lat="42.07322" lon="19.72687">
        <ele>200.08999633789</ele>
        <time>2023-10-01T13:57:48.000Z</time>
      </trkpt>
      <trkpt lat="42.07315" lon="19.72724">
        <ele>201.5299987793</ele>
        <time>2023-10-01T13:57:46.000Z</time>
      </trkpt>
      <trkpt lat="42.07313" lon="19.72741">
        <ele>202.00999450684</ele>
        <time>2023-10-01T13:57:45.000Z</time>
      </trkpt>
      <trkpt lat="42.07312" lon="19.72753">
        <ele>202.49000549316</ele>
        <time>2023-10-01T13:57:44.000Z</time>
      </trkpt>
      <trkpt lat="42.07313" lon="19.72771">
        <ele>203.46000671387</ele>
        <time>2023-10-01T13:57:43.000Z</time>
      </trkpt>
      <trkpt lat="42.07315" lon="19.72781">
        <ele>203.46000671387</ele>
        <time>2023-10-01T13:57:42.000Z</time>
      </trkpt>
      <trkpt lat="42.07317" lon="19.72795">
        <ele>203.94000244141</ele>
        <time>2023-10-01T13:57:41.000Z</time>
      </trkpt>
      <trkpt lat="42.07319" lon="19.72804">
        <ele>203.94000244141</ele>
        <time>2023-10-01T13:57:40.000Z</time>
      </trkpt>
      <trkpt lat="42.07325" lon="19.72812">
        <ele>204.41999816895</ele>
        <time>2023-10-01T13:57:39.000Z</time>
      </trkpt>
      <trkpt lat="42.07332" lon="19.72818">
        <ele>204.41999816895</ele>
        <time>2023-10-01T13:57:38.000Z</time>
      </trkpt>
      <trkpt lat="42.07339" lon="19.72821">
        <ele>204.41999816895</ele>
        <time>2023-10-01T13:57:37.000Z</time>
      </trkpt>
      <trkpt lat="42.07346" lon="19.72822">
        <ele>204.41999816895</ele>
        <time>2023-10-01T13:57:36.000Z</time>
      </trkpt>
      <trkpt lat="42.07355" lon="19.72822">
        <ele>204.89999389648</ele>
        <time>2023-10-01T13:57:35.000Z</time>
      </trkpt>
      <trkpt lat="42.07359" lon="19.72821">
        <ele>204.89999389648</ele>
        <time>2023-10-01T13:57:34.000Z</time>
      </trkpt>
      <trkpt lat="42.07381" lon="19.72817">
        <ele>204.89999389648</ele>
        <time>2023-10-01T13:57:32.000Z</time>
      </trkpt>
      <trkpt lat="42.07392" lon="19.72816">
        <ele>204.89999389648</ele>
        <time>2023-10-01T13:57:31.000Z</time>
      </trkpt>
      <trkpt lat="42.07403" lon="19.72817">
        <ele>204.89999389648</ele>
        <time>2023-10-01T13:57:30.000Z</time>
      </trkpt>
      <trkpt lat="42.07414" lon="19.72823">
        <ele>204.89999389648</ele>
        <time>2023-10-01T13:57:29.000Z</time>
      </trkpt>
      <trkpt lat="42.07426" lon="19.72833">
        <ele>205.38000488281</ele>
        <time>2023-10-01T13:57:28.000Z</time>
      </trkpt>
      <trkpt lat="42.07465" lon="19.72871">
        <ele>206.82000732422</ele>
        <time>2023-10-01T13:57:24.000Z</time>
      </trkpt>
      <trkpt lat="42.07474" lon="19.72874">
        <ele>206.82000732422</ele>
        <time>2023-10-01T13:57:23.000Z</time>
      </trkpt>
      <trkpt lat="42.07485" lon="19.7287">
        <ele>207.30000305176</ele>
        <time>2023-10-01T13:57:22.000Z</time>
      </trkpt>
      <trkpt lat="42.07496" lon="19.72863">
        <ele>207.30000305176</ele>
        <time>2023-10-01T13:57:21.000Z</time>
      </trkpt>
      <trkpt lat="42.07508" lon="19.72854">
        <ele>206.33999633789</ele>
        <time>2023-10-01T13:57:20.000Z</time>
      </trkpt>
      <trkpt lat="42.07519" lon="19.72848">
        <ele>205.86000061035</ele>
        <time>2023-10-01T13:57:19.000Z</time>
      </trkpt>
      <trkpt lat="42.07529" lon="19.72846">
        <ele>205.38000488281</ele>
        <time>2023-10-01T13:57:18.000Z</time>
      </trkpt>
      <trkpt lat="42.07538" lon="19.7285">
        <ele>204.89999389648</ele>
        <time>2023-10-01T13:57:17.000Z</time>
      </trkpt>
      <trkpt lat="42.07546" lon="19.72859">
        <ele>203.94000244141</ele>
        <time>2023-10-01T13:57:16.000Z</time>
      </trkpt>
      <trkpt lat="42.07551" lon="19.7287">
        <ele>203.46000671387</ele>
        <time>2023-10-01T13:57:15.000Z</time>
      </trkpt>
      <trkpt lat="42.07576" lon="19.72932">
        <ele>200.08999633789</ele>
        <time>2023-10-01T13:57:12.000Z</time>
      </trkpt>
      <trkpt lat="42.07581" lon="19.72951">
        <ele>199.13000488281</ele>
        <time>2023-10-01T13:57:11.000Z</time>
      </trkpt>
      <trkpt lat="42.07583" lon="19.72968">
        <ele>198.16999816895</ele>
        <time>2023-10-01T13:57:10.000Z</time>
      </trkpt>
      <trkpt lat="42.07583" lon="19.72982">
        <ele>197.21000671387</ele>
        <time>2023-10-01T13:57:09.000Z</time>
      </trkpt>
      <trkpt lat="42.0758" lon="19.72995">
        <ele>196.25</ele>
        <time>2023-10-01T13:57:08.000Z</time>
      </trkpt>
      <trkpt lat="42.07576" lon="19.73005">
        <ele>195.2799987793</ele>
        <time>2023-10-01T13:57:07.000Z</time>
      </trkpt>
      <trkpt lat="42.07568" lon="19.73018">
        <ele>193.83999633789</ele>
        <time>2023-10-01T13:57:06.000Z</time>
      </trkpt>
      <trkpt lat="42.07561" lon="19.73028">
        <ele>192.88000488281</ele>
        <time>2023-10-01T13:57:05.000Z</time>
      </trkpt>
      <trkpt lat="42.07542" lon="19.73057">
        <ele>190</ele>
        <time>2023-10-01T13:57:03.000Z</time>
      </trkpt>
      <trkpt lat="42.07539" lon="19.73061">
        <ele>190</ele>
        <time>2023-10-01T13:57:02.000Z</time>
      </trkpt>
      <trkpt lat="42.07531" lon="19.73078">
        <ele>188.55999755859</ele>
        <time>2023-10-01T13:57:01.000Z</time>
      </trkpt>
      <trkpt lat="42.07529" lon="19.73086">
        <ele>187.58999633789</ele>
        <time>2023-10-01T13:57:00.000Z</time>
      </trkpt>
      <trkpt lat="42.0753" lon="19.73096">
        <ele>187.11000061035</ele>
        <time>2023-10-01T13:56:59.000Z</time>
      </trkpt>
      <trkpt lat="42.07535" lon="19.73107">
        <ele>186.63000488281</ele>
        <time>2023-10-01T13:56:58.000Z</time>
      </trkpt>
      <trkpt lat="42.07543" lon="19.73117">
        <ele>186.14999389648</ele>
        <time>2023-10-01T13:56:57.000Z</time>
      </trkpt>
      <trkpt lat="42.0755" lon="19.73124">
        <ele>185.66999816895</ele>
        <time>2023-10-01T13:56:56.000Z</time>
      </trkpt>
      <trkpt lat="42.0756" lon="19.73131">
        <ele>185.19000244141</ele>
        <time>2023-10-01T13:56:55.000Z</time>
      </trkpt>
      <trkpt lat="42.07572" lon="19.73136">
        <ele>185.19000244141</ele>
        <time>2023-10-01T13:56:54.000Z</time>
      </trkpt>
      <trkpt lat="42.07575" lon="19.73137">
        <ele>184.71000671387</ele>
        <time>2023-10-01T13:56:53.000Z</time>
      </trkpt>
      <trkpt lat="42.0765" lon="19.73154">
        <ele>182.30999755859</ele>
        <time>2023-10-01T13:56:49.000Z</time>
      </trkpt>
      <trkpt lat="42.07668" lon="19.73158">
        <ele>181.35000610352</ele>
        <time>2023-10-01T13:56:48.000Z</time>
      </trkpt>
      <trkpt lat="42.0767" lon="19.73159">
        <ele>181.35000610352</ele>
        <time>2023-10-01T13:56:47.000Z</time>
      </trkpt>
      <trkpt lat="42.07692" lon="19.73166">
        <ele>180.86999511719</ele>
        <time>2023-10-01T13:56:46.000Z</time>
      </trkpt>
      <trkpt lat="42.07704" lon="19.73169">
        <ele>180.86999511719</ele>
        <time>2023-10-01T13:56:45.000Z</time>
      </trkpt>
      <trkpt lat="42.07715" lon="19.73168">
        <ele>180.38000488281</ele>
        <time>2023-10-01T13:56:44.000Z</time>
      </trkpt>
      <trkpt lat="42.07726" lon="19.73165">
        <ele>180.38000488281</ele>
        <time>2023-10-01T13:56:43.000Z</time>
      </trkpt>
      <trkpt lat="42.07734" lon="19.7316">
        <ele>179.89999389648</ele>
        <time>2023-10-01T13:56:42.000Z</time>
      </trkpt>
      <trkpt lat="42.07752" lon="19.73148">
        <ele>179.89999389648</ele>
        <time>2023-10-01T13:56:40.000Z</time>
      </trkpt>
      <trkpt lat="42.07774" lon="19.73136">
        <ele>179.89999389648</ele>
        <time>2023-10-01T13:56:38.000Z</time>
      </trkpt>
      <trkpt lat="42.07785" lon="19.73132">
        <ele>179.89999389648</ele>
        <time>2023-10-01T13:56:37.000Z</time>
      </trkpt>
      <trkpt lat="42.07794" lon="19.73131">
        <ele>179.89999389648</ele>
        <time>2023-10-01T13:56:36.000Z</time>
      </trkpt>
      <trkpt lat="42.07801" lon="19.73134">
        <ele>179.89999389648</ele>
        <time>2023-10-01T13:56:35.000Z</time>
      </trkpt>
      <trkpt lat="42.07806" lon="19.73142">
        <ele>179.41999816895</ele>
        <time>2023-10-01T13:56:34.000Z</time>
      </trkpt>
      <trkpt lat="42.07806" lon="19.73151">
        <ele>178.94000244141</ele>
        <time>2023-10-01T13:56:33.000Z</time>
      </trkpt>
      <trkpt lat="42.07803" lon="19.73164">
        <ele>178.46000671387</ele>
        <time>2023-10-01T13:56:32.000Z</time>
      </trkpt>
      <trkpt lat="42.078" lon="19.73173">
        <ele>178.46000671387</ele>
        <time>2023-10-01T13:56:31.000Z</time>
      </trkpt>
      <trkpt lat="42.07787" lon="19.73204">
        <ele>177.5</ele>
        <time>2023-10-01T13:56:29.000Z</time>
      </trkpt>
      <trkpt lat="42.07776" lon="19.73235">
        <ele>177.02000427246</ele>
        <time>2023-10-01T13:56:28.000Z</time>
      </trkpt>
      <trkpt lat="42.07771" lon="19.73249">
        <ele>176.53999328613</ele>
        <time>2023-10-01T13:56:27.000Z</time>
      </trkpt>
      <trkpt lat="42.07764" lon="19.73257">
        <ele>176.05999755859</ele>
        <time>2023-10-01T13:56:26.000Z</time>
      </trkpt>
      <trkpt lat="42.07759" lon="19.73262">
        <ele>176.05999755859</ele>
        <time>2023-10-01T13:56:25.000Z</time>
      </trkpt>
      <trkpt lat="42.0775" lon="19.73265">
        <ele>176.05999755859</ele>
        <time>2023-10-01T13:56:24.000Z</time>
      </trkpt>
      <trkpt lat="42.07742" lon="19.73266">
        <ele>175.58000183105</ele>
        <time>2023-10-01T13:56:23.000Z</time>
      </trkpt>
      <trkpt lat="42.07734" lon="19.73264">
        <ele>175.58000183105</ele>
        <time>2023-10-01T13:56:22.000Z</time>
      </trkpt>
      <trkpt lat="42.07729" lon="19.73263">
        <ele>175.58000183105</ele>
        <time>2023-10-01T13:56:21.000Z</time>
      </trkpt>
      <trkpt lat="42.0772" lon="19.7326">
        <ele>175.10000610352</ele>
        <time>2023-10-01T13:56:20.000Z</time>
      </trkpt>
      <trkpt lat="42.07716" lon="19.73262">
        <ele>174.61999511719</ele>
        <time>2023-10-01T13:56:19.000Z</time>
      </trkpt>
      <trkpt lat="42.07711" lon="19.73268">
        <ele>173.66000366211</ele>
        <time>2023-10-01T13:56:18.000Z</time>
      </trkpt>
      <trkpt lat="42.07708" lon="19.73277">
        <ele>172.69000244141</ele>
        <time>2023-10-01T13:56:17.000Z</time>
      </trkpt>
      <trkpt lat="42.07706" lon="19.73289">
        <ele>171.25</ele>
        <time>2023-10-01T13:56:16.000Z</time>
      </trkpt>
      <trkpt lat="42.07705" lon="19.73305">
        <ele>170.28999328613</ele>
        <time>2023-10-01T13:56:15.000Z</time>
      </trkpt>
      <trkpt lat="42.07704" lon="19.73321">
        <ele>169.33000183105</ele>
        <time>2023-10-01T13:56:14.000Z</time>
      </trkpt>
      <trkpt lat="42.07705" lon="19.7333">
        <ele>168.85000610352</ele>
        <time>2023-10-01T13:56:13.000Z</time>
      </trkpt>
      <trkpt lat="42.07708" lon="19.73359">
        <ele>167.41000366211</ele>
        <time>2023-10-01T13:56:12.000Z</time>
      </trkpt>
      <trkpt lat="42.07706" lon="19.73371">
        <ele>166.44999694824</ele>
        <time>2023-10-01T13:56:11.000Z</time>
      </trkpt>
      <trkpt lat="42.07701" lon="19.73382">
        <ele>165.47999572754</ele>
        <time>2023-10-01T13:56:10.000Z</time>
      </trkpt>
      <trkpt lat="42.07693" lon="19.7339">
        <ele>165</ele>
        <time>2023-10-01T13:56:09.000Z</time>
      </trkpt>
      <trkpt lat="42.07683" lon="19.73395">
        <ele>164.52000427246</ele>
        <time>2023-10-01T13:56:08.000Z</time>
      </trkpt>
      <trkpt lat="42.07672" lon="19.73397">
        <ele>163.55999755859</ele>
        <time>2023-10-01T13:56:07.000Z</time>
      </trkpt>
      <trkpt lat="42.07662" lon="19.73394">
        <ele>163.08000183105</ele>
        <time>2023-10-01T13:56:06.000Z</time>
      </trkpt>
      <trkpt lat="42.07653" lon="19.73388">
        <ele>162.11999511719</ele>
        <time>2023-10-01T13:56:05.000Z</time>
      </trkpt>
      <trkpt lat="42.07643" lon="19.73383">
        <ele>161.63999938965</ele>
        <time>2023-10-01T13:56:04.000Z</time>
      </trkpt>
      <trkpt lat="42.07635" lon="19.73381">
        <ele>161.16000366211</ele>
        <time>2023-10-01T13:56:03.000Z</time>
      </trkpt>
      <trkpt lat="42.07627" lon="19.73382">
        <ele>160.67999267578</ele>
        <time>2023-10-01T13:56:02.000Z</time>
      </trkpt>
      <trkpt lat="42.07621" lon="19.73387">
        <ele>160.19999694824</ele>
        <time>2023-10-01T13:56:01.000Z</time>
      </trkpt>
      <trkpt lat="42.07614" lon="19.73396">
        <ele>159.7200012207</ele>
        <time>2023-10-01T13:56:00.000Z</time>
      </trkpt>
      <trkpt lat="42.07611" lon="19.73402">
        <ele>159.24000549316</ele>
        <time>2023-10-01T13:55:59.000Z</time>
      </trkpt>
      <trkpt lat="42.076" lon="19.73426">
        <ele>157.78999328613</ele>
        <time>2023-10-01T13:55:58.000Z</time>
      </trkpt>
      <trkpt lat="42.07592" lon="19.73439">
        <ele>156.83000183105</ele>
        <time>2023-10-01T13:55:57.000Z</time>
      </trkpt>
      <trkpt lat="42.07581" lon="19.73451">
        <ele>156.35000610352</ele>
        <time>2023-10-01T13:55:56.000Z</time>
      </trkpt>
      <trkpt lat="42.07572" lon="19.73462">
        <ele>154.91000366211</ele>
        <time>2023-10-01T13:55:55.000Z</time>
      </trkpt>
      <trkpt lat="42.07567" lon="19.7347">
        <ele>153.94999694824</ele>
        <time>2023-10-01T13:55:54.000Z</time>
      </trkpt>
      <trkpt lat="42.07563" lon="19.73477">
        <ele>153.4700012207</ele>
        <time>2023-10-01T13:55:53.000Z</time>
      </trkpt>
      <trkpt lat="42.07551" lon="19.73498">
        <ele>151.53999328613</ele>
        <time>2023-10-01T13:55:52.000Z</time>
      </trkpt>
      <trkpt lat="42.07538" lon="19.73519">
        <ele>148.66000366211</ele>
        <time>2023-10-01T13:55:51.000Z</time>
      </trkpt>
      <trkpt lat="42.07531" lon="19.73529">
        <ele>147.69999694824</ele>
        <time>2023-10-01T13:55:50.000Z</time>
      </trkpt>
      <trkpt lat="42.07499" lon="19.73567">
        <ele>143.85000610352</ele>
        <time>2023-10-01T13:55:48.000Z</time>
      </trkpt>
      <trkpt lat="42.07484" lon="19.73582">
        <ele>142.41000366211</ele>
        <time>2023-10-01T13:55:47.000Z</time>
      </trkpt>
      <trkpt lat="42.0747" lon="19.73592">
        <ele>141.44999694824</ele>
        <time>2023-10-01T13:55:46.000Z</time>
      </trkpt>
      <trkpt lat="42.07456" lon="19.73598">
        <ele>140.49000549316</ele>
        <time>2023-10-01T13:55:45.000Z</time>
      </trkpt>
      <trkpt lat="42.07442" lon="19.73602">
        <ele>139.05000305176</ele>
        <time>2023-10-01T13:55:44.000Z</time>
      </trkpt>
      <trkpt lat="42.07425" lon="19.73605">
        <ele>137.61000061035</ele>
        <time>2023-10-01T13:55:43.000Z</time>
      </trkpt>
      <trkpt lat="42.07412" lon="19.73606">
        <ele>136.16000366211</ele>
        <time>2023-10-01T13:55:42.000Z</time>
      </trkpt>
      <trkpt lat="42.07395" lon="19.73604">
        <ele>134.7200012207</ele>
        <time>2023-10-01T13:55:41.000Z</time>
      </trkpt>
      <trkpt lat="42.07384" lon="19.73605">
        <ele>134.24000549316</ele>
        <time>2023-10-01T13:55:40.000Z</time>
      </trkpt>
      <trkpt lat="42.07377" lon="19.73607">
        <ele>134.24000549316</ele>
        <time>2023-10-01T13:55:39.000Z</time>
      </trkpt>
      <trkpt lat="42.07373" lon="19.73614">
        <ele>134.24000549316</ele>
        <time>2023-10-01T13:55:38.000Z</time>
      </trkpt>
      <trkpt lat="42.07373" lon="19.73621">
        <ele>133.75999450684</ele>
        <time>2023-10-01T13:55:37.000Z</time>
      </trkpt>
      <trkpt lat="42.07376" lon="19.73636">
        <ele>133.75999450684</ele>
        <time>2023-10-01T13:55:36.000Z</time>
      </trkpt>
      <trkpt lat="42.0738" lon="19.73649">
        <ele>133.75999450684</ele>
        <time>2023-10-01T13:55:35.000Z</time>
      </trkpt>
      <trkpt lat="42.07389" lon="19.7367">
        <ele>133.2799987793</ele>
        <time>2023-10-01T13:55:34.000Z</time>
      </trkpt>
      <trkpt lat="42.07392" lon="19.73683">
        <ele>132.80000305176</ele>
        <time>2023-10-01T13:55:33.000Z</time>
      </trkpt>
      <trkpt lat="42.07393" lon="19.73694">
        <ele>132.32000732422</ele>
        <time>2023-10-01T13:55:32.000Z</time>
      </trkpt>
      <trkpt lat="42.07391" lon="19.73705">
        <ele>131.83999633789</ele>
        <time>2023-10-01T13:55:31.000Z</time>
      </trkpt>
      <trkpt lat="42.07386" lon="19.73714">
        <ele>132.32000732422</ele>
        <time>2023-10-01T13:55:30.000Z</time>
      </trkpt>
      <trkpt lat="42.07379" lon="19.7372">
        <ele>132.32000732422</ele>
        <time>2023-10-01T13:55:29.000Z</time>
      </trkpt>
      <trkpt lat="42.07372" lon="19.73723">
        <ele>132.32000732422</ele>
        <time>2023-10-01T13:55:28.000Z</time>
      </trkpt>
      <trkpt lat="42.07368" lon="19.73723">
        <ele>132.32000732422</ele>
        <time>2023-10-01T13:55:27.000Z</time>
      </trkpt>
      <trkpt lat="42.07355" lon="19.73724">
        <ele>132.32000732422</ele>
        <time>2023-10-01T13:55:26.000Z</time>
      </trkpt>
      <trkpt lat="42.07346" lon="19.73726">
        <ele>131.83999633789</ele>
        <time>2023-10-01T13:55:25.000Z</time>
      </trkpt>
      <trkpt lat="42.07339" lon="19.73726">
        <ele>131.36000061035</ele>
        <time>2023-10-01T13:55:24.000Z</time>
      </trkpt>
      <trkpt lat="42.07333" lon="19.73724">
        <ele>131.36000061035</ele>
        <time>2023-10-01T13:55:23.000Z</time>
      </trkpt>
      <trkpt lat="42.07323" lon="19.7372">
        <ele>130.88000488281</ele>
        <time>2023-10-01T13:55:22.000Z</time>
      </trkpt>
      <trkpt lat="42.07322" lon="19.73719">
        <ele>130.88000488281</ele>
        <time>2023-10-01T13:55:21.000Z</time>
      </trkpt>
      <trkpt lat="42.07308" lon="19.73711">
        <ele>130.39999389648</ele>
        <time>2023-10-01T13:55:20.000Z</time>
      </trkpt>
      <trkpt lat="42.07302" lon="19.73709">
        <ele>130.39999389648</ele>
        <time>2023-10-01T13:55:19.000Z</time>
      </trkpt>
      <trkpt lat="42.07297" lon="19.73711">
        <ele>130.39999389648</ele>
        <time>2023-10-01T13:55:18.000Z</time>
      </trkpt>
      <trkpt lat="42.07294" lon="19.73718">
        <ele>130.39999389648</ele>
        <time>2023-10-01T13:55:17.000Z</time>
      </trkpt>
      <trkpt lat="42.07294" lon="19.73727">
        <ele>130.39999389648</ele>
        <time>2023-10-01T13:55:16.000Z</time>
      </trkpt>
      <trkpt lat="42.07297" lon="19.73735">
        <ele>130.88000488281</ele>
        <time>2023-10-01T13:55:15.000Z</time>
      </trkpt>
      <trkpt lat="42.07302" lon="19.73743">
        <ele>130.88000488281</ele>
        <time>2023-10-01T13:55:14.000Z</time>
      </trkpt>
      <trkpt lat="42.0731" lon="19.73754">
        <ele>131.36000061035</ele>
        <time>2023-10-01T13:55:13.000Z</time>
      </trkpt>
      <trkpt lat="42.07315" lon="19.73764">
        <ele>131.36000061035</ele>
        <time>2023-10-01T13:55:12.000Z</time>
      </trkpt>
      <trkpt lat="42.07317" lon="19.73773">
        <ele>131.36000061035</ele>
        <time>2023-10-01T13:55:11.000Z</time>
      </trkpt>
      <trkpt lat="42.07316" lon="19.73783">
        <ele>130.88000488281</ele>
        <time>2023-10-01T13:55:10.000Z</time>
      </trkpt>
      <trkpt lat="42.07311" lon="19.73794">
        <ele>130.88000488281</ele>
        <time>2023-10-01T13:55:09.000Z</time>
      </trkpt>
      <trkpt lat="42.07308" lon="19.73798">
        <ele>130.88000488281</ele>
        <time>2023-10-01T13:55:08.000Z</time>
      </trkpt>
      <trkpt lat="42.07296" lon="19.73817">
        <ele>130.39999389648</ele>
        <time>2023-10-01T13:55:07.000Z</time>
      </trkpt>
      <trkpt lat="42.07289" lon="19.7383">
        <ele>130.39999389648</ele>
        <time>2023-10-01T13:55:06.000Z</time>
      </trkpt>
      <trkpt lat="42.07285" lon="19.73839">
        <ele>130.39999389648</ele>
        <time>2023-10-01T13:55:05.000Z</time>
      </trkpt>
      <trkpt lat="42.07279" lon="19.73857">
        <ele>129.91999816895</ele>
        <time>2023-10-01T13:55:04.000Z</time>
      </trkpt>
      <trkpt lat="42.07273" lon="19.73876">
        <ele>129.42999267578</ele>
        <time>2023-10-01T13:55:03.000Z</time>
      </trkpt>
      <trkpt lat="42.07269" lon="19.73891">
        <ele>128.4700012207</ele>
        <time>2023-10-01T13:55:02.000Z</time>
      </trkpt>
      <trkpt lat="42.07268" lon="19.73905">
        <ele>127.98999786377</ele>
        <time>2023-10-01T13:55:01.000Z</time>
      </trkpt>
      <trkpt lat="42.0727" lon="19.73919">
        <ele>127.98999786377</ele>
        <time>2023-10-01T13:55:00.000Z</time>
      </trkpt>
      <trkpt lat="42.07274" lon="19.73931">
        <ele>127.51000213623</ele>
        <time>2023-10-01T13:54:59.000Z</time>
      </trkpt>
      <trkpt lat="42.07278" lon="19.73938">
        <ele>127.51000213623</ele>
        <time>2023-10-01T13:54:58.000Z</time>
      </trkpt>
      <trkpt lat="42.07285" lon="19.73942">
        <ele>127.98999786377</ele>
        <time>2023-10-01T13:54:57.000Z</time>
      </trkpt>
      <trkpt lat="42.07293" lon="19.73943">
        <ele>128.4700012207</ele>
        <time>2023-10-01T13:54:56.000Z</time>
      </trkpt>
      <trkpt lat="42.07304" lon="19.73941">
        <ele>129.42999267578</ele>
        <time>2023-10-01T13:54:55.000Z</time>
      </trkpt>
      <trkpt lat="42.07315" lon="19.73937">
        <ele>130.39999389648</ele>
        <time>2023-10-01T13:54:54.000Z</time>
      </trkpt>
      <trkpt lat="42.07327" lon="19.73932">
        <ele>130.88000488281</ele>
        <time>2023-10-01T13:54:53.000Z</time>
      </trkpt>
      <trkpt lat="42.07338" lon="19.73926">
        <ele>131.36000061035</ele>
        <time>2023-10-01T13:54:52.000Z</time>
      </trkpt>
      <trkpt lat="42.07357" lon="19.73914">
        <ele>132.32000732422</ele>
        <time>2023-10-01T13:54:51.000Z</time>
      </trkpt>
      <trkpt lat="42.07371" lon="19.73906">
        <ele>132.80000305176</ele>
        <time>2023-10-01T13:54:50.000Z</time>
      </trkpt>
      <trkpt lat="42.07384" lon="19.73901">
        <ele>133.2799987793</ele>
        <time>2023-10-01T13:54:49.000Z</time>
      </trkpt>
      <trkpt lat="42.07389" lon="19.739">
        <ele>133.75999450684</ele>
        <time>2023-10-01T13:54:48.000Z</time>
      </trkpt>
      <trkpt lat="42.07453" lon="19.73888">
        <ele>140.49000549316</ele>
        <time>2023-10-01T13:54:45.000Z</time>
      </trkpt>
      <trkpt lat="42.07466" lon="19.73885">
        <ele>141.92999267578</ele>
        <time>2023-10-01T13:54:44.000Z</time>
      </trkpt>
      <trkpt lat="42.07483" lon="19.73878">
        <ele>143.85000610352</ele>
        <time>2023-10-01T13:54:43.000Z</time>
      </trkpt>
      <trkpt lat="42.07487" lon="19.73875">
        <ele>144.33999633789</ele>
        <time>2023-10-01T13:54:42.000Z</time>
      </trkpt>
      <trkpt lat="42.07507" lon="19.73863">
        <ele>145.7799987793</ele>
        <time>2023-10-01T13:54:41.000Z</time>
      </trkpt>
      <trkpt lat="42.07514" lon="19.73857">
        <ele>146.25999450684</ele>
        <time>2023-10-01T13:54:40.000Z</time>
      </trkpt>
      <trkpt lat="42.07523" lon="19.73848">
        <ele>146.74000549316</ele>
        <time>2023-10-01T13:54:39.000Z</time>
      </trkpt>
      <trkpt lat="42.0753" lon="19.73842">
        <ele>147.2200012207</ele>
        <time>2023-10-01T13:54:38.000Z</time>
      </trkpt>
      <trkpt lat="42.07537" lon="19.73841">
        <ele>147.69999694824</ele>
        <time>2023-10-01T13:54:37.000Z</time>
      </trkpt>
      <trkpt lat="42.07542" lon="19.73843">
        <ele>148.66000366211</ele>
        <time>2023-10-01T13:54:36.000Z</time>
      </trkpt>
      <trkpt lat="42.07546" lon="19.73847">
        <ele>148.66000366211</ele>
        <time>2023-10-01T13:54:35.000Z</time>
      </trkpt>
      <trkpt lat="42.07548" lon="19.73855">
        <ele>149.13999938965</ele>
        <time>2023-10-01T13:54:34.000Z</time>
      </trkpt>
      <trkpt lat="42.07547" lon="19.73863">
        <ele>149.61999511719</ele>
        <time>2023-10-01T13:54:33.000Z</time>
      </trkpt>
      <trkpt lat="42.07547" lon="19.73871">
        <ele>149.61999511719</ele>
        <time>2023-10-01T13:54:32.000Z</time>
      </trkpt>
      <trkpt lat="42.07545" lon="19.73886">
        <ele>150.58000183105</ele>
        <time>2023-10-01T13:54:31.000Z</time>
      </trkpt>
      <trkpt lat="42.07544" lon="19.73891">
        <ele>150.58000183105</ele>
        <time>2023-10-01T13:54:30.000Z</time>
      </trkpt>
      <trkpt lat="42.07543" lon="19.73906">
        <ele>151.53999328613</ele>
        <time>2023-10-01T13:54:29.000Z</time>
      </trkpt>
      <trkpt lat="42.0754" lon="19.7393">
        <ele>152.0299987793</ele>
        <time>2023-10-01T13:54:28.000Z</time>
      </trkpt>
      <trkpt lat="42.07538" lon="19.73947">
        <ele>152.50999450684</ele>
        <time>2023-10-01T13:54:27.000Z</time>
      </trkpt>
      <trkpt lat="42.07538" lon="19.7396">
        <ele>153.4700012207</ele>
        <time>2023-10-01T13:54:26.000Z</time>
      </trkpt>
      <trkpt lat="42.0754" lon="19.73971">
        <ele>154.42999267578</ele>
        <time>2023-10-01T13:54:25.000Z</time>
      </trkpt>
      <trkpt lat="42.07544" lon="19.73978">
        <ele>154.91000366211</ele>
        <time>2023-10-01T13:54:24.000Z</time>
      </trkpt>
      <trkpt lat="42.07549" lon="19.73982">
        <ele>154.91000366211</ele>
        <time>2023-10-01T13:54:23.000Z</time>
      </trkpt>
      <trkpt lat="42.07556" lon="19.73983">
        <ele>155.38999938965</ele>
        <time>2023-10-01T13:54:22.000Z</time>
      </trkpt>
      <trkpt lat="42.07562" lon="19.7398">
        <ele>155.38999938965</ele>
        <time>2023-10-01T13:54:21.000Z</time>
      </trkpt>
      <trkpt lat="42.07567" lon="19.73975">
        <ele>155.38999938965</ele>
        <time>2023-10-01T13:54:20.000Z</time>
      </trkpt>
      <trkpt lat="42.07571" lon="19.73969">
        <ele>155.86999511719</ele>
        <time>2023-10-01T13:54:19.000Z</time>
      </trkpt>
      <trkpt lat="42.07577" lon="19.73957">
        <ele>155.86999511719</ele>
        <time>2023-10-01T13:54:18.000Z</time>
      </trkpt>
      <trkpt lat="42.07583" lon="19.73944">
        <ele>156.35000610352</ele>
        <time>2023-10-01T13:54:17.000Z</time>
      </trkpt>
      <trkpt lat="42.07584" lon="19.73941">
        <ele>156.35000610352</ele>
        <time>2023-10-01T13:54:16.000Z</time>
      </trkpt>
      <trkpt lat="42.07593" lon="19.73918">
        <ele>157.30999755859</ele>
        <time>2023-10-01T13:54:15.000Z</time>
      </trkpt>
      <trkpt lat="42.07598" lon="19.73909">
        <ele>158.27000427246</ele>
        <time>2023-10-01T13:54:14.000Z</time>
      </trkpt>
      <trkpt lat="42.07604" lon="19.73903">
        <ele>158.75</ele>
        <time>2023-10-01T13:54:13.000Z</time>
      </trkpt>
      <trkpt lat="42.0761" lon="19.739">
        <ele>159.24000549316</ele>
        <time>2023-10-01T13:54:12.000Z</time>
      </trkpt>
      <trkpt lat="42.07617" lon="19.73901">
        <ele>159.24000549316</ele>
        <time>2023-10-01T13:54:11.000Z</time>
      </trkpt>
      <trkpt lat="42.07624" lon="19.73903">
        <ele>159.7200012207</ele>
        <time>2023-10-01T13:54:10.000Z</time>
      </trkpt>
      <trkpt lat="42.0763" lon="19.73906">
        <ele>160.19999694824</ele>
        <time>2023-10-01T13:54:09.000Z</time>
      </trkpt>
      <trkpt lat="42.07637" lon="19.7391">
        <ele>160.19999694824</ele>
        <time>2023-10-01T13:54:08.000Z</time>
      </trkpt>
      <trkpt lat="42.07643" lon="19.73915">
        <ele>160.67999267578</ele>
        <time>2023-10-01T13:54:07.000Z</time>
      </trkpt>
      <trkpt lat="42.07647" lon="19.73923">
        <ele>161.16000366211</ele>
        <time>2023-10-01T13:54:06.000Z</time>
      </trkpt>
      <trkpt lat="42.07649" lon="19.73933">
        <ele>161.16000366211</ele>
        <time>2023-10-01T13:54:05.000Z</time>
      </trkpt>
      <trkpt lat="42.07649" lon="19.73944">
        <ele>161.63999938965</ele>
        <time>2023-10-01T13:54:04.000Z</time>
      </trkpt>
      <trkpt lat="42.07649" lon="19.73946">
        <ele>161.63999938965</ele>
        <time>2023-10-01T13:54:03.000Z</time>
      </trkpt>
      <trkpt lat="42.07646" lon="19.73965">
        <ele>162.11999511719</ele>
        <time>2023-10-01T13:54:02.000Z</time>
      </trkpt>
      <trkpt lat="42.07645" lon="19.73976">
        <ele>162.60000610352</ele>
        <time>2023-10-01T13:54:01.000Z</time>
      </trkpt>
      <trkpt lat="42.07639" lon="19.74001">
        <ele>163.08000183105</ele>
        <time>2023-10-01T13:54:00.000Z</time>
      </trkpt>
      <trkpt lat="42.07637" lon="19.74015">
        <ele>163.08000183105</ele>
        <time>2023-10-01T13:53:59.000Z</time>
      </trkpt>
      <trkpt lat="42.07627" lon="19.74071">
        <ele>165</ele>
        <time>2023-10-01T13:53:56.000Z</time>
      </trkpt>
      <trkpt lat="42.07621" lon="19.74111">
        <ele>165.47999572754</ele>
        <time>2023-10-01T13:53:54.000Z</time>
      </trkpt>
      <trkpt lat="42.07617" lon="19.74136">
        <ele>166.44999694824</ele>
        <time>2023-10-01T13:53:53.000Z</time>
      </trkpt>
      <trkpt lat="42.07613" lon="19.74156">
        <ele>167.41000366211</ele>
        <time>2023-10-01T13:53:52.000Z</time>
      </trkpt>
      <trkpt lat="42.07611" lon="19.74173">
        <ele>167.88999938965</ele>
        <time>2023-10-01T13:53:51.000Z</time>
      </trkpt>
      <trkpt lat="42.07612" lon="19.74187">
        <ele>167.88999938965</ele>
        <time>2023-10-01T13:53:50.000Z</time>
      </trkpt>
      <trkpt lat="42.07615" lon="19.74199">
        <ele>167.88999938965</ele>
        <time>2023-10-01T13:53:49.000Z</time>
      </trkpt>
      <trkpt lat="42.0762" lon="19.74209">
        <ele>166.92999267578</ele>
        <time>2023-10-01T13:53:48.000Z</time>
      </trkpt>
      <trkpt lat="42.07626" lon="19.74216">
        <ele>166.92999267578</ele>
        <time>2023-10-01T13:53:47.000Z</time>
      </trkpt>
      <trkpt lat="42.07635" lon="19.74219">
        <ele>166.44999694824</ele>
        <time>2023-10-01T13:53:46.000Z</time>
      </trkpt>
      <trkpt lat="42.07645" lon="19.74218">
        <ele>165.96000671387</ele>
        <time>2023-10-01T13:53:45.000Z</time>
      </trkpt>
      <trkpt lat="42.07656" lon="19.74213">
        <ele>165.47999572754</ele>
        <time>2023-10-01T13:53:44.000Z</time>
      </trkpt>
      <trkpt lat="42.07666" lon="19.74209">
        <ele>165</ele>
        <time>2023-10-01T13:53:43.000Z</time>
      </trkpt>
      <trkpt lat="42.07675" lon="19.74208">
        <ele>164.52000427246</ele>
        <time>2023-10-01T13:53:42.000Z</time>
      </trkpt>
      <trkpt lat="42.07681" lon="19.74212">
        <ele>164.03999328613</ele>
        <time>2023-10-01T13:53:41.000Z</time>
      </trkpt>
      <trkpt lat="42.07686" lon="19.7422">
        <ele>163.55999755859</ele>
        <time>2023-10-01T13:53:40.000Z</time>
      </trkpt>
      <trkpt lat="42.0769" lon="19.74231">
        <ele>162.60000610352</ele>
        <time>2023-10-01T13:53:39.000Z</time>
      </trkpt>
      <trkpt lat="42.07691" lon="19.74246">
        <ele>161.63999938965</ele>
        <time>2023-10-01T13:53:38.000Z</time>
      </trkpt>
      <trkpt lat="42.07691" lon="19.74263">
        <ele>161.16000366211</ele>
        <time>2023-10-01T13:53:37.000Z</time>
      </trkpt>
      <trkpt lat="42.0769" lon="19.74288">
        <ele>159.7200012207</ele>
        <time>2023-10-01T13:53:36.000Z</time>
      </trkpt>
      <trkpt lat="42.07686" lon="19.74308">
        <ele>158.75</ele>
        <time>2023-10-01T13:53:35.000Z</time>
      </trkpt>
      <trkpt lat="42.07681" lon="19.74327">
        <ele>157.30999755859</ele>
        <time>2023-10-01T13:53:34.000Z</time>
      </trkpt>
      <trkpt lat="42.07678" lon="19.74342">
        <ele>156.83000183105</ele>
        <time>2023-10-01T13:53:33.000Z</time>
      </trkpt>
      <trkpt lat="42.07678" lon="19.74357">
        <ele>156.35000610352</ele>
        <time>2023-10-01T13:53:32.000Z</time>
      </trkpt>
      <trkpt lat="42.07678" lon="19.74362">
        <ele>155.86999511719</ele>
        <time>2023-10-01T13:53:31.000Z</time>
      </trkpt>
      <trkpt lat="42.07681" lon="19.74384">
        <ele>154.42999267578</ele>
        <time>2023-10-01T13:53:30.000Z</time>
      </trkpt>
      <trkpt lat="42.07679" lon="19.74395">
        <ele>153.4700012207</ele>
        <time>2023-10-01T13:53:29.000Z</time>
      </trkpt>
      <trkpt lat="42.07674" lon="19.74404">
        <ele>152.99000549316</ele>
        <time>2023-10-01T13:53:28.000Z</time>
      </trkpt>
      <trkpt lat="42.07667" lon="19.74412">
        <ele>152.50999450684</ele>
        <time>2023-10-01T13:53:27.000Z</time>
      </trkpt>
      <trkpt lat="42.07661" lon="19.74416">
        <ele>152.0299987793</ele>
        <time>2023-10-01T13:53:26.000Z</time>
      </trkpt>
      <trkpt lat="42.07647" lon="19.74424">
        <ele>150.10000610352</ele>
        <time>2023-10-01T13:53:25.000Z</time>
      </trkpt>
      <trkpt lat="42.07635" lon="19.74432">
        <ele>149.13999938965</ele>
        <time>2023-10-01T13:53:24.000Z</time>
      </trkpt>
      <trkpt lat="42.07573" lon="19.7448">
        <ele>144.33999633789</ele>
        <time>2023-10-01T13:53:20.000Z</time>
      </trkpt>
      <trkpt lat="42.07564" lon="19.74489">
        <ele>143.36999511719</ele>
        <time>2023-10-01T13:53:19.000Z</time>
      </trkpt>
      <trkpt lat="42.07557" lon="19.745">
        <ele>142.88999938965</ele>
        <time>2023-10-01T13:53:18.000Z</time>
      </trkpt>
      <trkpt lat="42.07552" lon="19.74514">
        <ele>141.92999267578</ele>
        <time>2023-10-01T13:53:17.000Z</time>
      </trkpt>
      <trkpt lat="42.07549" lon="19.74528">
        <ele>141.44999694824</ele>
        <time>2023-10-01T13:53:16.000Z</time>
      </trkpt>
      <trkpt lat="42.07549" lon="19.74544">
        <ele>141.44999694824</ele>
        <time>2023-10-01T13:53:15.000Z</time>
      </trkpt>
      <trkpt lat="42.07551" lon="19.74557">
        <ele>141.44999694824</ele>
        <time>2023-10-01T13:53:14.000Z</time>
      </trkpt>
      <trkpt lat="42.07559" lon="19.74594">
        <ele>140.49000549316</ele>
        <time>2023-10-01T13:53:12.000Z</time>
      </trkpt>
      <trkpt lat="42.07563" lon="19.74607">
        <ele>139.5299987793</ele>
        <time>2023-10-01T13:53:11.000Z</time>
      </trkpt>
      <trkpt lat="42.07571" lon="19.74618">
        <ele>139.5299987793</ele>
        <time>2023-10-01T13:53:10.000Z</time>
      </trkpt>
      <trkpt lat="42.0758" lon="19.74624">
        <ele>139.5299987793</ele>
        <time>2023-10-01T13:53:09.000Z</time>
      </trkpt>
      <trkpt lat="42.07591" lon="19.74629">
        <ele>138.57000732422</ele>
        <time>2023-10-01T13:53:08.000Z</time>
      </trkpt>
      <trkpt lat="42.07598" lon="19.74634">
        <ele>138.57000732422</ele>
        <time>2023-10-01T13:53:07.000Z</time>
      </trkpt>
      <trkpt lat="42.07603" lon="19.7464">
        <ele>138.08999633789</ele>
        <time>2023-10-01T13:53:06.000Z</time>
      </trkpt>
      <trkpt lat="42.07606" lon="19.74651">
        <ele>137.13000488281</ele>
        <time>2023-10-01T13:53:05.000Z</time>
      </trkpt>
      <trkpt lat="42.07607" lon="19.74661">
        <ele>137.61000061035</ele>
        <time>2023-10-01T13:53:04.000Z</time>
      </trkpt>
      <trkpt lat="42.07607" lon="19.74678">
        <ele>136.63999938965</ele>
        <time>2023-10-01T13:53:03.000Z</time>
      </trkpt>
      <trkpt lat="42.07609" lon="19.74687">
        <ele>136.16000366211</ele>
        <time>2023-10-01T13:53:02.000Z</time>
      </trkpt>
      <trkpt lat="42.07613" lon="19.74695">
        <ele>135.67999267578</ele>
        <time>2023-10-01T13:53:01.000Z</time>
      </trkpt>
      <trkpt lat="42.07618" lon="19.747">
        <ele>135.19999694824</ele>
        <time>2023-10-01T13:53:00.000Z</time>
      </trkpt>
      <trkpt lat="42.07626" lon="19.74701">
        <ele>134.7200012207</ele>
        <time>2023-10-01T13:52:59.000Z</time>
      </trkpt>
      <trkpt lat="42.07633" lon="19.747">
        <ele>134.24000549316</ele>
        <time>2023-10-01T13:52:58.000Z</time>
      </trkpt>
      <trkpt lat="42.0765" lon="19.74697">
        <ele>132.80000305176</ele>
        <time>2023-10-01T13:52:57.000Z</time>
      </trkpt>
      <trkpt lat="42.07659" lon="19.74697">
        <ele>131.83999633789</ele>
        <time>2023-10-01T13:52:56.000Z</time>
      </trkpt>
      <trkpt lat="42.07666" lon="19.74701">
        <ele>130.88000488281</ele>
        <time>2023-10-01T13:52:55.000Z</time>
      </trkpt>
      <trkpt lat="42.07671" lon="19.74709">
        <ele>129.91999816895</ele>
        <time>2023-10-01T13:52:54.000Z</time>
      </trkpt>
      <trkpt lat="42.07672" lon="19.74719">
        <ele>128.94999694824</ele>
        <time>2023-10-01T13:52:53.000Z</time>
      </trkpt>
      <trkpt lat="42.07669" lon="19.74731">
        <ele>127.98999786377</ele>
        <time>2023-10-01T13:52:52.000Z</time>
      </trkpt>
      <trkpt lat="42.07664" lon="19.74746">
        <ele>126.55000305176</ele>
        <time>2023-10-01T13:52:51.000Z</time>
      </trkpt>
      <trkpt lat="42.07663" lon="19.74749">
        <ele>126.06999969482</ele>
        <time>2023-10-01T13:52:50.000Z</time>
      </trkpt>
      <trkpt lat="42.07642" lon="19.74799">
        <ele>122.2200012207</ele>
        <time>2023-10-01T13:52:48.000Z</time>
      </trkpt>
      <trkpt lat="42.07636" lon="19.74818">
        <ele>121.26000213623</ele>
        <time>2023-10-01T13:52:47.000Z</time>
      </trkpt>
      <trkpt lat="42.07632" lon="19.74835">
        <ele>120.30000305176</ele>
        <time>2023-10-01T13:52:46.000Z</time>
      </trkpt>
      <trkpt lat="42.07628" lon="19.74853">
        <ele>118.86000061035</ele>
        <time>2023-10-01T13:52:45.000Z</time>
      </trkpt>
      <trkpt lat="42.07626" lon="19.74868">
        <ele>118.37999725342</ele>
        <time>2023-10-01T13:52:44.000Z</time>
      </trkpt>
      <trkpt lat="42.07626" lon="19.7488">
        <ele>117.90000152588</ele>
        <time>2023-10-01T13:52:43.000Z</time>
      </trkpt>
      <trkpt lat="42.07629" lon="19.74892">
        <ele>117.41999816895</ele>
        <time>2023-10-01T13:52:42.000Z</time>
      </trkpt>
      <trkpt lat="42.07635" lon="19.74906">
        <ele>116.45999908447</ele>
        <time>2023-10-01T13:52:41.000Z</time>
      </trkpt>
      <trkpt lat="42.07645" lon="19.74929">
        <ele>115.01000213623</ele>
        <time>2023-10-01T13:52:39.000Z</time>
      </trkpt>
      <trkpt lat="42.0765" lon="19.74941">
        <ele>114.5299987793</ele>
        <time>2023-10-01T13:52:38.000Z</time>
      </trkpt>
      <trkpt lat="42.07652" lon="19.7495">
        <ele>114.05000305176</ele>
        <time>2023-10-01T13:52:37.000Z</time>
      </trkpt>
      <trkpt lat="42.07652" lon="19.74962">
        <ele>113.08999633789</ele>
        <time>2023-10-01T13:52:36.000Z</time>
      </trkpt>
      <trkpt lat="42.0765" lon="19.74976">
        <ele>112.61000061035</ele>
        <time>2023-10-01T13:52:35.000Z</time>
      </trkpt>
      <trkpt lat="42.07649" lon="19.7499">
        <ele>111.65000152588</ele>
        <time>2023-10-01T13:52:34.000Z</time>
      </trkpt>
      <trkpt lat="42.07652" lon="19.75005">
        <ele>111.16999816895</ele>
        <time>2023-10-01T13:52:33.000Z</time>
      </trkpt>
      <trkpt lat="42.07657" lon="19.7502">
        <ele>110.69000244141</ele>
        <time>2023-10-01T13:52:32.000Z</time>
      </trkpt>
      <trkpt lat="42.0766" lon="19.75033">
        <ele>109.25</ele>
        <time>2023-10-01T13:52:31.000Z</time>
      </trkpt>
      <trkpt lat="42.07661" lon="19.75045">
        <ele>108.76999664307</ele>
        <time>2023-10-01T13:52:30.000Z</time>
      </trkpt>
      <trkpt lat="42.0766" lon="19.75062">
        <ele>107.80999755859</ele>
        <time>2023-10-01T13:52:29.000Z</time>
      </trkpt>
      <trkpt lat="42.07656" lon="19.75079">
        <ele>107.31999969482</ele>
        <time>2023-10-01T13:52:28.000Z</time>
      </trkpt>
      <trkpt lat="42.07646" lon="19.75122">
        <ele>105.87999725342</ele>
        <time>2023-10-01T13:52:26.000Z</time>
      </trkpt>
      <trkpt lat="42.07642" lon="19.75139">
        <ele>105.40000152588</ele>
        <time>2023-10-01T13:52:25.000Z</time>
      </trkpt>
      <trkpt lat="42.0764" lon="19.75156">
        <ele>104.91999816895</ele>
        <time>2023-10-01T13:52:24.000Z</time>
      </trkpt>
      <trkpt lat="42.07639" lon="19.75169">
        <ele>104.91999816895</ele>
        <time>2023-10-01T13:52:23.000Z</time>
      </trkpt>
      <trkpt lat="42.07639" lon="19.75189">
        <ele>104.44000244141</ele>
        <time>2023-10-01T13:52:22.000Z</time>
      </trkpt>
      <trkpt lat="42.07638" lon="19.75205">
        <ele>103.95999908447</ele>
        <time>2023-10-01T13:52:21.000Z</time>
      </trkpt>
      <trkpt lat="42.07637" lon="19.75225">
        <ele>103.48000335693</ele>
        <time>2023-10-01T13:52:20.000Z</time>
      </trkpt>
      <trkpt lat="42.07634" lon="19.75253">
        <ele>103</ele>
        <time>2023-10-01T13:52:19.000Z</time>
      </trkpt>
      <trkpt lat="42.07633" lon="19.75266">
        <ele>102.51999664307</ele>
        <time>2023-10-01T13:52:18.000Z</time>
      </trkpt>
      <trkpt lat="42.07629" lon="19.75292">
        <ele>101.08000183105</ele>
        <time>2023-10-01T13:52:17.000Z</time>
      </trkpt>
      <trkpt lat="42.07625" lon="19.75308">
        <ele>100.59999847412</ele>
        <time>2023-10-01T13:52:16.000Z</time>
      </trkpt>
      <trkpt lat="42.07621" lon="19.75319">
        <ele>100.59999847412</ele>
        <time>2023-10-01T13:52:15.000Z</time>
      </trkpt>
      <trkpt lat="42.07618" lon="19.75327">
        <ele>100.11000061035</ele>
        <time>2023-10-01T13:52:14.000Z</time>
      </trkpt>
      <trkpt lat="42.07605" lon="19.75351">
        <ele>99.150001525879</ele>
        <time>2023-10-01T13:52:13.000Z</time>
      </trkpt>
      <trkpt lat="42.07599" lon="19.7536">
        <ele>99.150001525879</ele>
        <time>2023-10-01T13:52:12.000Z</time>
      </trkpt>
      <trkpt lat="42.0759" lon="19.75372">
        <ele>99.150001525879</ele>
        <time>2023-10-01T13:52:11.000Z</time>
      </trkpt>
      <trkpt lat="42.07585" lon="19.75381">
        <ele>99.150001525879</ele>
        <time>2023-10-01T13:52:10.000Z</time>
      </trkpt>
      <trkpt lat="42.07581" lon="19.75392">
        <ele>98.190002441406</ele>
        <time>2023-10-01T13:52:09.000Z</time>
      </trkpt>
      <trkpt lat="42.07581" lon="19.75404">
        <ele>98.669998168945</ele>
        <time>2023-10-01T13:52:08.000Z</time>
      </trkpt>
      <trkpt lat="42.07583" lon="19.75417">
        <ele>98.669998168945</ele>
        <time>2023-10-01T13:52:07.000Z</time>
      </trkpt>
      <trkpt lat="42.07585" lon="19.75426">
        <ele>98.669998168945</ele>
        <time>2023-10-01T13:52:06.000Z</time>
      </trkpt>
      <trkpt lat="42.07591" lon="19.75444">
        <ele>98.190002441406</ele>
        <time>2023-10-01T13:52:05.000Z</time>
      </trkpt>
      <trkpt lat="42.07593" lon="19.75453">
        <ele>98.190002441406</ele>
        <time>2023-10-01T13:52:04.000Z</time>
      </trkpt>
      <trkpt lat="42.07594" lon="19.75466">
        <ele>98.190002441406</ele>
        <time>2023-10-01T13:52:03.000Z</time>
      </trkpt>
      <trkpt lat="42.07595" lon="19.75477">
        <ele>98.190002441406</ele>
        <time>2023-10-01T13:52:02.000Z</time>
      </trkpt>
      <trkpt lat="42.07595" lon="19.75491">
        <ele>98.190002441406</ele>
        <time>2023-10-01T13:52:01.000Z</time>
      </trkpt>
      <trkpt lat="42.07595" lon="19.755">
        <ele>98.190002441406</ele>
        <time>2023-10-01T13:52:00.000Z</time>
      </trkpt>
      <trkpt lat="42.07596" lon="19.75514">
        <ele>98.669998168945</ele>
        <time>2023-10-01T13:51:59.000Z</time>
      </trkpt>
      <trkpt lat="42.07598" lon="19.75538">
        <ele>98.669998168945</ele>
        <time>2023-10-01T13:51:57.000Z</time>
      </trkpt>
      <trkpt lat="42.07601" lon="19.75551">
        <ele>98.669998168945</ele>
        <time>2023-10-01T13:51:56.000Z</time>
      </trkpt>
      <trkpt lat="42.07605" lon="19.75563">
        <ele>98.669998168945</ele>
        <time>2023-10-01T13:51:55.000Z</time>
      </trkpt>
      <trkpt lat="42.07611" lon="19.75573">
        <ele>98.669998168945</ele>
        <time>2023-10-01T13:51:54.000Z</time>
      </trkpt>
      <trkpt lat="42.07614" lon="19.75576">
        <ele>98.669998168945</ele>
        <time>2023-10-01T13:51:53.000Z</time>
      </trkpt>
      <trkpt lat="42.07628" lon="19.75597">
        <ele>99.150001525879</ele>
        <time>2023-10-01T13:51:52.000Z</time>
      </trkpt>
      <trkpt lat="42.07634" lon="19.75609">
        <ele>99.150001525879</ele>
        <time>2023-10-01T13:51:51.000Z</time>
      </trkpt>
      <trkpt lat="42.07638" lon="19.75622">
        <ele>99.150001525879</ele>
        <time>2023-10-01T13:51:50.000Z</time>
      </trkpt>
      <trkpt lat="42.07641" lon="19.75636">
        <ele>98.669998168945</ele>
        <time>2023-10-01T13:51:49.000Z</time>
      </trkpt>
      <trkpt lat="42.07641" lon="19.7565">
        <ele>98.190002441406</ele>
        <time>2023-10-01T13:51:48.000Z</time>
      </trkpt>
      <trkpt lat="42.07638" lon="19.75663">
        <ele>98.190002441406</ele>
        <time>2023-10-01T13:51:47.000Z</time>
      </trkpt>
      <trkpt lat="42.07636" lon="19.75672">
        <ele>97.709999084473</ele>
        <time>2023-10-01T13:51:46.000Z</time>
      </trkpt>
      <trkpt lat="42.07628" lon="19.75698">
        <ele>95.790000915527</ele>
        <time>2023-10-01T13:51:44.000Z</time>
      </trkpt>
      <trkpt lat="42.07556" lon="19.75873">
        <ele>86.660003662109</ele>
        <time>2023-10-01T13:51:37.000Z</time>
      </trkpt>
      <trkpt lat="42.0755" lon="19.75889">
        <ele>86.180000305176</ele>
        <time>2023-10-01T13:51:36.000Z</time>
      </trkpt>
      <trkpt lat="42.07545" lon="19.75904">
        <ele>85.690002441406</ele>
        <time>2023-10-01T13:51:35.000Z</time>
      </trkpt>
      <trkpt lat="42.075" lon="19.76071">
        <ele>80.889999389648</ele>
        <time>2023-10-01T13:51:29.000Z</time>
      </trkpt>
      <trkpt lat="42.07445" lon="19.7627">
        <ele>82.330001831055</ele>
        <time>2023-10-01T13:51:22.000Z</time>
      </trkpt>
      <trkpt lat="42.07392" lon="19.76438">
        <ele>81.849998474121</ele>
        <time>2023-10-01T13:51:15.000Z</time>
      </trkpt>
      <trkpt lat="42.07345" lon="19.76575">
        <ele>79.930000305176</ele>
        <time>2023-10-01T13:51:10.000Z</time>
      </trkpt>
      <trkpt lat="42.07336" lon="19.76604">
        <ele>79.930000305176</ele>
        <time>2023-10-01T13:51:09.000Z</time>
      </trkpt>
      <trkpt lat="42.07318" lon="19.76656">
        <ele>78</ele>
        <time>2023-10-01T13:51:07.000Z</time>
      </trkpt>
      <trkpt lat="42.07313" lon="19.76679">
        <ele>77.519996643066</ele>
        <time>2023-10-01T13:51:06.000Z</time>
      </trkpt>
      <trkpt lat="42.07311" lon="19.76701">
        <ele>77.519996643066</ele>
        <time>2023-10-01T13:51:05.000Z</time>
      </trkpt>
      <trkpt lat="42.07311" lon="19.76723">
        <ele>77.519996643066</ele>
        <time>2023-10-01T13:51:04.000Z</time>
      </trkpt>
      <trkpt lat="42.07312" lon="19.76727">
        <ele>77.519996643066</ele>
        <time>2023-10-01T13:51:03.000Z</time>
      </trkpt>
      <trkpt lat="42.07315" lon="19.76763">
        <ele>77.519996643066</ele>
        <time>2023-10-01T13:51:02.000Z</time>
      </trkpt>
      <trkpt lat="42.07316" lon="19.76783">
        <ele>78</ele>
        <time>2023-10-01T13:51:01.000Z</time>
      </trkpt>
      <trkpt lat="42.07316" lon="19.76798">
        <ele>78.480003356934</ele>
        <time>2023-10-01T13:51:00.000Z</time>
      </trkpt>
      <trkpt lat="42.07313" lon="19.76855">
        <ele>79.449996948242</ele>
        <time>2023-10-01T13:50:57.000Z</time>
      </trkpt>
      <trkpt lat="42.07312" lon="19.76866">
        <ele>79.449996948242</ele>
        <time>2023-10-01T13:50:56.000Z</time>
      </trkpt>
      <trkpt lat="42.07309" lon="19.76893">
        <ele>80.410003662109</ele>
        <time>2023-10-01T13:50:55.000Z</time>
      </trkpt>
      <trkpt lat="42.07301" lon="19.76965">
        <ele>80.889999389648</ele>
        <time>2023-10-01T13:50:51.000Z</time>
      </trkpt>
      <trkpt lat="42.073" lon="19.7698">
        <ele>80.889999389648</ele>
        <time>2023-10-01T13:50:50.000Z</time>
      </trkpt>
      <trkpt lat="42.073" lon="19.77003">
        <ele>81.370002746582</ele>
        <time>2023-10-01T13:50:49.000Z</time>
      </trkpt>
      <trkpt lat="42.07299" lon="19.77023">
        <ele>81.370002746582</ele>
        <time>2023-10-01T13:50:48.000Z</time>
      </trkpt>
      <trkpt lat="42.07296" lon="19.77039">
        <ele>81.849998474121</ele>
        <time>2023-10-01T13:50:47.000Z</time>
      </trkpt>
      <trkpt lat="42.07288" lon="19.77082">
        <ele>82.809997558594</ele>
        <time>2023-10-01T13:50:45.000Z</time>
      </trkpt>
      <trkpt lat="42.07287" lon="19.77099">
        <ele>83.769996643066</ele>
        <time>2023-10-01T13:50:44.000Z</time>
      </trkpt>
      <trkpt lat="42.07288" lon="19.77116">
        <ele>84.25</ele>
        <time>2023-10-01T13:50:43.000Z</time>
      </trkpt>
      <trkpt lat="42.07289" lon="19.77123">
        <ele>84.730003356934</ele>
        <time>2023-10-01T13:50:42.000Z</time>
      </trkpt>
      <trkpt lat="42.07295" lon="19.77149">
        <ele>86.180000305176</ele>
        <time>2023-10-01T13:50:41.000Z</time>
      </trkpt>
      <trkpt lat="42.07296" lon="19.77163">
        <ele>87.139999389648</ele>
        <time>2023-10-01T13:50:40.000Z</time>
      </trkpt>
      <trkpt lat="42.07295" lon="19.77173">
        <ele>87.620002746582</ele>
        <time>2023-10-01T13:50:39.000Z</time>
      </trkpt>
      <trkpt lat="42.07294" lon="19.77189">
        <ele>88.099998474121</ele>
        <time>2023-10-01T13:50:38.000Z</time>
      </trkpt>
      <trkpt lat="42.07293" lon="19.77198">
        <ele>88.580001831055</ele>
        <time>2023-10-01T13:50:37.000Z</time>
      </trkpt>
      <trkpt lat="42.0729" lon="19.77214">
        <ele>88.099998474121</ele>
        <time>2023-10-01T13:50:36.000Z</time>
      </trkpt>
      <trkpt lat="42.07288" lon="19.77223">
        <ele>87.620002746582</ele>
        <time>2023-10-01T13:50:35.000Z</time>
      </trkpt>
      <trkpt lat="42.07282" lon="19.77244">
        <ele>88.099998474121</ele>
        <time>2023-10-01T13:50:34.000Z</time>
      </trkpt>
      <trkpt lat="42.07278" lon="19.77262">
        <ele>87.620002746582</ele>
        <time>2023-10-01T13:50:33.000Z</time>
      </trkpt>
      <trkpt lat="42.07276" lon="19.77278">
        <ele>88.099998474121</ele>
        <time>2023-10-01T13:50:32.000Z</time>
      </trkpt>
      <trkpt lat="42.07274" lon="19.77297">
        <ele>88.099998474121</ele>
        <time>2023-10-01T13:50:31.000Z</time>
      </trkpt>
      <trkpt lat="42.07275" lon="19.77305">
        <ele>88.580001831055</ele>
        <time>2023-10-01T13:50:30.000Z</time>
      </trkpt>
      <trkpt lat="42.07281" lon="19.77407">
        <ele>88.099998474121</ele>
        <time>2023-10-01T13:50:26.000Z</time>
      </trkpt>
      <trkpt lat="42.07283" lon="19.77485">
        <ele>88.099998474121</ele>
        <time>2023-10-01T13:50:23.000Z</time>
      </trkpt>
      <trkpt lat="42.07282" lon="19.7751">
        <ele>87.139999389648</ele>
        <time>2023-10-01T13:50:22.000Z</time>
      </trkpt>
      <trkpt lat="42.0728" lon="19.77529">
        <ele>87.139999389648</ele>
        <time>2023-10-01T13:50:21.000Z</time>
      </trkpt>
      <trkpt lat="42.07278" lon="19.7755">
        <ele>86.660003662109</ele>
        <time>2023-10-01T13:50:20.000Z</time>
      </trkpt>
      <trkpt lat="42.07278" lon="19.77566">
        <ele>86.180000305176</ele>
        <time>2023-10-01T13:50:19.000Z</time>
      </trkpt>
      <trkpt lat="42.07277" lon="19.77584">
        <ele>85.209999084473</ele>
        <time>2023-10-01T13:50:18.000Z</time>
      </trkpt>
      <trkpt lat="42.07275" lon="19.77594">
        <ele>84.730003356934</ele>
        <time>2023-10-01T13:50:17.000Z</time>
      </trkpt>
      <trkpt lat="42.0727" lon="19.77602">
        <ele>83.769996643066</ele>
        <time>2023-10-01T13:50:16.000Z</time>
      </trkpt>
      <trkpt lat="42.07262" lon="19.77607">
        <ele>82.809997558594</ele>
        <time>2023-10-01T13:50:15.000Z</time>
      </trkpt>
      <trkpt lat="42.07259" lon="19.77608">
        <ele>82.809997558594</ele>
        <time>2023-10-01T13:50:14.000Z</time>
      </trkpt>
      <trkpt lat="42.07244" lon="19.77615">
        <ele>81.849998474121</ele>
        <time>2023-10-01T13:50:13.000Z</time>
      </trkpt>
      <trkpt lat="42.07237" lon="19.77622">
        <ele>81.849998474121</ele>
        <time>2023-10-01T13:50:12.000Z</time>
      </trkpt>
      <trkpt lat="42.07231" lon="19.77631">
        <ele>82.330001831055</ele>
        <time>2023-10-01T13:50:11.000Z</time>
      </trkpt>
      <trkpt lat="42.07226" lon="19.77646">
        <ele>82.330001831055</ele>
        <time>2023-10-01T13:50:10.000Z</time>
      </trkpt>
      <trkpt lat="42.07223" lon="19.77661">
        <ele>81.849998474121</ele>
        <time>2023-10-01T13:50:09.000Z</time>
      </trkpt>
      <trkpt lat="42.07221" lon="19.7767">
        <ele>81.849998474121</ele>
        <time>2023-10-01T13:50:08.000Z</time>
      </trkpt>
      <trkpt lat="42.07215" lon="19.77706">
        <ele>80.889999389648</ele>
        <time>2023-10-01T13:50:07.000Z</time>
      </trkpt>
      <trkpt lat="42.07209" lon="19.77734">
        <ele>81.849998474121</ele>
        <time>2023-10-01T13:50:06.000Z</time>
      </trkpt>
      <trkpt lat="42.07208" lon="19.77748">
        <ele>82.330001831055</ele>
        <time>2023-10-01T13:50:05.000Z</time>
      </trkpt>
      <trkpt lat="42.0721" lon="19.7776">
        <ele>83.290000915527</ele>
        <time>2023-10-01T13:50:04.000Z</time>
      </trkpt>
      <trkpt lat="42.07214" lon="19.7777">
        <ele>83.769996643066</ele>
        <time>2023-10-01T13:50:03.000Z</time>
      </trkpt>
      <trkpt lat="42.07221" lon="19.77777">
        <ele>84.730003356934</ele>
        <time>2023-10-01T13:50:02.000Z</time>
      </trkpt>
      <trkpt lat="42.07231" lon="19.77779">
        <ele>85.690002441406</ele>
        <time>2023-10-01T13:50:01.000Z</time>
      </trkpt>
      <trkpt lat="42.07233" lon="19.77779">
        <ele>85.690002441406</ele>
        <time>2023-10-01T13:50:00.000Z</time>
      </trkpt>
      <trkpt lat="42.07252" lon="19.77775">
        <ele>87.139999389648</ele>
        <time>2023-10-01T13:49:59.000Z</time>
      </trkpt>
      <trkpt lat="42.0726" lon="19.77777">
        <ele>88.099998474121</ele>
        <time>2023-10-01T13:49:58.000Z</time>
      </trkpt>
      <trkpt lat="42.07265" lon="19.77781">
        <ele>89.059997558594</ele>
        <time>2023-10-01T13:49:57.000Z</time>
      </trkpt>
      <trkpt lat="42.07269" lon="19.77791">
        <ele>89.540000915527</ele>
        <time>2023-10-01T13:49:56.000Z</time>
      </trkpt>
      <trkpt lat="42.07272" lon="19.77805">
        <ele>90.019996643066</ele>
        <time>2023-10-01T13:49:55.000Z</time>
      </trkpt>
      <trkpt lat="42.07275" lon="19.77817">
        <ele>90.980003356934</ele>
        <time>2023-10-01T13:49:54.000Z</time>
      </trkpt>
      <trkpt lat="42.07282" lon="19.77837">
        <ele>93.389999389648</ele>
        <time>2023-10-01T13:49:53.000Z</time>
      </trkpt>
      <trkpt lat="42.07283" lon="19.77848">
        <ele>94.349998474121</ele>
        <time>2023-10-01T13:49:52.000Z</time>
      </trkpt>
      <trkpt lat="42.07284" lon="19.77863">
        <ele>95.790000915527</ele>
        <time>2023-10-01T13:49:51.000Z</time>
      </trkpt>
      <trkpt lat="42.07286" lon="19.77874">
        <ele>96.75</ele>
        <time>2023-10-01T13:49:50.000Z</time>
      </trkpt>
      <trkpt lat="42.07292" lon="19.77885">
        <ele>98.190002441406</ele>
        <time>2023-10-01T13:49:49.000Z</time>
      </trkpt>
      <trkpt lat="42.07298" lon="19.77896">
        <ele>99.150001525879</ele>
        <time>2023-10-01T13:49:48.000Z</time>
      </trkpt>
      <trkpt lat="42.07304" lon="19.77909">
        <ele>100.59999847412</ele>
        <time>2023-10-01T13:49:47.000Z</time>
      </trkpt>
      <trkpt lat="42.07308" lon="19.7792">
        <ele>101.08000183105</ele>
        <time>2023-10-01T13:49:46.000Z</time>
      </trkpt>
      <trkpt lat="42.07312" lon="19.77935">
        <ele>101.55999755859</ele>
        <time>2023-10-01T13:49:45.000Z</time>
      </trkpt>
      <trkpt lat="42.07319" lon="19.77968">
        <ele>103.48000335693</ele>
        <time>2023-10-01T13:49:43.000Z</time>
      </trkpt>
      <trkpt lat="42.07324" lon="19.77984">
        <ele>104.44000244141</ele>
        <time>2023-10-01T13:49:42.000Z</time>
      </trkpt>
      <trkpt lat="42.07328" lon="19.77994">
        <ele>105.40000152588</ele>
        <time>2023-10-01T13:49:41.000Z</time>
      </trkpt>
      <trkpt lat="42.07339" lon="19.78013">
        <ele>106.83999633789</ele>
        <time>2023-10-01T13:49:40.000Z</time>
      </trkpt>
      <trkpt lat="42.07345" lon="19.78027">
        <ele>107.80999755859</ele>
        <time>2023-10-01T13:49:39.000Z</time>
      </trkpt>
      <trkpt lat="42.07348" lon="19.78042">
        <ele>109.25</ele>
        <time>2023-10-01T13:49:38.000Z</time>
      </trkpt>
      <trkpt lat="42.07349" lon="19.78058">
        <ele>110.20999908447</ele>
        <time>2023-10-01T13:49:37.000Z</time>
      </trkpt>
      <trkpt lat="42.07351" lon="19.78072">
        <ele>111.16999816895</ele>
        <time>2023-10-01T13:49:36.000Z</time>
      </trkpt>
      <trkpt lat="42.07355" lon="19.78087">
        <ele>112.61000061035</ele>
        <time>2023-10-01T13:49:35.000Z</time>
      </trkpt>
      <trkpt lat="42.07359" lon="19.78097">
        <ele>113.08999633789</ele>
        <time>2023-10-01T13:49:34.000Z</time>
      </trkpt>
      <trkpt lat="42.07367" lon="19.78112">
        <ele>114.5299987793</ele>
        <time>2023-10-01T13:49:33.000Z</time>
      </trkpt>
      <trkpt lat="42.07374" lon="19.78128">
        <ele>115.01000213623</ele>
        <time>2023-10-01T13:49:32.000Z</time>
      </trkpt>
      <trkpt lat="42.0738" lon="19.78142">
        <ele>116.45999908447</ele>
        <time>2023-10-01T13:49:31.000Z</time>
      </trkpt>
      <trkpt lat="42.0739" lon="19.78177">
        <ele>117.90000152588</ele>
        <time>2023-10-01T13:49:29.000Z</time>
      </trkpt>
      <trkpt lat="42.07398" lon="19.78198">
        <ele>118.37999725342</ele>
        <time>2023-10-01T13:49:28.000Z</time>
      </trkpt>
      <trkpt lat="42.07401" lon="19.78213">
        <ele>119.33999633789</ele>
        <time>2023-10-01T13:49:27.000Z</time>
      </trkpt>
      <trkpt lat="42.07402" lon="19.78221">
        <ele>119.81999969482</ele>
        <time>2023-10-01T13:49:26.000Z</time>
      </trkpt>
      <trkpt lat="42.07403" lon="19.78244">
        <ele>120.7799987793</ele>
        <time>2023-10-01T13:49:25.000Z</time>
      </trkpt>
      <trkpt lat="42.07406" lon="19.78258">
        <ele>121.26000213623</ele>
        <time>2023-10-01T13:49:24.000Z</time>
      </trkpt>
      <trkpt lat="42.07412" lon="19.78269">
        <ele>121.73999786377</ele>
        <time>2023-10-01T13:49:23.000Z</time>
      </trkpt>
      <trkpt lat="42.0742" lon="19.78279">
        <ele>122.2200012207</ele>
        <time>2023-10-01T13:49:22.000Z</time>
      </trkpt>
      <trkpt lat="42.07424" lon="19.78283">
        <ele>122.70999908447</ele>
        <time>2023-10-01T13:49:21.000Z</time>
      </trkpt>
      <trkpt lat="42.07438" lon="19.78293">
        <ele>124.15000152588</ele>
        <time>2023-10-01T13:49:20.000Z</time>
      </trkpt>
      <trkpt lat="42.07444" lon="19.78301">
        <ele>124.62999725342</ele>
        <time>2023-10-01T13:49:19.000Z</time>
      </trkpt>
      <trkpt lat="42.07447" lon="19.78312">
        <ele>125.11000061035</ele>
        <time>2023-10-01T13:49:18.000Z</time>
      </trkpt>
      <trkpt lat="42.07449" lon="19.78326">
        <ele>125.58999633789</ele>
        <time>2023-10-01T13:49:17.000Z</time>
      </trkpt>
      <trkpt lat="42.0745" lon="19.7834">
        <ele>126.06999969482</ele>
        <time>2023-10-01T13:49:16.000Z</time>
      </trkpt>
      <trkpt lat="42.07453" lon="19.78355">
        <ele>127.51000213623</ele>
        <time>2023-10-01T13:49:15.000Z</time>
      </trkpt>
      <trkpt lat="42.07459" lon="19.78371">
        <ele>127.98999786377</ele>
        <time>2023-10-01T13:49:14.000Z</time>
      </trkpt>
      <trkpt lat="42.07464" lon="19.78379">
        <ele>128.4700012207</ele>
        <time>2023-10-01T13:49:13.000Z</time>
      </trkpt>
      <trkpt lat="42.07476" lon="19.78394">
        <ele>129.42999267578</ele>
        <time>2023-10-01T13:49:12.000Z</time>
      </trkpt>
      <trkpt lat="42.07481" lon="19.78404">
        <ele>129.91999816895</ele>
        <time>2023-10-01T13:49:11.000Z</time>
      </trkpt>
      <trkpt lat="42.07484" lon="19.78416">
        <ele>129.91999816895</ele>
        <time>2023-10-01T13:49:10.000Z</time>
      </trkpt>
      <trkpt lat="42.07483" lon="19.78429">
        <ele>130.88000488281</ele>
        <time>2023-10-01T13:49:09.000Z</time>
      </trkpt>
      <trkpt lat="42.0748" lon="19.7844">
        <ele>131.36000061035</ele>
        <time>2023-10-01T13:49:08.000Z</time>
      </trkpt>
      <trkpt lat="42.07475" lon="19.78449">
        <ele>131.83999633789</ele>
        <time>2023-10-01T13:49:07.000Z</time>
      </trkpt>
      <trkpt lat="42.0747" lon="19.7846">
        <ele>131.83999633789</ele>
        <time>2023-10-01T13:49:06.000Z</time>
      </trkpt>
      <trkpt lat="42.07468" lon="19.78469">
        <ele>131.83999633789</ele>
        <time>2023-10-01T13:49:05.000Z</time>
      </trkpt>
      <trkpt lat="42.07468" lon="19.78477">
        <ele>132.32000732422</ele>
        <time>2023-10-01T13:49:04.000Z</time>
      </trkpt>
      <trkpt lat="42.0747" lon="19.78487">
        <ele>132.32000732422</ele>
        <time>2023-10-01T13:49:03.000Z</time>
      </trkpt>
      <trkpt lat="42.07474" lon="19.78495">
        <ele>132.80000305176</ele>
        <time>2023-10-01T13:49:02.000Z</time>
      </trkpt>
      <trkpt lat="42.07477" lon="19.78501">
        <ele>132.80000305176</ele>
        <time>2023-10-01T13:49:01.000Z</time>
      </trkpt>
      <trkpt lat="42.0749" lon="19.78524">
        <ele>132.32000732422</ele>
        <time>2023-10-01T13:49:00.000Z</time>
      </trkpt>
      <trkpt lat="42.07496" lon="19.78539">
        <ele>131.83999633789</ele>
        <time>2023-10-01T13:48:59.000Z</time>
      </trkpt>
      <trkpt lat="42.075" lon="19.78559">
        <ele>131.36000061035</ele>
        <time>2023-10-01T13:48:58.000Z</time>
      </trkpt>
      <trkpt lat="42.07502" lon="19.78567">
        <ele>131.36000061035</ele>
        <time>2023-10-01T13:48:57.000Z</time>
      </trkpt>
      <trkpt lat="42.07508" lon="19.78595">
        <ele>130.88000488281</ele>
        <time>2023-10-01T13:48:56.000Z</time>
      </trkpt>
      <trkpt lat="42.07513" lon="19.78628">
        <ele>129.91999816895</ele>
        <time>2023-10-01T13:48:54.000Z</time>
      </trkpt>
      <trkpt lat="42.07515" lon="19.78644">
        <ele>128.94999694824</ele>
        <time>2023-10-01T13:48:53.000Z</time>
      </trkpt>
      <trkpt lat="42.07514" lon="19.78658">
        <ele>128.4700012207</ele>
        <time>2023-10-01T13:48:52.000Z</time>
      </trkpt>
      <trkpt lat="42.07511" lon="19.7867">
        <ele>127.51000213623</ele>
        <time>2023-10-01T13:48:51.000Z</time>
      </trkpt>
      <trkpt lat="42.07505" lon="19.7868">
        <ele>126.55000305176</ele>
        <time>2023-10-01T13:48:50.000Z</time>
      </trkpt>
      <trkpt lat="42.07499" lon="19.78687">
        <ele>126.55000305176</ele>
        <time>2023-10-01T13:48:49.000Z</time>
      </trkpt>
      <trkpt lat="42.07492" lon="19.78692">
        <ele>126.06999969482</ele>
        <time>2023-10-01T13:48:48.000Z</time>
      </trkpt>
      <trkpt lat="42.07476" lon="19.78704">
        <ele>125.58999633789</ele>
        <time>2023-10-01T13:48:47.000Z</time>
      </trkpt>
      <trkpt lat="42.0747" lon="19.78711">
        <ele>125.58999633789</ele>
        <time>2023-10-01T13:48:46.000Z</time>
      </trkpt>
      <trkpt lat="42.07467" lon="19.7872">
        <ele>126.06999969482</ele>
        <time>2023-10-01T13:48:45.000Z</time>
      </trkpt>
      <trkpt lat="42.07468" lon="19.7873">
        <ele>127.0299987793</ele>
        <time>2023-10-01T13:48:44.000Z</time>
      </trkpt>
      <trkpt lat="42.07471" lon="19.78742">
        <ele>127.51000213623</ele>
        <time>2023-10-01T13:48:43.000Z</time>
      </trkpt>
      <trkpt lat="42.07475" lon="19.78751">
        <ele>127.98999786377</ele>
        <time>2023-10-01T13:48:42.000Z</time>
      </trkpt>
      <trkpt lat="42.07485" lon="19.78769">
        <ele>128.4700012207</ele>
        <time>2023-10-01T13:48:41.000Z</time>
      </trkpt>
      <trkpt lat="42.07489" lon="19.78776">
        <ele>128.94999694824</ele>
        <time>2023-10-01T13:48:40.000Z</time>
      </trkpt>
      <trkpt lat="42.07494" lon="19.78786">
        <ele>129.91999816895</ele>
        <time>2023-10-01T13:48:39.000Z</time>
      </trkpt>
      <trkpt lat="42.07498" lon="19.78795">
        <ele>130.39999389648</ele>
        <time>2023-10-01T13:48:38.000Z</time>
      </trkpt>
      <trkpt lat="42.07504" lon="19.78804">
        <ele>130.88000488281</ele>
        <time>2023-10-01T13:48:37.000Z</time>
      </trkpt>
      <trkpt lat="42.07508" lon="19.78811">
        <ele>131.36000061035</ele>
        <time>2023-10-01T13:48:36.000Z</time>
      </trkpt>
      <trkpt lat="42.07509" lon="19.78813">
        <ele>131.36000061035</ele>
        <time>2023-10-01T13:48:35.000Z</time>
      </trkpt>
      <trkpt lat="42.07515" lon="19.78828">
        <ele>133.75999450684</ele>
        <time>2023-10-01T13:48:31.000Z</time>
      </trkpt>
      <trkpt lat="42.07509" lon="19.78847">
        <ele>136.63999938965</ele>
        <time>2023-10-01T13:48:25.000Z</time>
      </trkpt>
      <trkpt lat="42.07504" lon="19.78851">
        <ele>137.61000061035</ele>
        <time>2023-10-01T13:48:24.000Z</time>
      </trkpt>
      <trkpt lat="42.07498" lon="19.78853">
        <ele>137.61000061035</ele>
        <time>2023-10-01T13:48:23.000Z</time>
      </trkpt>
      <trkpt lat="42.07494" lon="19.78854">
        <ele>137.61000061035</ele>
        <time>2023-10-01T13:48:22.000Z</time>
      </trkpt>
      <trkpt lat="42.07473" lon="19.78855">
        <ele>137.61000061035</ele>
        <time>2023-10-01T13:48:20.000Z</time>
      </trkpt>
      <trkpt lat="42.07462" lon="19.78856">
        <ele>138.08999633789</ele>
        <time>2023-10-01T13:48:19.000Z</time>
      </trkpt>
      <trkpt lat="42.07452" lon="19.78859">
        <ele>138.57000732422</ele>
        <time>2023-10-01T13:48:18.000Z</time>
      </trkpt>
      <trkpt lat="42.07439" lon="19.78866">
        <ele>139.05000305176</ele>
        <time>2023-10-01T13:48:17.000Z</time>
      </trkpt>
      <trkpt lat="42.07435" lon="19.78868">
        <ele>138.57000732422</ele>
        <time>2023-10-01T13:48:16.000Z</time>
      </trkpt>
      <trkpt lat="42.07389" lon="19.789">
        <ele>140.00999450684</ele>
        <time>2023-10-01T13:48:13.000Z</time>
      </trkpt>
      <trkpt lat="42.07382" lon="19.78907">
        <ele>140.00999450684</ele>
        <time>2023-10-01T13:48:12.000Z</time>
      </trkpt>
      <trkpt lat="42.07376" lon="19.78915">
        <ele>140.00999450684</ele>
        <time>2023-10-01T13:48:11.000Z</time>
      </trkpt>
      <trkpt lat="42.07372" lon="19.78922">
        <ele>140.00999450684</ele>
        <time>2023-10-01T13:48:10.000Z</time>
      </trkpt>
      <trkpt lat="42.07371" lon="19.7893">
        <ele>140.49000549316</ele>
        <time>2023-10-01T13:48:09.000Z</time>
      </trkpt>
      <trkpt lat="42.07371" lon="19.78939">
        <ele>140.49000549316</ele>
        <time>2023-10-01T13:48:08.000Z</time>
      </trkpt>
      <trkpt lat="42.07374" lon="19.78948">
        <ele>140.00999450684</ele>
        <time>2023-10-01T13:48:07.000Z</time>
      </trkpt>
      <trkpt lat="42.0738" lon="19.78957">
        <ele>140.49000549316</ele>
        <time>2023-10-01T13:48:06.000Z</time>
      </trkpt>
      <trkpt lat="42.07388" lon="19.78962">
        <ele>140.49000549316</ele>
        <time>2023-10-01T13:48:05.000Z</time>
      </trkpt>
      <trkpt lat="42.07393" lon="19.78963">
        <ele>140.49000549316</ele>
        <time>2023-10-01T13:48:04.000Z</time>
      </trkpt>
      <trkpt lat="42.07412" lon="19.78969">
        <ele>139.5299987793</ele>
        <time>2023-10-01T13:48:03.000Z</time>
      </trkpt>
      <trkpt lat="42.07425" lon="19.78975">
        <ele>138.57000732422</ele>
        <time>2023-10-01T13:48:02.000Z</time>
      </trkpt>
      <trkpt lat="42.07434" lon="19.78981">
        <ele>138.57000732422</ele>
        <time>2023-10-01T13:48:01.000Z</time>
      </trkpt>
      <trkpt lat="42.07451" lon="19.78994">
        <ele>137.61000061035</ele>
        <time>2023-10-01T13:48:00.000Z</time>
      </trkpt>
      <trkpt lat="42.07459" lon="19.78998">
        <ele>137.61000061035</ele>
        <time>2023-10-01T13:47:59.000Z</time>
      </trkpt>
      <trkpt lat="42.07507" lon="19.79017">
        <ele>136.16000366211</ele>
        <time>2023-10-01T13:47:56.000Z</time>
      </trkpt>
      <trkpt lat="42.07509" lon="19.79018">
        <ele>136.16000366211</ele>
        <time>2023-10-01T13:47:55.000Z</time>
      </trkpt>
      <trkpt lat="42.0753" lon="19.79029">
        <ele>135.67999267578</ele>
        <time>2023-10-01T13:47:54.000Z</time>
      </trkpt>
      <trkpt lat="42.07539" lon="19.79035">
        <ele>135.19999694824</ele>
        <time>2023-10-01T13:47:53.000Z</time>
      </trkpt>
      <trkpt lat="42.07546" lon="19.79042">
        <ele>135.19999694824</ele>
        <time>2023-10-01T13:47:52.000Z</time>
      </trkpt>
      <trkpt lat="42.07552" lon="19.79052">
        <ele>134.7200012207</ele>
        <time>2023-10-01T13:47:51.000Z</time>
      </trkpt>
      <trkpt lat="42.07557" lon="19.79065">
        <ele>134.7200012207</ele>
        <time>2023-10-01T13:47:50.000Z</time>
      </trkpt>
      <trkpt lat="42.0756" lon="19.79072">
        <ele>135.19999694824</ele>
        <time>2023-10-01T13:47:49.000Z</time>
      </trkpt>
      <trkpt lat="42.07564" lon="19.79083">
        <ele>135.19999694824</ele>
        <time>2023-10-01T13:47:48.000Z</time>
      </trkpt>
      <trkpt lat="42.07574" lon="19.7911">
        <ele>135.67999267578</ele>
        <time>2023-10-01T13:47:47.000Z</time>
      </trkpt>
      <trkpt lat="42.07579" lon="19.79121">
        <ele>135.67999267578</ele>
        <time>2023-10-01T13:47:46.000Z</time>
      </trkpt>
      <trkpt lat="42.07587" lon="19.79131">
        <ele>136.16000366211</ele>
        <time>2023-10-01T13:47:45.000Z</time>
      </trkpt>
      <trkpt lat="42.07592" lon="19.79136">
        <ele>136.63999938965</ele>
        <time>2023-10-01T13:47:44.000Z</time>
      </trkpt>
      <trkpt lat="42.07607" lon="19.79149">
        <ele>137.13000488281</ele>
        <time>2023-10-01T13:47:43.000Z</time>
      </trkpt>
      <trkpt lat="42.07615" lon="19.7916">
        <ele>138.08999633789</ele>
        <time>2023-10-01T13:47:42.000Z</time>
      </trkpt>
      <trkpt lat="42.07618" lon="19.79167">
        <ele>138.57000732422</ele>
        <time>2023-10-01T13:47:41.000Z</time>
      </trkpt>
      <trkpt lat="42.07624" lon="19.79183">
        <ele>138.57000732422</ele>
        <time>2023-10-01T13:47:40.000Z</time>
      </trkpt>
      <trkpt lat="42.0763" lon="19.79191">
        <ele>138.08999633789</ele>
        <time>2023-10-01T13:47:39.000Z</time>
      </trkpt>
      <trkpt lat="42.07638" lon="19.79197">
        <ele>138.08999633789</ele>
        <time>2023-10-01T13:47:38.000Z</time>
      </trkpt>
      <trkpt lat="42.07646" lon="19.79201">
        <ele>138.57000732422</ele>
        <time>2023-10-01T13:47:37.000Z</time>
      </trkpt>
      <trkpt lat="42.07653" lon="19.79204">
        <ele>138.57000732422</ele>
        <time>2023-10-01T13:47:36.000Z</time>
      </trkpt>
      <trkpt lat="42.0767" lon="19.7921">
        <ele>138.57000732422</ele>
        <time>2023-10-01T13:47:35.000Z</time>
      </trkpt>
      <trkpt lat="42.07679" lon="19.79214">
        <ele>139.05000305176</ele>
        <time>2023-10-01T13:47:34.000Z</time>
      </trkpt>
      <trkpt lat="42.07687" lon="19.79221">
        <ele>139.05000305176</ele>
        <time>2023-10-01T13:47:33.000Z</time>
      </trkpt>
      <trkpt lat="42.07694" lon="19.7923">
        <ele>139.05000305176</ele>
        <time>2023-10-01T13:47:32.000Z</time>
      </trkpt>
      <trkpt lat="42.07699" lon="19.7924">
        <ele>139.05000305176</ele>
        <time>2023-10-01T13:47:31.000Z</time>
      </trkpt>
      <trkpt lat="42.07701" lon="19.79249">
        <ele>139.05000305176</ele>
        <time>2023-10-01T13:47:30.000Z</time>
      </trkpt>
      <trkpt lat="42.077" lon="19.79259">
        <ele>138.57000732422</ele>
        <time>2023-10-01T13:47:29.000Z</time>
      </trkpt>
      <trkpt lat="42.07697" lon="19.79269">
        <ele>138.57000732422</ele>
        <time>2023-10-01T13:47:28.000Z</time>
      </trkpt>
      <trkpt lat="42.07692" lon="19.7928">
        <ele>138.57000732422</ele>
        <time>2023-10-01T13:47:27.000Z</time>
      </trkpt>
      <trkpt lat="42.07687" lon="19.7929">
        <ele>138.08999633789</ele>
        <time>2023-10-01T13:47:26.000Z</time>
      </trkpt>
      <trkpt lat="42.07682" lon="19.79296">
        <ele>138.08999633789</ele>
        <time>2023-10-01T13:47:25.000Z</time>
      </trkpt>
      <trkpt lat="42.07679" lon="19.79299">
        <ele>138.08999633789</ele>
        <time>2023-10-01T13:47:24.000Z</time>
      </trkpt>
      <trkpt lat="42.07626" lon="19.79349">
        <ele>130.88000488281</ele>
        <time>2023-10-01T13:47:19.000Z</time>
      </trkpt>
      <trkpt lat="42.07618" lon="19.79358">
        <ele>130.39999389648</ele>
        <time>2023-10-01T13:47:18.000Z</time>
      </trkpt>
      <trkpt lat="42.0761" lon="19.7937">
        <ele>129.91999816895</ele>
        <time>2023-10-01T13:47:17.000Z</time>
      </trkpt>
      <trkpt lat="42.07605" lon="19.79379">
        <ele>129.91999816895</ele>
        <time>2023-10-01T13:47:16.000Z</time>
      </trkpt>
      <trkpt lat="42.07598" lon="19.79398">
        <ele>129.91999816895</ele>
        <time>2023-10-01T13:47:14.000Z</time>
      </trkpt>
      <trkpt lat="42.07593" lon="19.79408">
        <ele>130.39999389648</ele>
        <time>2023-10-01T13:47:13.000Z</time>
      </trkpt>
      <trkpt lat="42.07588" lon="19.79417">
        <ele>130.88000488281</ele>
        <time>2023-10-01T13:47:12.000Z</time>
      </trkpt>
      <trkpt lat="42.07586" lon="19.79427">
        <ele>131.36000061035</ele>
        <time>2023-10-01T13:47:11.000Z</time>
      </trkpt>
      <trkpt lat="42.07586" lon="19.79435">
        <ele>131.36000061035</ele>
        <time>2023-10-01T13:47:10.000Z</time>
      </trkpt>
      <trkpt lat="42.07588" lon="19.79443">
        <ele>131.83999633789</ele>
        <time>2023-10-01T13:47:09.000Z</time>
      </trkpt>
      <trkpt lat="42.07593" lon="19.79449">
        <ele>132.32000732422</ele>
        <time>2023-10-01T13:47:08.000Z</time>
      </trkpt>
      <trkpt lat="42.076" lon="19.79454">
        <ele>132.80000305176</ele>
        <time>2023-10-01T13:47:07.000Z</time>
      </trkpt>
      <trkpt lat="42.07608" lon="19.79458">
        <ele>132.80000305176</ele>
        <time>2023-10-01T13:47:06.000Z</time>
      </trkpt>
      <trkpt lat="42.07617" lon="19.7946">
        <ele>132.32000732422</ele>
        <time>2023-10-01T13:47:05.000Z</time>
      </trkpt>
      <trkpt lat="42.07627" lon="19.79462">
        <ele>132.32000732422</ele>
        <time>2023-10-01T13:47:04.000Z</time>
      </trkpt>
      <trkpt lat="42.07633" lon="19.79462">
        <ele>132.80000305176</ele>
        <time>2023-10-01T13:47:03.000Z</time>
      </trkpt>
      <trkpt lat="42.07648" lon="19.79465">
        <ele>133.2799987793</ele>
        <time>2023-10-01T13:47:02.000Z</time>
      </trkpt>
      <trkpt lat="42.07667" lon="19.7947">
        <ele>134.24000549316</ele>
        <time>2023-10-01T13:47:01.000Z</time>
      </trkpt>
      <trkpt lat="42.07687" lon="19.79475">
        <ele>135.19999694824</ele>
        <time>2023-10-01T13:47:00.000Z</time>
      </trkpt>
      <trkpt lat="42.07701" lon="19.79476">
        <ele>136.16000366211</ele>
        <time>2023-10-01T13:46:59.000Z</time>
      </trkpt>
      <trkpt lat="42.07709" lon="19.79475">
        <ele>137.13000488281</ele>
        <time>2023-10-01T13:46:58.000Z</time>
      </trkpt>
      <trkpt lat="42.07727" lon="19.7947">
        <ele>138.08999633789</ele>
        <time>2023-10-01T13:46:57.000Z</time>
      </trkpt>
      <trkpt lat="42.07736" lon="19.79469">
        <ele>139.05000305176</ele>
        <time>2023-10-01T13:46:56.000Z</time>
      </trkpt>
      <trkpt lat="42.07762" lon="19.79463">
        <ele>140.9700012207</ele>
        <time>2023-10-01T13:46:54.000Z</time>
      </trkpt>
      <trkpt lat="42.07779" lon="19.79458">
        <ele>141.92999267578</ele>
        <time>2023-10-01T13:46:53.000Z</time>
      </trkpt>
      <trkpt lat="42.07784" lon="19.79457">
        <ele>141.92999267578</ele>
        <time>2023-10-01T13:46:52.000Z</time>
      </trkpt>
      <trkpt lat="42.07801" lon="19.7945">
        <ele>142.88999938965</ele>
        <time>2023-10-01T13:46:51.000Z</time>
      </trkpt>
      <trkpt lat="42.07806" lon="19.79449">
        <ele>142.88999938965</ele>
        <time>2023-10-01T13:46:50.000Z</time>
      </trkpt>
      <trkpt lat="42.07811" lon="19.79449">
        <ele>143.36999511719</ele>
        <time>2023-10-01T13:46:49.000Z</time>
      </trkpt>
      <trkpt lat="42.07818" lon="19.79454">
        <ele>143.85000610352</ele>
        <time>2023-10-01T13:46:47.000Z</time>
      </trkpt>
      <trkpt lat="42.07819" lon="19.79456">
        <ele>144.33999633789</ele>
        <time>2023-10-01T13:46:46.000Z</time>
      </trkpt>
      <trkpt lat="42.07832" lon="19.79475">
        <ele>145.7799987793</ele>
        <time>2023-10-01T13:46:41.000Z</time>
      </trkpt>
      <trkpt lat="42.07836" lon="19.79479">
        <ele>145.7799987793</ele>
        <time>2023-10-01T13:46:40.000Z</time>
      </trkpt>
      <trkpt lat="42.0784" lon="19.79486">
        <ele>146.25999450684</ele>
        <time>2023-10-01T13:46:39.000Z</time>
      </trkpt>
      <trkpt lat="42.07842" lon="19.79495">
        <ele>146.74000549316</ele>
        <time>2023-10-01T13:46:38.000Z</time>
      </trkpt>
      <trkpt lat="42.07842" lon="19.79505">
        <ele>147.2200012207</ele>
        <time>2023-10-01T13:46:37.000Z</time>
      </trkpt>
      <trkpt lat="42.07841" lon="19.79517">
        <ele>147.2200012207</ele>
        <time>2023-10-01T13:46:36.000Z</time>
      </trkpt>
      <trkpt lat="42.07839" lon="19.79529">
        <ele>147.2200012207</ele>
        <time>2023-10-01T13:46:35.000Z</time>
      </trkpt>
      <trkpt lat="42.07835" lon="19.79542">
        <ele>147.2200012207</ele>
        <time>2023-10-01T13:46:34.000Z</time>
      </trkpt>
      <trkpt lat="42.07832" lon="19.79549">
        <ele>147.69999694824</ele>
        <time>2023-10-01T13:46:33.000Z</time>
      </trkpt>
      <trkpt lat="42.07824" lon="19.79566">
        <ele>148.66000366211</ele>
        <time>2023-10-01T13:46:32.000Z</time>
      </trkpt>
      <trkpt lat="42.07818" lon="19.79581">
        <ele>149.13999938965</ele>
        <time>2023-10-01T13:46:31.000Z</time>
      </trkpt>
      <trkpt lat="42.07813" lon="19.79595">
        <ele>149.61999511719</ele>
        <time>2023-10-01T13:46:30.000Z</time>
      </trkpt>
      <trkpt lat="42.07812" lon="19.7961">
        <ele>150.58000183105</ele>
        <time>2023-10-01T13:46:29.000Z</time>
      </trkpt>
      <trkpt lat="42.07811" lon="19.79616">
        <ele>150.58000183105</ele>
        <time>2023-10-01T13:46:28.000Z</time>
      </trkpt>
      <trkpt lat="42.07812" lon="19.79634">
        <ele>152.0299987793</ele>
        <time>2023-10-01T13:46:27.000Z</time>
      </trkpt>
      <trkpt lat="42.07813" lon="19.79647">
        <ele>152.99000549316</ele>
        <time>2023-10-01T13:46:26.000Z</time>
      </trkpt>
      <trkpt lat="42.07815" lon="19.7966">
        <ele>153.94999694824</ele>
        <time>2023-10-01T13:46:25.000Z</time>
      </trkpt>
      <trkpt lat="42.07815" lon="19.79663">
        <ele>153.94999694824</ele>
        <time>2023-10-01T13:46:24.000Z</time>
      </trkpt>
      <trkpt lat="42.07825" lon="19.79708">
        <ele>156.83000183105</ele>
        <time>2023-10-01T13:46:21.000Z</time>
      </trkpt>
      <trkpt lat="42.07828" lon="19.79721">
        <ele>157.78999328613</ele>
        <time>2023-10-01T13:46:20.000Z</time>
      </trkpt>
      <trkpt lat="42.0783" lon="19.7973">
        <ele>157.78999328613</ele>
        <time>2023-10-01T13:46:19.000Z</time>
      </trkpt>
      <trkpt lat="42.07833" lon="19.79736">
        <ele>158.27000427246</ele>
        <time>2023-10-01T13:46:18.000Z</time>
      </trkpt>
      <trkpt lat="42.07836" lon="19.7974">
        <ele>158.75</ele>
        <time>2023-10-01T13:46:17.000Z</time>
      </trkpt>
      <trkpt lat="42.07841" lon="19.79745">
        <ele>159.24000549316</ele>
        <time>2023-10-01T13:46:16.000Z</time>
      </trkpt>
      <trkpt lat="42.07846" lon="19.79748">
        <ele>159.7200012207</ele>
        <time>2023-10-01T13:46:15.000Z</time>
      </trkpt>
      <trkpt lat="42.07852" lon="19.79749">
        <ele>160.67999267578</ele>
        <time>2023-10-01T13:46:14.000Z</time>
      </trkpt>
      <trkpt lat="42.07857" lon="19.79748">
        <ele>161.63999938965</ele>
        <time>2023-10-01T13:46:13.000Z</time>
      </trkpt>
      <trkpt lat="42.07862" lon="19.79746">
        <ele>162.11999511719</ele>
        <time>2023-10-01T13:46:12.000Z</time>
      </trkpt>
      <trkpt lat="42.07866" lon="19.79743">
        <ele>163.08000183105</ele>
        <time>2023-10-01T13:46:11.000Z</time>
      </trkpt>
      <trkpt lat="42.07871" lon="19.7974">
        <ele>164.03999328613</ele>
        <time>2023-10-01T13:46:09.000Z</time>
      </trkpt>
      <trkpt lat="42.07878" lon="19.79737">
        <ele>165</ele>
        <time>2023-10-01T13:46:08.000Z</time>
      </trkpt>
      <trkpt lat="42.07883" lon="19.79734">
        <ele>165.96000671387</ele>
        <time>2023-10-01T13:46:07.000Z</time>
      </trkpt>
      <trkpt lat="42.07885" lon="19.79734">
        <ele>166.44999694824</ele>
        <time>2023-10-01T13:46:06.000Z</time>
      </trkpt>
      <trkpt lat="42.079" lon="19.79731">
        <ele>167.88999938965</ele>
        <time>2023-10-01T13:46:02.000Z</time>
      </trkpt>
      <trkpt lat="42.07909" lon="19.79726">
        <ele>168.85000610352</ele>
        <time>2023-10-01T13:46:00.000Z</time>
      </trkpt>
      <trkpt lat="42.07925" lon="19.79716">
        <ele>170.28999328613</ele>
        <time>2023-10-01T13:45:58.000Z</time>
      </trkpt>
      <trkpt lat="42.07931" lon="19.79713">
        <ele>170.28999328613</ele>
        <time>2023-10-01T13:45:57.000Z</time>
      </trkpt>
      <trkpt lat="42.07937" lon="19.79711">
        <ele>170.77000427246</ele>
        <time>2023-10-01T13:45:56.000Z</time>
      </trkpt>
      <trkpt lat="42.07944" lon="19.79709">
        <ele>171.25</ele>
        <time>2023-10-01T13:45:55.000Z</time>
      </trkpt>
      <trkpt lat="42.07957" lon="19.79708">
        <ele>171.72999572754</ele>
        <time>2023-10-01T13:45:53.000Z</time>
      </trkpt>
      <trkpt lat="42.07965" lon="19.79709">
        <ele>172.21000671387</ele>
        <time>2023-10-01T13:45:51.000Z</time>
      </trkpt>
      <trkpt lat="42.07984" lon="19.79715">
        <ele>170.77000427246</ele>
        <time>2023-10-01T13:45:45.000Z</time>
      </trkpt>
      <trkpt lat="42.07988" lon="19.79717">
        <ele>170.28999328613</ele>
        <time>2023-10-01T13:45:44.000Z</time>
      </trkpt>
      <trkpt lat="42.07994" lon="19.79721">
        <ele>169.80999755859</ele>
        <time>2023-10-01T13:45:43.000Z</time>
      </trkpt>
      <trkpt lat="42.08" lon="19.79728">
        <ele>169.33000183105</ele>
        <time>2023-10-01T13:45:42.000Z</time>
      </trkpt>
      <trkpt lat="42.08008" lon="19.79738">
        <ele>168.36999511719</ele>
        <time>2023-10-01T13:45:41.000Z</time>
      </trkpt>
      <trkpt lat="42.08011" lon="19.79743">
        <ele>167.88999938965</ele>
        <time>2023-10-01T13:45:40.000Z</time>
      </trkpt>
      <trkpt lat="42.08025" lon="19.79758">
        <ele>165.96000671387</ele>
        <time>2023-10-01T13:45:39.000Z</time>
      </trkpt>
      <trkpt lat="42.08032" lon="19.79767">
        <ele>164.52000427246</ele>
        <time>2023-10-01T13:45:38.000Z</time>
      </trkpt>
      <trkpt lat="42.08038" lon="19.79778">
        <ele>163.55999755859</ele>
        <time>2023-10-01T13:45:37.000Z</time>
      </trkpt>
      <trkpt lat="42.08039" lon="19.79788">
        <ele>162.60000610352</ele>
        <time>2023-10-01T13:45:36.000Z</time>
      </trkpt>
      <trkpt lat="42.08038" lon="19.79798">
        <ele>160.67999267578</ele>
        <time>2023-10-01T13:45:35.000Z</time>
      </trkpt>
      <trkpt lat="42.08034" lon="19.79808">
        <ele>159.7200012207</ele>
        <time>2023-10-01T13:45:34.000Z</time>
      </trkpt>
      <trkpt lat="42.08028" lon="19.79817">
        <ele>158.75</ele>
        <time>2023-10-01T13:45:33.000Z</time>
      </trkpt>
      <trkpt lat="42.08022" lon="19.79828">
        <ele>158.75</ele>
        <time>2023-10-01T13:45:32.000Z</time>
      </trkpt>
      <trkpt lat="42.08017" lon="19.79844">
        <ele>157.30999755859</ele>
        <time>2023-10-01T13:45:31.000Z</time>
      </trkpt>
      <trkpt lat="42.08015" lon="19.79861">
        <ele>156.35000610352</ele>
        <time>2023-10-01T13:45:30.000Z</time>
      </trkpt>
      <trkpt lat="42.08014" lon="19.79878">
        <ele>154.91000366211</ele>
        <time>2023-10-01T13:45:29.000Z</time>
      </trkpt>
      <trkpt lat="42.08016" lon="19.79894">
        <ele>154.42999267578</ele>
        <time>2023-10-01T13:45:28.000Z</time>
      </trkpt>
      <trkpt lat="42.08021" lon="19.79907">
        <ele>153.94999694824</ele>
        <time>2023-10-01T13:45:27.000Z</time>
      </trkpt>
      <trkpt lat="42.08022" lon="19.7991">
        <ele>153.4700012207</ele>
        <time>2023-10-01T13:45:26.000Z</time>
      </trkpt>
      <trkpt lat="42.0803" lon="19.79926">
        <ele>152.0299987793</ele>
        <time>2023-10-01T13:45:25.000Z</time>
      </trkpt>
      <trkpt lat="42.08043" lon="19.79953">
        <ele>149.61999511719</ele>
        <time>2023-10-01T13:45:24.000Z</time>
      </trkpt>
      <trkpt lat="42.0805" lon="19.79966">
        <ele>148.66000366211</ele>
        <time>2023-10-01T13:45:23.000Z</time>
      </trkpt>
      <trkpt lat="42.08058" lon="19.79977">
        <ele>147.69999694824</ele>
        <time>2023-10-01T13:45:22.000Z</time>
      </trkpt>
      <trkpt lat="42.08066" lon="19.79985">
        <ele>146.74000549316</ele>
        <time>2023-10-01T13:45:21.000Z</time>
      </trkpt>
      <trkpt lat="42.08076" lon="19.79991">
        <ele>145.7799987793</ele>
        <time>2023-10-01T13:45:20.000Z</time>
      </trkpt>
      <trkpt lat="42.08083" lon="19.79996">
        <ele>144.82000732422</ele>
        <time>2023-10-01T13:45:19.000Z</time>
      </trkpt>
      <trkpt lat="42.08089" lon="19.80005">
        <ele>144.33999633789</ele>
        <time>2023-10-01T13:45:18.000Z</time>
      </trkpt>
      <trkpt lat="42.08092" lon="19.80016">
        <ele>143.36999511719</ele>
        <time>2023-10-01T13:45:17.000Z</time>
      </trkpt>
      <trkpt lat="42.08093" lon="19.80021">
        <ele>143.36999511719</ele>
        <time>2023-10-01T13:45:16.000Z</time>
      </trkpt>
      <trkpt lat="42.08096" lon="19.80042">
        <ele>141.92999267578</ele>
        <time>2023-10-01T13:45:15.000Z</time>
      </trkpt>
      <trkpt lat="42.08099" lon="19.80054">
        <ele>140.49000549316</ele>
        <time>2023-10-01T13:45:14.000Z</time>
      </trkpt>
      <trkpt lat="42.08104" lon="19.80063">
        <ele>139.05000305176</ele>
        <time>2023-10-01T13:45:13.000Z</time>
      </trkpt>
      <trkpt lat="42.08112" lon="19.80075">
        <ele>138.08999633789</ele>
        <time>2023-10-01T13:45:12.000Z</time>
      </trkpt>
      <trkpt lat="42.08121" lon="19.80088">
        <ele>136.63999938965</ele>
        <time>2023-10-01T13:45:11.000Z</time>
      </trkpt>
      <trkpt lat="42.08128" lon="19.80102">
        <ele>135.19999694824</ele>
        <time>2023-10-01T13:45:10.000Z</time>
      </trkpt>
      <trkpt lat="42.08131" lon="19.8011">
        <ele>134.24000549316</ele>
        <time>2023-10-01T13:45:09.000Z</time>
      </trkpt>
      <trkpt lat="42.0814" lon="19.80131">
        <ele>132.32000732422</ele>
        <time>2023-10-01T13:45:08.000Z</time>
      </trkpt>
      <trkpt lat="42.0815" lon="19.80146">
        <ele>131.36000061035</ele>
        <time>2023-10-01T13:45:07.000Z</time>
      </trkpt>
      <trkpt lat="42.08154" lon="19.80151">
        <ele>130.88000488281</ele>
        <time>2023-10-01T13:45:06.000Z</time>
      </trkpt>
      <trkpt lat="42.08166" lon="19.80164">
        <ele>129.91999816895</ele>
        <time>2023-10-01T13:45:05.000Z</time>
      </trkpt>
      <trkpt lat="42.08215" lon="19.8022">
        <ele>123.66999816895</ele>
        <time>2023-10-01T13:45:00.000Z</time>
      </trkpt>
      <trkpt lat="42.0822" lon="19.80228">
        <ele>122.70999908447</ele>
        <time>2023-10-01T13:44:59.000Z</time>
      </trkpt>
      <trkpt lat="42.08224" lon="19.80236">
        <ele>121.73999786377</ele>
        <time>2023-10-01T13:44:58.000Z</time>
      </trkpt>
      <trkpt lat="42.08224" lon="19.80245">
        <ele>120.7799987793</ele>
        <time>2023-10-01T13:44:57.000Z</time>
      </trkpt>
      <trkpt lat="42.08223" lon="19.80254">
        <ele>120.30000305176</ele>
        <time>2023-10-01T13:44:56.000Z</time>
      </trkpt>
      <trkpt lat="42.0822" lon="19.80269">
        <ele>120.30000305176</ele>
        <time>2023-10-01T13:44:55.000Z</time>
      </trkpt>
      <trkpt lat="42.08217" lon="19.80282">
        <ele>119.33999633789</ele>
        <time>2023-10-01T13:44:54.000Z</time>
      </trkpt>
      <trkpt lat="42.08217" lon="19.80295">
        <ele>118.86000061035</ele>
        <time>2023-10-01T13:44:53.000Z</time>
      </trkpt>
      <trkpt lat="42.0822" lon="19.80307">
        <ele>117.90000152588</ele>
        <time>2023-10-01T13:44:52.000Z</time>
      </trkpt>
      <trkpt lat="42.08225" lon="19.80319">
        <ele>117.41999816895</ele>
        <time>2023-10-01T13:44:51.000Z</time>
      </trkpt>
      <trkpt lat="42.08233" lon="19.80328">
        <ele>116.45999908447</ele>
        <time>2023-10-01T13:44:50.000Z</time>
      </trkpt>
      <trkpt lat="42.08242" lon="19.80333">
        <ele>115.01000213623</ele>
        <time>2023-10-01T13:44:49.000Z</time>
      </trkpt>
      <trkpt lat="42.08253" lon="19.80335">
        <ele>114.5299987793</ele>
        <time>2023-10-01T13:44:48.000Z</time>
      </trkpt>
      <trkpt lat="42.08265" lon="19.80332">
        <ele>113.56999969482</ele>
        <time>2023-10-01T13:44:47.000Z</time>
      </trkpt>
      <trkpt lat="42.08275" lon="19.80327">
        <ele>112.61000061035</ele>
        <time>2023-10-01T13:44:46.000Z</time>
      </trkpt>
      <trkpt lat="42.08288" lon="19.80319">
        <ele>111.65000152588</ele>
        <time>2023-10-01T13:44:45.000Z</time>
      </trkpt>
      <trkpt lat="42.08299" lon="19.80314">
        <ele>110.69000244141</ele>
        <time>2023-10-01T13:44:44.000Z</time>
      </trkpt>
      <trkpt lat="42.0831" lon="19.80313">
        <ele>109.73000335693</ele>
        <time>2023-10-01T13:44:43.000Z</time>
      </trkpt>
      <trkpt lat="42.08319" lon="19.80316">
        <ele>109.25</ele>
        <time>2023-10-01T13:44:42.000Z</time>
      </trkpt>
      <trkpt lat="42.0833" lon="19.80326">
        <ele>108.76999664307</ele>
        <time>2023-10-01T13:44:41.000Z</time>
      </trkpt>
      <trkpt lat="42.08332" lon="19.80328">
        <ele>108.76999664307</ele>
        <time>2023-10-01T13:44:40.000Z</time>
      </trkpt>
      <trkpt lat="42.08389" lon="19.80407">
        <ele>101.08000183105</ele>
        <time>2023-10-01T13:44:36.000Z</time>
      </trkpt>
      <trkpt lat="42.08402" lon="19.80423">
        <ele>99.629997253418</ele>
        <time>2023-10-01T13:44:35.000Z</time>
      </trkpt>
      <trkpt lat="42.08412" lon="19.80438">
        <ele>98.190002441406</ele>
        <time>2023-10-01T13:44:34.000Z</time>
      </trkpt>
      <trkpt lat="42.0842" lon="19.80453">
        <ele>96.75</ele>
        <time>2023-10-01T13:44:33.000Z</time>
      </trkpt>
      <trkpt lat="42.08425" lon="19.80471">
        <ele>95.309997558594</ele>
        <time>2023-10-01T13:44:32.000Z</time>
      </trkpt>
      <trkpt lat="42.08429" lon="19.80488">
        <ele>93.870002746582</ele>
        <time>2023-10-01T13:44:31.000Z</time>
      </trkpt>
      <trkpt lat="42.08432" lon="19.80505">
        <ele>91.940002441406</ele>
        <time>2023-10-01T13:44:30.000Z</time>
      </trkpt>
      <trkpt lat="42.08437" lon="19.80522">
        <ele>90.5</ele>
        <time>2023-10-01T13:44:29.000Z</time>
      </trkpt>
      <trkpt lat="42.08443" lon="19.80538">
        <ele>89.540000915527</ele>
        <time>2023-10-01T13:44:28.000Z</time>
      </trkpt>
      <trkpt lat="42.0849" lon="19.80634">
        <ele>83.290000915527</ele>
        <time>2023-10-01T13:44:22.000Z</time>
      </trkpt>
      <trkpt lat="42.08495" lon="19.80648">
        <ele>82.330001831055</ele>
        <time>2023-10-01T13:44:21.000Z</time>
      </trkpt>
      <trkpt lat="42.08497" lon="19.80661">
        <ele>81.849998474121</ele>
        <time>2023-10-01T13:44:20.000Z</time>
      </trkpt>
      <trkpt lat="42.08496" lon="19.80675">
        <ele>81.370002746582</ele>
        <time>2023-10-01T13:44:19.000Z</time>
      </trkpt>
      <trkpt lat="42.08494" lon="19.80689">
        <ele>80.889999389648</ele>
        <time>2023-10-01T13:44:18.000Z</time>
      </trkpt>
      <trkpt lat="42.08492" lon="19.80701">
        <ele>80.410003662109</ele>
        <time>2023-10-01T13:44:17.000Z</time>
      </trkpt>
      <trkpt lat="42.08491" lon="19.80712">
        <ele>79.930000305176</ele>
        <time>2023-10-01T13:44:16.000Z</time>
      </trkpt>
      <trkpt lat="42.0849" lon="19.80722">
        <ele>79.449996948242</ele>
        <time>2023-10-01T13:44:15.000Z</time>
      </trkpt>
      <trkpt lat="42.08488" lon="19.80732">
        <ele>78.970001220703</ele>
        <time>2023-10-01T13:44:14.000Z</time>
      </trkpt>
      <trkpt lat="42.08486" lon="19.80739">
        <ele>78.970001220703</ele>
        <time>2023-10-01T13:44:13.000Z</time>
      </trkpt>
      <trkpt lat="42.08484" lon="19.80746">
        <ele>78.480003356934</ele>
        <time>2023-10-01T13:44:12.000Z</time>
      </trkpt>
      <trkpt lat="42.0848" lon="19.80751">
        <ele>78.480003356934</ele>
        <time>2023-10-01T13:44:11.000Z</time>
      </trkpt>
      <trkpt lat="42.08476" lon="19.80757">
        <ele>78</ele>
        <time>2023-10-01T13:44:10.000Z</time>
      </trkpt>
      <trkpt lat="42.08472" lon="19.8076">
        <ele>78</ele>
        <time>2023-10-01T13:44:09.000Z</time>
      </trkpt>
      <trkpt lat="42.08459" lon="19.80772">
        <ele>78</ele>
        <time>2023-10-01T13:44:07.000Z</time>
      </trkpt>
      <trkpt lat="42.08455" lon="19.80776">
        <ele>78</ele>
        <time>2023-10-01T13:44:06.000Z</time>
      </trkpt>
      <trkpt lat="42.0845" lon="19.80783">
        <ele>77.519996643066</ele>
        <time>2023-10-01T13:44:05.000Z</time>
      </trkpt>
      <trkpt lat="42.08445" lon="19.8079">
        <ele>77.519996643066</ele>
        <time>2023-10-01T13:44:04.000Z</time>
      </trkpt>
      <trkpt lat="42.08442" lon="19.80797">
        <ele>77.519996643066</ele>
        <time>2023-10-01T13:44:03.000Z</time>
      </trkpt>
      <trkpt lat="42.08441" lon="19.80807">
        <ele>78</ele>
        <time>2023-10-01T13:44:02.000Z</time>
      </trkpt>
      <trkpt lat="42.08441" lon="19.80817">
        <ele>78</ele>
        <time>2023-10-01T13:44:01.000Z</time>
      </trkpt>
      <trkpt lat="42.08443" lon="19.80827">
        <ele>78</ele>
        <time>2023-10-01T13:44:00.000Z</time>
      </trkpt>
      <trkpt lat="42.08445" lon="19.80835">
        <ele>78</ele>
        <time>2023-10-01T13:43:59.000Z</time>
      </trkpt>
      <trkpt lat="42.0845" lon="19.80846">
        <ele>78</ele>
        <time>2023-10-01T13:43:58.000Z</time>
      </trkpt>
      <trkpt lat="42.08454" lon="19.80855">
        <ele>78.480003356934</ele>
        <time>2023-10-01T13:43:57.000Z</time>
      </trkpt>
      <trkpt lat="42.08459" lon="19.80863">
        <ele>78.970001220703</ele>
        <time>2023-10-01T13:43:56.000Z</time>
      </trkpt>
      <trkpt lat="42.08462" lon="19.80866">
        <ele>78.970001220703</ele>
        <time>2023-10-01T13:43:55.000Z</time>
      </trkpt>
      <trkpt lat="42.0847" lon="19.80875">
        <ele>79.449996948242</ele>
        <time>2023-10-01T13:43:54.000Z</time>
      </trkpt>
      <trkpt lat="42.08474" lon="19.80878">
        <ele>79.449996948242</ele>
        <time>2023-10-01T13:43:53.000Z</time>
      </trkpt>
      <trkpt lat="42.08482" lon="19.80885">
        <ele>79.930000305176</ele>
        <time>2023-10-01T13:43:52.000Z</time>
      </trkpt>
      <trkpt lat="42.08487" lon="19.80891">
        <ele>80.410003662109</ele>
        <time>2023-10-01T13:43:51.000Z</time>
      </trkpt>
      <trkpt lat="42.08491" lon="19.80897">
        <ele>80.889999389648</ele>
        <time>2023-10-01T13:43:50.000Z</time>
      </trkpt>
      <trkpt lat="42.08495" lon="19.80905">
        <ele>81.370002746582</ele>
        <time>2023-10-01T13:43:49.000Z</time>
      </trkpt>
      <trkpt lat="42.08497" lon="19.80916">
        <ele>81.849998474121</ele>
        <time>2023-10-01T13:43:48.000Z</time>
      </trkpt>
      <trkpt lat="42.08507" lon="19.80975">
        <ele>85.690002441406</ele>
        <time>2023-10-01T13:43:44.000Z</time>
      </trkpt>
      <trkpt lat="42.08508" lon="19.80994">
        <ele>87.139999389648</ele>
        <time>2023-10-01T13:43:43.000Z</time>
      </trkpt>
      <trkpt lat="42.08507" lon="19.81015">
        <ele>88.099998474121</ele>
        <time>2023-10-01T13:43:42.000Z</time>
      </trkpt>
      <trkpt lat="42.08507" lon="19.81022">
        <ele>88.099998474121</ele>
        <time>2023-10-01T13:43:41.000Z</time>
      </trkpt>
      <trkpt lat="42.08504" lon="19.81054">
        <ele>90.019996643066</ele>
        <time>2023-10-01T13:43:40.000Z</time>
      </trkpt>
      <trkpt lat="42.08504" lon="19.8107">
        <ele>91.459999084473</ele>
        <time>2023-10-01T13:43:39.000Z</time>
      </trkpt>
      <trkpt lat="42.08507" lon="19.81083">
        <ele>92.900001525879</ele>
        <time>2023-10-01T13:43:38.000Z</time>
      </trkpt>
      <trkpt lat="42.08511" lon="19.81092">
        <ele>93.870002746582</ele>
        <time>2023-10-01T13:43:37.000Z</time>
      </trkpt>
      <trkpt lat="42.08519" lon="19.81105">
        <ele>94.830001831055</ele>
        <time>2023-10-01T13:43:36.000Z</time>
      </trkpt>
      <trkpt lat="42.08524" lon="19.81111">
        <ele>95.790000915527</ele>
        <time>2023-10-01T13:43:35.000Z</time>
      </trkpt>
      <trkpt lat="42.08534" lon="19.8112">
        <ele>97.230003356934</ele>
        <time>2023-10-01T13:43:34.000Z</time>
      </trkpt>
      <trkpt lat="42.08547" lon="19.81136">
        <ele>98.669998168945</ele>
        <time>2023-10-01T13:43:33.000Z</time>
      </trkpt>
      <trkpt lat="42.08557" lon="19.8115">
        <ele>100.11000061035</ele>
        <time>2023-10-01T13:43:32.000Z</time>
      </trkpt>
      <trkpt lat="42.08566" lon="19.81164">
        <ele>101.55999755859</ele>
        <time>2023-10-01T13:43:31.000Z</time>
      </trkpt>
      <trkpt lat="42.08571" lon="19.81173">
        <ele>102.04000091553</ele>
        <time>2023-10-01T13:43:30.000Z</time>
      </trkpt>
      <trkpt lat="42.08588" lon="19.81206">
        <ele>104.91999816895</ele>
        <time>2023-10-01T13:43:29.000Z</time>
      </trkpt>
      <trkpt lat="42.08598" lon="19.81222">
        <ele>106.83999633789</ele>
        <time>2023-10-01T13:43:28.000Z</time>
      </trkpt>
      <trkpt lat="42.08605" lon="19.81231">
        <ele>107.80999755859</ele>
        <time>2023-10-01T13:43:27.000Z</time>
      </trkpt>
      <trkpt lat="42.08616" lon="19.81244">
        <ele>109.25</ele>
        <time>2023-10-01T13:43:26.000Z</time>
      </trkpt>
      <trkpt lat="42.08633" lon="19.81262">
        <ele>111.16999816895</ele>
        <time>2023-10-01T13:43:25.000Z</time>
      </trkpt>
      <trkpt lat="42.08635" lon="19.81265">
        <ele>111.16999816895</ele>
        <time>2023-10-01T13:43:24.000Z</time>
      </trkpt>
      <trkpt lat="42.08656" lon="19.81284">
        <ele>113.08999633789</ele>
        <time>2023-10-01T13:43:23.000Z</time>
      </trkpt>
      <trkpt lat="42.08681" lon="19.81306">
        <ele>115.5</ele>
        <time>2023-10-01T13:43:21.000Z</time>
      </trkpt>
      <trkpt lat="42.08693" lon="19.81313">
        <ele>116.45999908447</ele>
        <time>2023-10-01T13:43:20.000Z</time>
      </trkpt>
      <trkpt lat="42.087" lon="19.81316">
        <ele>116.94000244141</ele>
        <time>2023-10-01T13:43:19.000Z</time>
      </trkpt>
      <trkpt lat="42.08739" lon="19.81331">
        <ele>119.81999969482</ele>
        <time>2023-10-01T13:43:16.000Z</time>
      </trkpt>
      <trkpt lat="42.08748" lon="19.81334">
        <ele>120.30000305176</ele>
        <time>2023-10-01T13:43:15.000Z</time>
      </trkpt>
      <trkpt lat="42.08756" lon="19.81336">
        <ele>120.30000305176</ele>
        <time>2023-10-01T13:43:14.000Z</time>
      </trkpt>
      <trkpt lat="42.08764" lon="19.81336">
        <ele>120.7799987793</ele>
        <time>2023-10-01T13:43:13.000Z</time>
      </trkpt>
      <trkpt lat="42.08772" lon="19.81333">
        <ele>120.7799987793</ele>
        <time>2023-10-01T13:43:12.000Z</time>
      </trkpt>
      <trkpt lat="42.0878" lon="19.81329">
        <ele>121.26000213623</ele>
        <time>2023-10-01T13:43:11.000Z</time>
      </trkpt>
      <trkpt lat="42.08787" lon="19.81323">
        <ele>122.2200012207</ele>
        <time>2023-10-01T13:43:10.000Z</time>
      </trkpt>
      <trkpt lat="42.08794" lon="19.81314">
        <ele>122.70999908447</ele>
        <time>2023-10-01T13:43:09.000Z</time>
      </trkpt>
      <trkpt lat="42.088" lon="19.81305">
        <ele>123.66999816895</ele>
        <time>2023-10-01T13:43:08.000Z</time>
      </trkpt>
      <trkpt lat="42.08806" lon="19.81294">
        <ele>124.15000152588</ele>
        <time>2023-10-01T13:43:07.000Z</time>
      </trkpt>
      <trkpt lat="42.08812" lon="19.81283">
        <ele>125.58999633789</ele>
        <time>2023-10-01T13:43:06.000Z</time>
      </trkpt>
      <trkpt lat="42.08813" lon="19.81281">
        <ele>125.58999633789</ele>
        <time>2023-10-01T13:43:05.000Z</time>
      </trkpt>
      <trkpt lat="42.08831" lon="19.81244">
        <ele>127.98999786377</ele>
        <time>2023-10-01T13:43:02.000Z</time>
      </trkpt>
      <trkpt lat="42.08835" lon="19.81235">
        <ele>128.4700012207</ele>
        <time>2023-10-01T13:43:01.000Z</time>
      </trkpt>
      <trkpt lat="42.08841" lon="19.81228">
        <ele>128.94999694824</ele>
        <time>2023-10-01T13:43:00.000Z</time>
      </trkpt>
      <trkpt lat="42.08847" lon="19.81225">
        <ele>128.94999694824</ele>
        <time>2023-10-01T13:42:59.000Z</time>
      </trkpt>
      <trkpt lat="42.08855" lon="19.81222">
        <ele>129.42999267578</ele>
        <time>2023-10-01T13:42:58.000Z</time>
      </trkpt>
      <trkpt lat="42.08864" lon="19.81223">
        <ele>129.42999267578</ele>
        <time>2023-10-01T13:42:57.000Z</time>
      </trkpt>
      <trkpt lat="42.08872" lon="19.81226">
        <ele>129.42999267578</ele>
        <time>2023-10-01T13:42:56.000Z</time>
      </trkpt>
      <trkpt lat="42.089" lon="19.81238">
        <ele>129.91999816895</ele>
        <time>2023-10-01T13:42:53.000Z</time>
      </trkpt>
      <trkpt lat="42.0892" lon="19.81249">
        <ele>130.39999389648</ele>
        <time>2023-10-01T13:42:51.000Z</time>
      </trkpt>
      <trkpt lat="42.08923" lon="19.81251">
        <ele>130.39999389648</ele>
        <time>2023-10-01T13:42:50.000Z</time>
      </trkpt>
      <trkpt lat="42.08932" lon="19.81254">
        <ele>130.88000488281</ele>
        <time>2023-10-01T13:42:49.000Z</time>
      </trkpt>
      <trkpt lat="42.08946" lon="19.8126">
        <ele>131.36000061035</ele>
        <time>2023-10-01T13:42:48.000Z</time>
      </trkpt>
      <trkpt lat="42.08958" lon="19.81265">
        <ele>131.83999633789</ele>
        <time>2023-10-01T13:42:47.000Z</time>
      </trkpt>
      <trkpt lat="42.08964" lon="19.81269">
        <ele>132.32000732422</ele>
        <time>2023-10-01T13:42:46.000Z</time>
      </trkpt>
      <trkpt lat="42.08975" lon="19.81276">
        <ele>133.2799987793</ele>
        <time>2023-10-01T13:42:45.000Z</time>
      </trkpt>
      <trkpt lat="42.08984" lon="19.81281">
        <ele>133.75999450684</ele>
        <time>2023-10-01T13:42:44.000Z</time>
      </trkpt>
      <trkpt lat="42.09015" lon="19.81299">
        <ele>134.7200012207</ele>
        <time>2023-10-01T13:42:40.000Z</time>
      </trkpt>
      <trkpt lat="42.09024" lon="19.81305">
        <ele>134.7200012207</ele>
        <time>2023-10-01T13:42:39.000Z</time>
      </trkpt>
      <trkpt lat="42.09033" lon="19.81312">
        <ele>134.7200012207</ele>
        <time>2023-10-01T13:42:38.000Z</time>
      </trkpt>
      <trkpt lat="42.09041" lon="19.8132">
        <ele>134.7200012207</ele>
        <time>2023-10-01T13:42:37.000Z</time>
      </trkpt>
      <trkpt lat="42.09042" lon="19.81322">
        <ele>134.7200012207</ele>
        <time>2023-10-01T13:42:36.000Z</time>
      </trkpt>
      <trkpt lat="42.09053" lon="19.81335">
        <ele>134.24000549316</ele>
        <time>2023-10-01T13:42:35.000Z</time>
      </trkpt>
      <trkpt lat="42.09061" lon="19.81347">
        <ele>134.24000549316</ele>
        <time>2023-10-01T13:42:34.000Z</time>
      </trkpt>
      <trkpt lat="42.09067" lon="19.81356">
        <ele>134.24000549316</ele>
        <time>2023-10-01T13:42:33.000Z</time>
      </trkpt>
      <trkpt lat="42.0907" lon="19.81366">
        <ele>134.24000549316</ele>
        <time>2023-10-01T13:42:32.000Z</time>
      </trkpt>
      <trkpt lat="42.09072" lon="19.81375">
        <ele>133.75999450684</ele>
        <time>2023-10-01T13:42:31.000Z</time>
      </trkpt>
      <trkpt lat="42.09073" lon="19.81378">
        <ele>133.75999450684</ele>
        <time>2023-10-01T13:42:30.000Z</time>
      </trkpt>
      <trkpt lat="42.09076" lon="19.81398">
        <ele>133.75999450684</ele>
        <time>2023-10-01T13:42:29.000Z</time>
      </trkpt>
      <trkpt lat="42.09077" lon="19.81407">
        <ele>133.2799987793</ele>
        <time>2023-10-01T13:42:28.000Z</time>
      </trkpt>
      <trkpt lat="42.09081" lon="19.81422">
        <ele>132.80000305176</ele>
        <time>2023-10-01T13:42:27.000Z</time>
      </trkpt>
      <trkpt lat="42.09086" lon="19.81438">
        <ele>131.83999633789</ele>
        <time>2023-10-01T13:42:26.000Z</time>
      </trkpt>
      <trkpt lat="42.09092" lon="19.8145">
        <ele>130.88000488281</ele>
        <time>2023-10-01T13:42:25.000Z</time>
      </trkpt>
      <trkpt lat="42.09099" lon="19.81461">
        <ele>129.42999267578</ele>
        <time>2023-10-01T13:42:24.000Z</time>
      </trkpt>
      <trkpt lat="42.09108" lon="19.81469">
        <ele>128.94999694824</ele>
        <time>2023-10-01T13:42:23.000Z</time>
      </trkpt>
      <trkpt lat="42.09118" lon="19.81474">
        <ele>127.98999786377</ele>
        <time>2023-10-01T13:42:22.000Z</time>
      </trkpt>
      <trkpt lat="42.0913" lon="19.81477">
        <ele>127.0299987793</ele>
        <time>2023-10-01T13:42:21.000Z</time>
      </trkpt>
      <trkpt lat="42.09135" lon="19.81478">
        <ele>127.0299987793</ele>
        <time>2023-10-01T13:42:20.000Z</time>
      </trkpt>
      <trkpt lat="42.0916" lon="19.81479">
        <ele>124.62999725342</ele>
        <time>2023-10-01T13:42:19.000Z</time>
      </trkpt>
      <trkpt lat="42.09174" lon="19.81481">
        <ele>123.19000244141</ele>
        <time>2023-10-01T13:42:18.000Z</time>
      </trkpt>
      <trkpt lat="42.09176" lon="19.81482">
        <ele>122.70999908447</ele>
        <time>2023-10-01T13:42:17.000Z</time>
      </trkpt>
      <trkpt lat="42.09201" lon="19.8149">
        <ele>119.81999969482</ele>
        <time>2023-10-01T13:42:16.000Z</time>
      </trkpt>
      <trkpt lat="42.0921" lon="19.81491">
        <ele>118.86000061035</ele>
        <time>2023-10-01T13:42:15.000Z</time>
      </trkpt>
      <trkpt lat="42.09229" lon="19.81491">
        <ele>116.94000244141</ele>
        <time>2023-10-01T13:42:14.000Z</time>
      </trkpt>
      <trkpt lat="42.09245" lon="19.81492">
        <ele>115.01000213623</ele>
        <time>2023-10-01T13:42:13.000Z</time>
      </trkpt>
      <trkpt lat="42.09258" lon="19.81495">
        <ele>113.56999969482</ele>
        <time>2023-10-01T13:42:12.000Z</time>
      </trkpt>
      <trkpt lat="42.09269" lon="19.81501">
        <ele>112.12999725342</ele>
        <time>2023-10-01T13:42:11.000Z</time>
      </trkpt>
      <trkpt lat="42.09279" lon="19.8151">
        <ele>111.16999816895</ele>
        <time>2023-10-01T13:42:10.000Z</time>
      </trkpt>
      <trkpt lat="42.09289" lon="19.81521">
        <ele>110.20999908447</ele>
        <time>2023-10-01T13:42:09.000Z</time>
      </trkpt>
      <trkpt lat="42.09299" lon="19.81536">
        <ele>108.76999664307</ele>
        <time>2023-10-01T13:42:08.000Z</time>
      </trkpt>
      <trkpt lat="42.09306" lon="19.8155">
        <ele>107.80999755859</ele>
        <time>2023-10-01T13:42:07.000Z</time>
      </trkpt>
      <trkpt lat="42.09312" lon="19.81566">
        <ele>106.83999633789</ele>
        <time>2023-10-01T13:42:06.000Z</time>
      </trkpt>
      <trkpt lat="42.09318" lon="19.81576">
        <ele>106.36000061035</ele>
        <time>2023-10-01T13:42:05.000Z</time>
      </trkpt>
      <trkpt lat="42.09325" lon="19.81588">
        <ele>105.87999725342</ele>
        <time>2023-10-01T13:42:04.000Z</time>
      </trkpt>
      <trkpt lat="42.09331" lon="19.81598">
        <ele>104.91999816895</ele>
        <time>2023-10-01T13:42:03.000Z</time>
      </trkpt>
      <trkpt lat="42.09333" lon="19.81604">
        <ele>104.91999816895</ele>
        <time>2023-10-01T13:42:02.000Z</time>
      </trkpt>
      <trkpt lat="42.09338" lon="19.81618">
        <ele>104.44000244141</ele>
        <time>2023-10-01T13:42:01.000Z</time>
      </trkpt>
      <trkpt lat="42.09343" lon="19.81627">
        <ele>103.95999908447</ele>
        <time>2023-10-01T13:42:00.000Z</time>
      </trkpt>
      <trkpt lat="42.09348" lon="19.81632">
        <ele>103.95999908447</ele>
        <time>2023-10-01T13:41:59.000Z</time>
      </trkpt>
      <trkpt lat="42.09354" lon="19.81636">
        <ele>103.95999908447</ele>
        <time>2023-10-01T13:41:58.000Z</time>
      </trkpt>
      <trkpt lat="42.09359" lon="19.81637">
        <ele>103.95999908447</ele>
        <time>2023-10-01T13:41:57.000Z</time>
      </trkpt>
      <trkpt lat="42.09364" lon="19.81636">
        <ele>103.95999908447</ele>
        <time>2023-10-01T13:41:56.000Z</time>
      </trkpt>
      <trkpt lat="42.0937" lon="19.81633">
        <ele>103.95999908447</ele>
        <time>2023-10-01T13:41:55.000Z</time>
      </trkpt>
      <trkpt lat="42.09372" lon="19.81631">
        <ele>103.95999908447</ele>
        <time>2023-10-01T13:41:54.000Z</time>
      </trkpt>
      <trkpt lat="42.09394" lon="19.81608">
        <ele>104.91999816895</ele>
        <time>2023-10-01T13:41:50.000Z</time>
      </trkpt>
      <trkpt lat="42.094" lon="19.81603">
        <ele>104.91999816895</ele>
        <time>2023-10-01T13:41:49.000Z</time>
      </trkpt>
      <trkpt lat="42.09405" lon="19.81598">
        <ele>104.91999816895</ele>
        <time>2023-10-01T13:41:48.000Z</time>
      </trkpt>
      <trkpt lat="42.09411" lon="19.81592">
        <ele>104.91999816895</ele>
        <time>2023-10-01T13:41:47.000Z</time>
      </trkpt>
      <trkpt lat="42.09414" lon="19.81587">
        <ele>105.40000152588</ele>
        <time>2023-10-01T13:41:46.000Z</time>
      </trkpt>
      <trkpt lat="42.0942" lon="19.81579">
        <ele>105.40000152588</ele>
        <time>2023-10-01T13:41:45.000Z</time>
      </trkpt>
      <trkpt lat="42.09424" lon="19.81573">
        <ele>105.87999725342</ele>
        <time>2023-10-01T13:41:44.000Z</time>
      </trkpt>
      <trkpt lat="42.09448" lon="19.81543">
        <ele>104.44000244141</ele>
        <time>2023-10-01T13:41:41.000Z</time>
      </trkpt>
      <trkpt lat="42.09457" lon="19.81534">
        <ele>103.95999908447</ele>
        <time>2023-10-01T13:41:40.000Z</time>
      </trkpt>
      <trkpt lat="42.09467" lon="19.81526">
        <ele>103</ele>
        <time>2023-10-01T13:41:39.000Z</time>
      </trkpt>
      <trkpt lat="42.09474" lon="19.81523">
        <ele>102.51999664307</ele>
        <time>2023-10-01T13:41:38.000Z</time>
      </trkpt>
      <trkpt lat="42.09496" lon="19.81514">
        <ele>101.55999755859</ele>
        <time>2023-10-01T13:41:36.000Z</time>
      </trkpt>
      <trkpt lat="42.0951" lon="19.81507">
        <ele>101.08000183105</ele>
        <time>2023-10-01T13:41:35.000Z</time>
      </trkpt>
      <trkpt lat="42.09525" lon="19.81498">
        <ele>101.08000183105</ele>
        <time>2023-10-01T13:41:34.000Z</time>
      </trkpt>
      <trkpt lat="42.09539" lon="19.81491">
        <ele>100.59999847412</ele>
        <time>2023-10-01T13:41:33.000Z</time>
      </trkpt>
      <trkpt lat="42.09548" lon="19.81488">
        <ele>100.11000061035</ele>
        <time>2023-10-01T13:41:32.000Z</time>
      </trkpt>
      <trkpt lat="42.09558" lon="19.81486">
        <ele>100.11000061035</ele>
        <time>2023-10-01T13:41:31.000Z</time>
      </trkpt>
      <trkpt lat="42.09568" lon="19.81485">
        <ele>99.629997253418</ele>
        <time>2023-10-01T13:41:30.000Z</time>
      </trkpt>
      <trkpt lat="42.09577" lon="19.81488">
        <ele>99.150001525879</ele>
        <time>2023-10-01T13:41:29.000Z</time>
      </trkpt>
      <trkpt lat="42.09587" lon="19.81493">
        <ele>99.150001525879</ele>
        <time>2023-10-01T13:41:28.000Z</time>
      </trkpt>
      <trkpt lat="42.09598" lon="19.815">
        <ele>98.190002441406</ele>
        <time>2023-10-01T13:41:27.000Z</time>
      </trkpt>
      <trkpt lat="42.09607" lon="19.81509">
        <ele>97.709999084473</ele>
        <time>2023-10-01T13:41:26.000Z</time>
      </trkpt>
      <trkpt lat="42.09613" lon="19.81516">
        <ele>97.230003356934</ele>
        <time>2023-10-01T13:41:25.000Z</time>
      </trkpt>
      <trkpt lat="42.09621" lon="19.8153">
        <ele>96.269996643066</ele>
        <time>2023-10-01T13:41:24.000Z</time>
      </trkpt>
      <trkpt lat="42.09629" lon="19.81541">
        <ele>95.309997558594</ele>
        <time>2023-10-01T13:41:23.000Z</time>
      </trkpt>
      <trkpt lat="42.09662" lon="19.81581">
        <ele>92.419998168945</ele>
        <time>2023-10-01T13:41:19.000Z</time>
      </trkpt>
      <trkpt lat="42.09668" lon="19.81587">
        <ele>91.940002441406</ele>
        <time>2023-10-01T13:41:18.000Z</time>
      </trkpt>
      <trkpt lat="42.09675" lon="19.81595">
        <ele>90.980003356934</ele>
        <time>2023-10-01T13:41:17.000Z</time>
      </trkpt>
      <trkpt lat="42.0968" lon="19.816">
        <ele>90.5</ele>
        <time>2023-10-01T13:41:16.000Z</time>
      </trkpt>
      <trkpt lat="42.09683" lon="19.81604">
        <ele>90.019996643066</ele>
        <time>2023-10-01T13:41:15.000Z</time>
      </trkpt>
      <trkpt lat="42.09689" lon="19.8161">
        <ele>90.019996643066</ele>
        <time>2023-10-01T13:41:14.000Z</time>
      </trkpt>
      <trkpt lat="42.0969" lon="19.81612">
        <ele>89.540000915527</ele>
        <time>2023-10-01T13:41:13.000Z</time>
      </trkpt>
      <trkpt lat="42.09697" lon="19.81618">
        <ele>89.059997558594</ele>
        <time>2023-10-01T13:41:12.000Z</time>
      </trkpt>
      <trkpt lat="42.09703" lon="19.81624">
        <ele>88.580001831055</ele>
        <time>2023-10-01T13:41:11.000Z</time>
      </trkpt>
      <trkpt lat="42.09709" lon="19.81629">
        <ele>88.099998474121</ele>
        <time>2023-10-01T13:41:10.000Z</time>
      </trkpt>
      <trkpt lat="42.09713" lon="19.81633">
        <ele>87.620002746582</ele>
        <time>2023-10-01T13:41:09.000Z</time>
      </trkpt>
      <trkpt lat="42.09717" lon="19.81639">
        <ele>87.620002746582</ele>
        <time>2023-10-01T13:41:08.000Z</time>
      </trkpt>
      <trkpt lat="42.09732" lon="19.81661">
        <ele>88.099998474121</ele>
        <time>2023-10-01T13:41:05.000Z</time>
      </trkpt>
      <trkpt lat="42.09736" lon="19.81667">
        <ele>87.620002746582</ele>
        <time>2023-10-01T13:41:04.000Z</time>
      </trkpt>
      <trkpt lat="42.0974" lon="19.8167">
        <ele>87.620002746582</ele>
        <time>2023-10-01T13:41:03.000Z</time>
      </trkpt>
      <trkpt lat="42.09745" lon="19.81674">
        <ele>87.620002746582</ele>
        <time>2023-10-01T13:41:02.000Z</time>
      </trkpt>
      <trkpt lat="42.0975" lon="19.81677">
        <ele>88.099998474121</ele>
        <time>2023-10-01T13:41:01.000Z</time>
      </trkpt>
      <trkpt lat="42.09755" lon="19.81679">
        <ele>88.099998474121</ele>
        <time>2023-10-01T13:41:00.000Z</time>
      </trkpt>
      <trkpt lat="42.0976" lon="19.8168">
        <ele>88.099998474121</ele>
        <time>2023-10-01T13:40:59.000Z</time>
      </trkpt>
      <trkpt lat="42.09761" lon="19.8168">
        <ele>88.099998474121</ele>
        <time>2023-10-01T13:40:58.000Z</time>
      </trkpt>
      <trkpt lat="42.0977" lon="19.8168">
        <ele>88.099998474121</ele>
        <time>2023-10-01T13:40:57.000Z</time>
      </trkpt>
      <trkpt lat="42.09851" lon="19.81679">
        <ele>87.139999389648</ele>
        <time>2023-10-01T13:40:46.000Z</time>
      </trkpt>
      <trkpt lat="42.09861" lon="19.81679">
        <ele>86.660003662109</ele>
        <time>2023-10-01T13:40:44.000Z</time>
      </trkpt>
      <trkpt lat="42.09934" lon="19.8168">
        <ele>86.660003662109</ele>
        <time>2023-10-01T13:40:35.000Z</time>
      </trkpt>
      <trkpt lat="42.0994" lon="19.81679">
        <ele>86.660003662109</ele>
        <time>2023-10-01T13:40:34.000Z</time>
      </trkpt>
      <trkpt lat="42.09944" lon="19.81675">
        <ele>87.139999389648</ele>
        <time>2023-10-01T13:40:33.000Z</time>
      </trkpt>
      <trkpt lat="42.09947" lon="19.8167">
        <ele>87.139999389648</ele>
        <time>2023-10-01T13:40:32.000Z</time>
      </trkpt>
      <trkpt lat="42.09949" lon="19.81662">
        <ele>87.139999389648</ele>
        <time>2023-10-01T13:40:31.000Z</time>
      </trkpt>
      <trkpt lat="42.09949" lon="19.81655">
        <ele>87.620002746582</ele>
        <time>2023-10-01T13:40:30.000Z</time>
      </trkpt>
      <trkpt lat="42.09948" lon="19.81647">
        <ele>87.620002746582</ele>
        <time>2023-10-01T13:40:29.000Z</time>
      </trkpt>
      <trkpt lat="42.09943" lon="19.81602">
        <ele>88.580001831055</ele>
        <time>2023-10-01T13:40:25.000Z</time>
      </trkpt>
      <trkpt lat="42.09943" lon="19.81591">
        <ele>89.059997558594</ele>
        <time>2023-10-01T13:40:24.000Z</time>
      </trkpt>
      <trkpt lat="42.09944" lon="19.8158">
        <ele>89.059997558594</ele>
        <time>2023-10-01T13:40:23.000Z</time>
      </trkpt>
      <trkpt lat="42.09945" lon="19.81572">
        <ele>89.059997558594</ele>
        <time>2023-10-01T13:40:22.000Z</time>
      </trkpt>
      <trkpt lat="42.09948" lon="19.81558">
        <ele>89.540000915527</ele>
        <time>2023-10-01T13:40:21.000Z</time>
      </trkpt>
      <trkpt lat="42.09952" lon="19.81545">
        <ele>90.019996643066</ele>
        <time>2023-10-01T13:40:20.000Z</time>
      </trkpt>
      <trkpt lat="42.09956" lon="19.81535">
        <ele>90.5</ele>
        <time>2023-10-01T13:40:19.000Z</time>
      </trkpt>
      <trkpt lat="42.0996" lon="19.81529">
        <ele>90.5</ele>
        <time>2023-10-01T13:40:18.000Z</time>
      </trkpt>
      <trkpt lat="42.09984" lon="19.81493">
        <ele>91.459999084473</ele>
        <time>2023-10-01T13:40:14.000Z</time>
      </trkpt>
      <trkpt lat="42.1001" lon="19.81466">
        <ele>91.940002441406</ele>
        <time>2023-10-01T13:40:10.000Z</time>
      </trkpt>
      <trkpt lat="42.10017" lon="19.81461">
        <ele>91.940002441406</ele>
        <time>2023-10-01T13:40:09.000Z</time>
      </trkpt>
      <trkpt lat="42.10022" lon="19.81457">
        <ele>91.940002441406</ele>
        <time>2023-10-01T13:40:08.000Z</time>
      </trkpt>
      <trkpt lat="42.10031" lon="19.81453">
        <ele>92.419998168945</ele>
        <time>2023-10-01T13:40:07.000Z</time>
      </trkpt>
      <trkpt lat="42.10038" lon="19.8145">
        <ele>92.419998168945</ele>
        <time>2023-10-01T13:40:06.000Z</time>
      </trkpt>
      <trkpt lat="42.10046" lon="19.81448">
        <ele>92.900001525879</ele>
        <time>2023-10-01T13:40:05.000Z</time>
      </trkpt>
      <trkpt lat="42.10054" lon="19.81447">
        <ele>93.389999389648</ele>
        <time>2023-10-01T13:40:04.000Z</time>
      </trkpt>
      <trkpt lat="42.10062" lon="19.81448">
        <ele>93.870002746582</ele>
        <time>2023-10-01T13:40:03.000Z</time>
      </trkpt>
      <trkpt lat="42.1007" lon="19.81451">
        <ele>94.830001831055</ele>
        <time>2023-10-01T13:40:02.000Z</time>
      </trkpt>
      <trkpt lat="42.10094" lon="19.81463">
        <ele>96.269996643066</ele>
        <time>2023-10-01T13:39:59.000Z</time>
      </trkpt>
      <trkpt lat="42.10102" lon="19.81468">
        <ele>97.230003356934</ele>
        <time>2023-10-01T13:39:58.000Z</time>
      </trkpt>
      <trkpt lat="42.10108" lon="19.81476">
        <ele>98.190002441406</ele>
        <time>2023-10-01T13:39:57.000Z</time>
      </trkpt>
      <trkpt lat="42.10111" lon="19.81487">
        <ele>99.150001525879</ele>
        <time>2023-10-01T13:39:56.000Z</time>
      </trkpt>
      <trkpt lat="42.10112" lon="19.81499">
        <ele>100.11000061035</ele>
        <time>2023-10-01T13:39:55.000Z</time>
      </trkpt>
      <trkpt lat="42.10114" lon="19.81509">
        <ele>100.59999847412</ele>
        <time>2023-10-01T13:39:54.000Z</time>
      </trkpt>
      <trkpt lat="42.10118" lon="19.81533">
        <ele>101.55999755859</ele>
        <time>2023-10-01T13:39:52.000Z</time>
      </trkpt>
      <trkpt lat="42.1012" lon="19.81547">
        <ele>102.51999664307</ele>
        <time>2023-10-01T13:39:51.000Z</time>
      </trkpt>
      <trkpt lat="42.10123" lon="19.8156">
        <ele>103</ele>
        <time>2023-10-01T13:39:50.000Z</time>
      </trkpt>
      <trkpt lat="42.10127" lon="19.81572">
        <ele>103.48000335693</ele>
        <time>2023-10-01T13:39:49.000Z</time>
      </trkpt>
      <trkpt lat="42.10133" lon="19.81583">
        <ele>104.44000244141</ele>
        <time>2023-10-01T13:39:48.000Z</time>
      </trkpt>
      <trkpt lat="42.10141" lon="19.81591">
        <ele>105.40000152588</ele>
        <time>2023-10-01T13:39:47.000Z</time>
      </trkpt>
      <trkpt lat="42.1015" lon="19.81598">
        <ele>105.87999725342</ele>
        <time>2023-10-01T13:39:46.000Z</time>
      </trkpt>
      <trkpt lat="42.10159" lon="19.81602">
        <ele>105.87999725342</ele>
        <time>2023-10-01T13:39:45.000Z</time>
      </trkpt>
      <trkpt lat="42.10168" lon="19.81604">
        <ele>106.36000061035</ele>
        <time>2023-10-01T13:39:44.000Z</time>
      </trkpt>
      <trkpt lat="42.10177" lon="19.81605">
        <ele>107.31999969482</ele>
        <time>2023-10-01T13:39:43.000Z</time>
      </trkpt>
      <trkpt lat="42.10188" lon="19.81606">
        <ele>107.80999755859</ele>
        <time>2023-10-01T13:39:42.000Z</time>
      </trkpt>
      <trkpt lat="42.10219" lon="19.81603">
        <ele>109.73000335693</ele>
        <time>2023-10-01T13:39:39.000Z</time>
      </trkpt>
      <trkpt lat="42.10229" lon="19.81606">
        <ele>110.69000244141</ele>
        <time>2023-10-01T13:39:38.000Z</time>
      </trkpt>
      <trkpt lat="42.10238" lon="19.81611">
        <ele>111.65000152588</ele>
        <time>2023-10-01T13:39:37.000Z</time>
      </trkpt>
      <trkpt lat="42.10246" lon="19.81619">
        <ele>112.61000061035</ele>
        <time>2023-10-01T13:39:36.000Z</time>
      </trkpt>
      <trkpt lat="42.10252" lon="19.81629">
        <ele>113.08999633789</ele>
        <time>2023-10-01T13:39:35.000Z</time>
      </trkpt>
      <trkpt lat="42.10255" lon="19.81641">
        <ele>114.05000305176</ele>
        <time>2023-10-01T13:39:34.000Z</time>
      </trkpt>
      <trkpt lat="42.10257" lon="19.81653">
        <ele>114.5299987793</ele>
        <time>2023-10-01T13:39:33.000Z</time>
      </trkpt>
      <trkpt lat="42.10255" lon="19.81666">
        <ele>115.01000213623</ele>
        <time>2023-10-01T13:39:32.000Z</time>
      </trkpt>
      <trkpt lat="42.1025" lon="19.81677">
        <ele>115.5</ele>
        <time>2023-10-01T13:39:31.000Z</time>
      </trkpt>
      <trkpt lat="42.10247" lon="19.81683">
        <ele>115.98000335693</ele>
        <time>2023-10-01T13:39:30.000Z</time>
      </trkpt>
      <trkpt lat="42.10238" lon="19.81697">
        <ele>116.94000244141</ele>
        <time>2023-10-01T13:39:29.000Z</time>
      </trkpt>
      <trkpt lat="42.10233" lon="19.81708">
        <ele>117.90000152588</ele>
        <time>2023-10-01T13:39:28.000Z</time>
      </trkpt>
      <trkpt lat="42.10229" lon="19.81719">
        <ele>118.86000061035</ele>
        <time>2023-10-01T13:39:27.000Z</time>
      </trkpt>
      <trkpt lat="42.10228" lon="19.81731">
        <ele>120.30000305176</ele>
        <time>2023-10-01T13:39:26.000Z</time>
      </trkpt>
      <trkpt lat="42.10229" lon="19.81741">
        <ele>120.7799987793</ele>
        <time>2023-10-01T13:39:25.000Z</time>
      </trkpt>
      <trkpt lat="42.10232" lon="19.81756">
        <ele>121.73999786377</ele>
        <time>2023-10-01T13:39:24.000Z</time>
      </trkpt>
      <trkpt lat="42.10237" lon="19.81769">
        <ele>122.2200012207</ele>
        <time>2023-10-01T13:39:23.000Z</time>
      </trkpt>
      <trkpt lat="42.10243" lon="19.81779">
        <ele>122.70999908447</ele>
        <time>2023-10-01T13:39:22.000Z</time>
      </trkpt>
      <trkpt lat="42.10252" lon="19.81786">
        <ele>123.66999816895</ele>
        <time>2023-10-01T13:39:21.000Z</time>
      </trkpt>
      <trkpt lat="42.1026" lon="19.81791">
        <ele>123.66999816895</ele>
        <time>2023-10-01T13:39:20.000Z</time>
      </trkpt>
      <trkpt lat="42.10272" lon="19.81794">
        <ele>124.15000152588</ele>
        <time>2023-10-01T13:39:19.000Z</time>
      </trkpt>
      <trkpt lat="42.10307" lon="19.81798">
        <ele>128.4700012207</ele>
        <time>2023-10-01T13:39:16.000Z</time>
      </trkpt>
      <trkpt lat="42.10319" lon="19.81801">
        <ele>129.91999816895</ele>
        <time>2023-10-01T13:39:15.000Z</time>
      </trkpt>
      <trkpt lat="42.1033" lon="19.81808">
        <ele>131.36000061035</ele>
        <time>2023-10-01T13:39:14.000Z</time>
      </trkpt>
      <trkpt lat="42.1034" lon="19.81816">
        <ele>133.2799987793</ele>
        <time>2023-10-01T13:39:13.000Z</time>
      </trkpt>
      <trkpt lat="42.10342" lon="19.81817">
        <ele>133.2799987793</ele>
        <time>2023-10-01T13:39:12.000Z</time>
      </trkpt>
      <trkpt lat="42.10359" lon="19.81834">
        <ele>136.16000366211</ele>
        <time>2023-10-01T13:39:11.000Z</time>
      </trkpt>
      <trkpt lat="42.10369" lon="19.81847">
        <ele>138.08999633789</ele>
        <time>2023-10-01T13:39:10.000Z</time>
      </trkpt>
      <trkpt lat="42.10377" lon="19.81861">
        <ele>140.00999450684</ele>
        <time>2023-10-01T13:39:09.000Z</time>
      </trkpt>
      <trkpt lat="42.10381" lon="19.81876">
        <ele>141.92999267578</ele>
        <time>2023-10-01T13:39:08.000Z</time>
      </trkpt>
      <trkpt lat="42.10382" lon="19.8189">
        <ele>143.85000610352</ele>
        <time>2023-10-01T13:39:07.000Z</time>
      </trkpt>
      <trkpt lat="42.10379" lon="19.81904">
        <ele>145.30000305176</ele>
        <time>2023-10-01T13:39:06.000Z</time>
      </trkpt>
      <trkpt lat="42.10373" lon="19.81916">
        <ele>146.74000549316</ele>
        <time>2023-10-01T13:39:05.000Z</time>
      </trkpt>
      <trkpt lat="42.10369" lon="19.81927">
        <ele>147.69999694824</ele>
        <time>2023-10-01T13:39:04.000Z</time>
      </trkpt>
      <trkpt lat="42.10368" lon="19.81938">
        <ele>148.17999267578</ele>
        <time>2023-10-01T13:39:03.000Z</time>
      </trkpt>
      <trkpt lat="42.10371" lon="19.81951">
        <ele>149.13999938965</ele>
        <time>2023-10-01T13:39:02.000Z</time>
      </trkpt>
      <trkpt lat="42.10375" lon="19.81963">
        <ele>149.61999511719</ele>
        <time>2023-10-01T13:39:01.000Z</time>
      </trkpt>
      <trkpt lat="42.1038" lon="19.81974">
        <ele>150.10000610352</ele>
        <time>2023-10-01T13:39:00.000Z</time>
      </trkpt>
      <trkpt lat="42.10386" lon="19.81988">
        <ele>151.05999755859</ele>
        <time>2023-10-01T13:38:59.000Z</time>
      </trkpt>
      <trkpt lat="42.10388" lon="19.81992">
        <ele>151.05999755859</ele>
        <time>2023-10-01T13:38:58.000Z</time>
      </trkpt>
      <trkpt lat="42.10408" lon="19.82024">
        <ele>152.99000549316</ele>
        <time>2023-10-01T13:38:56.000Z</time>
      </trkpt>
      <trkpt lat="42.10416" lon="19.82038">
        <ele>153.94999694824</ele>
        <time>2023-10-01T13:38:55.000Z</time>
      </trkpt>
      <trkpt lat="42.10421" lon="19.82049">
        <ele>154.42999267578</ele>
        <time>2023-10-01T13:38:54.000Z</time>
      </trkpt>
      <trkpt lat="42.10425" lon="19.82066">
        <ele>154.91000366211</ele>
        <time>2023-10-01T13:38:53.000Z</time>
      </trkpt>
      <trkpt lat="42.10426" lon="19.82075">
        <ele>155.38999938965</ele>
        <time>2023-10-01T13:38:52.000Z</time>
      </trkpt>
      <trkpt lat="42.10429" lon="19.82099">
        <ele>155.38999938965</ele>
        <time>2023-10-01T13:38:51.000Z</time>
      </trkpt>
      <trkpt lat="42.1043" lon="19.82114">
        <ele>155.86999511719</ele>
        <time>2023-10-01T13:38:50.000Z</time>
      </trkpt>
      <trkpt lat="42.10431" lon="19.82121">
        <ele>155.86999511719</ele>
        <time>2023-10-01T13:38:49.000Z</time>
      </trkpt>
      <trkpt lat="42.10437" lon="19.82155">
        <ele>155.38999938965</ele>
        <time>2023-10-01T13:38:48.000Z</time>
      </trkpt>
      <trkpt lat="42.10438" lon="19.82169">
        <ele>155.38999938965</ele>
        <time>2023-10-01T13:38:47.000Z</time>
      </trkpt>
      <trkpt lat="42.10439" lon="19.82186">
        <ele>155.86999511719</ele>
        <time>2023-10-01T13:38:46.000Z</time>
      </trkpt>
      <trkpt lat="42.10437" lon="19.82346">
        <ele>161.63999938965</ele>
        <time>2023-10-01T13:38:38.000Z</time>
      </trkpt>
      <trkpt lat="42.10437" lon="19.82359">
        <ele>162.11999511719</ele>
        <time>2023-10-01T13:38:37.000Z</time>
      </trkpt>
      <trkpt lat="42.10438" lon="19.82376">
        <ele>163.08000183105</ele>
        <time>2023-10-01T13:38:36.000Z</time>
      </trkpt>
      <trkpt lat="42.10444" lon="19.82426">
        <ele>166.92999267578</ele>
        <time>2023-10-01T13:38:32.000Z</time>
      </trkpt>
      <trkpt lat="42.1045" lon="19.82456">
        <ele>168.85000610352</ele>
        <time>2023-10-01T13:38:30.000Z</time>
      </trkpt>
      <trkpt lat="42.10451" lon="19.8246">
        <ele>168.85000610352</ele>
        <time>2023-10-01T13:38:29.000Z</time>
      </trkpt>
      <trkpt lat="42.10453" lon="19.82471">
        <ele>169.80999755859</ele>
        <time>2023-10-01T13:38:28.000Z</time>
      </trkpt>
      <trkpt lat="42.10457" lon="19.82492">
        <ele>170.28999328613</ele>
        <time>2023-10-01T13:38:26.000Z</time>
      </trkpt>
      <trkpt lat="42.10459" lon="19.82505">
        <ele>170.77000427246</ele>
        <time>2023-10-01T13:38:25.000Z</time>
      </trkpt>
      <trkpt lat="42.1046" lon="19.8251">
        <ele>170.77000427246</ele>
        <time>2023-10-01T13:38:24.000Z</time>
      </trkpt>
      <trkpt lat="42.10462" lon="19.82519">
        <ele>170.28999328613</ele>
        <time>2023-10-01T13:38:23.000Z</time>
      </trkpt>
      <trkpt lat="42.10465" lon="19.82524">
        <ele>170.28999328613</ele>
        <time>2023-10-01T13:38:22.000Z</time>
      </trkpt>
      <trkpt lat="42.10468" lon="19.8253">
        <ele>170.28999328613</ele>
        <time>2023-10-01T13:38:21.000Z</time>
      </trkpt>
      <trkpt lat="42.10471" lon="19.82535">
        <ele>170.28999328613</ele>
        <time>2023-10-01T13:38:20.000Z</time>
      </trkpt>
      <trkpt lat="42.1048" lon="19.82553">
        <ele>169.33000183105</ele>
        <time>2023-10-01T13:38:18.000Z</time>
      </trkpt>
      <trkpt lat="42.10483" lon="19.8256">
        <ele>169.33000183105</ele>
        <time>2023-10-01T13:38:17.000Z</time>
      </trkpt>
      <trkpt lat="42.10486" lon="19.82567">
        <ele>169.33000183105</ele>
        <time>2023-10-01T13:38:16.000Z</time>
      </trkpt>
      <trkpt lat="42.10489" lon="19.82573">
        <ele>169.33000183105</ele>
        <time>2023-10-01T13:38:15.000Z</time>
      </trkpt>
      <trkpt lat="42.10493" lon="19.8258">
        <ele>169.33000183105</ele>
        <time>2023-10-01T13:38:14.000Z</time>
      </trkpt>
      <trkpt lat="42.10496" lon="19.82585">
        <ele>168.85000610352</ele>
        <time>2023-10-01T13:38:13.000Z</time>
      </trkpt>
      <trkpt lat="42.10499" lon="19.82591">
        <ele>168.85000610352</ele>
        <time>2023-10-01T13:38:12.000Z</time>
      </trkpt>
      <trkpt lat="42.10499" lon="19.82592">
        <ele>168.85000610352</ele>
        <time>2023-10-01T13:38:11.000Z</time>
      </trkpt>
      <trkpt lat="42.1051" lon="19.82604">
        <ele>167.41000366211</ele>
        <time>2023-10-01T13:38:08.000Z</time>
      </trkpt>
      <trkpt lat="42.10514" lon="19.82606">
        <ele>166.92999267578</ele>
        <time>2023-10-01T13:38:07.000Z</time>
      </trkpt>
      <trkpt lat="42.1052" lon="19.82608">
        <ele>165.47999572754</ele>
        <time>2023-10-01T13:38:06.000Z</time>
      </trkpt>
      <trkpt lat="42.10524" lon="19.82607">
        <ele>163.55999755859</ele>
        <time>2023-10-01T13:38:05.000Z</time>
      </trkpt>
      <trkpt lat="42.10529" lon="19.82606">
        <ele>163.55999755859</ele>
        <time>2023-10-01T13:38:04.000Z</time>
      </trkpt>
      <trkpt lat="42.10533" lon="19.82603">
        <ele>163.55999755859</ele>
        <time>2023-10-01T13:38:03.000Z</time>
      </trkpt>
      <trkpt lat="42.10535" lon="19.82602">
        <ele>163.55999755859</ele>
        <time>2023-10-01T13:38:02.000Z</time>
      </trkpt>
      <trkpt lat="42.1054" lon="19.82599">
        <ele>164.03999328613</ele>
        <time>2023-10-01T13:38:01.000Z</time>
      </trkpt>
      <trkpt lat="42.10561" lon="19.82576">
        <ele>188.68359375</ele>
      </trkpt>
      <trkpt lat="42.10602" lon="19.8254">
        <ele>219.859375</ele>
      </trkpt>
      <trkpt lat="42.10647" lon="19.82509">
        <ele>232.109375</ele>
      </trkpt>
      <trkpt lat="42.10681" lon="19.82497">
        <ele>239.8671875</ele>
      </trkpt>
      <trkpt lat="42.10683" lon="19.82497">
        <ele>239.8828125</ele>
      </trkpt>
      <trkpt lat="42.10723" lon="19.82486">
        <ele>247.12109375</ele>
      </trkpt>
      <trkpt lat="42.10727" lon="19.82486">
        <ele>247.60546875</ele>
      </trkpt>
      <trkpt lat="42.10742" lon="19.82485">
        <ele>248.0546875</ele>
      </trkpt>
      <trkpt lat="42.10745" lon="19.82486">
        <ele>247.5859375</ele>
      </trkpt>
      <trkpt lat="42.10778" lon="19.82489">
        <ele>246.69921875</ele>
      </trkpt>
      <trkpt lat="42.10806" lon="19.82498">
        <ele>246.19140625</ele>
      </trkpt>
      <trkpt lat="42.10825" lon="19.82511">
        <ele>243.31640625</ele>
      </trkpt>
      <trkpt lat="42.10825" lon="19.8251">
        <ele>243.6796875</ele>
      </trkpt>
      <trkpt lat="42.10843" lon="19.82532">
        <ele>234.75390625</ele>
      </trkpt>
      <trkpt lat="42.10843" lon="19.82532">
        <ele>234.5</ele>
      </trkpt>
      <trkpt lat="42.10855" lon="19.82569">
        <ele>211.60546875</ele>
      </trkpt>
      <trkpt lat="42.1087" lon="19.82609">
        <ele>195.11328125</ele>
        <extensions>
          <visugpx:TrkExtension xmlns:visugpx="https://www.visugpx.com/editgpx/">
            <visugpx:node>1</visugpx:node>
            </visugpx:TrkExtension>
        </extensions>
      </trkpt>
    </trkseg>
  </trk>
</gpx>